[[{"header":{"parameterUnit":"m.s-1","parameterCategory":1,"la1":30.6,"la2":28.766,"lo1":-90.7593,"lo2":-88.6598,"dy":0.0162,"dx":0.0183,"nx":116,"ny":114,"refTime":"2023-04-25T18:00:00:Z","depth":0,"parameterNumber":2,"parameterNumberName":"U-component_of_WINDS"},"data":[0.0,0.0,0.0,0.0,0.0,0.0,0.0,0.0,0.0,0.0,0.0,0.0,0.0,0.0,0.0,0.0,0.0,0.0,0.0,0.0,0.0,0.0,0.0,0.0,0.0,0.0,0.0,0.0,0.0,0.0,0.0,0.0,0.0,0.0,0.0,0.0,0.0,0.0,0.0,0.0,0.0,0.0,0.0,0.0,0.0,0.0,0.0,0.0,0.0,0.0,0.0,0.0,0.0,0.0,0.0,0.0,0.0,0.0,0.0,0.0,0.0,0.0,0.0,0.0,0.0,0.0,0.0,0.0,0.0,0.0,0.0,0.0,0.0,0.0,0.0,0.0,0.0,0.0,0.0,0.0,0.0,0.0,0.0,0.0,0.0,0.0,0.0,0.0,0.0,0.0,0.0,0.0,0.0,0.0,0.0,0.0,0.0,0.0,0.0,0.0,0.0,0.0,0.0,0.0,0.0,0.0,0.0,0.0,0.0,0.0,0.0,0.0,0.0,0.0,0.0,0.0,0.0,0.0,0.0,0.0,0.0,0.0,0.0,0.0,0.0,0.0,0.0,0.0,0.0,0.0,0.0,0.0,0.0,0.0,0.0,0.0,0.0,0.0,0.0,0.0,0.0,0.0,0.0,0.0,0.0,0.0,0.0,0.0,0.0,0.0,0.0,0.0,0.0,0.0,0.0,0.0,0.0,0.0,0.0,0.0,0.0,0.0,0.0,0.0,0.0,0.0,0.0,0.0,0.0,0.0,0.0,0.0,0.0,0.0,0.0,0.0,0.0,0.0,0.0,0.0,0.0,0.0,0.0,0.0,0.0,0.0,0.0,0.0,0.0,0.0,0.0,0.0,0.0,0.0,0.0,0.0,0.0,0.0,0.0,0.0,0.0,0.0,0.0,0.0,0.0,0.0,0.0,0.0,0.0,0.0,0.0,0.0,0.0,0.0,0.0,0.0,0.0,0.0,0.0,0.0,0.0,0.0,0.0,0.0,0.0,0.0,0.0,0.0,0.0,0.0,0.0,0.0,0.0,0.0,0.0,0.0,0.0,0.0,0.0,0.0,0.0,0.0,0.0,0.0,0.0,0.0,0.0,0.0,0.0,0.0,0.0,0.0,0.0,0.0,0.0,0.0,0.0,0.0,0.0,0.0,0.0,0.0,0.0,0.0,0.0,0.0,0.0,0.0,0.0,0.0,0.0,0.0,0.0,0.0,0.0,0.0,0.0,0.0,0.0,0.0,0.0,0.0,0.0,0.0,0.0,0.0,0.0,0.0,0.0,0.0,0.0,0.0,0.0,0.0,0.0,0.0,0.0,0.0,0.0,0.0,0.0,0.0,0.0,0.0,0.0,0.0,0.0,0.0,0.0,0.0,0.0,0.0,0.0,0.0,0.0,0.0,0.0,0.0,0.0,0.0,0.0,0.0,0.0,0.0,0.0,0.0,0.0,0.0,0.0,0.0,0.0,0.0,0.0,0.0,0.0,0.0,0.0,0.0,0.0,0.0,0.0,0.0,0.0,0.0,0.0,0.0,0.0,0.0,0.0,0.0,0.0,0.0,0.0,0.0,0.0,0.0,0.0,0.0,0.0,0.0,0.0,0.0,0.0,0.0,0.0,0.0,0.0,0.0,0.0,0.0,0.0,0.0,0.0,0.0,0.0,0.0,0.0,0.0,0.0,0.0,0.0,0.0,0.0,0.0,0.0,0.0,0.0,0.0,0.0,0.0,0.0,0.0,0.0,0.0,0.0,0.0,0.0,0.0,0.0,0.0,0.0,0.0,0.0,0.0,0.0,0.0,0.0,0.0,0.0,0.0,0.0,0.0,0.0,0.0,0.0,0.0,0.0,0.0,0.0,0.0,0.0,0.0,0.0,0.0,0.0,0.0,0.0,0.0,0.0,0.0,0.0,0.0,0.0,0.0,0.0,0.0,0.0,0.0,0.0,0.0,0.0,0.0,0.0,0.0,0.0,0.0,0.0,0.0,0.0,0.0,0.0,0.0,0.0,0.0,0.0,0.0,0.0,0.0,0.0,0.0,0.0,0.0,0.0,0.0,0.0,0.0,0.0,0.0,0.0,0.0,0.0,0.0,0.0,0.0,0.0,0.0,0.0,0.0,0.0,0.0,0.0,0.0,0.0,0.0,0.0,0.0,0.0,0.0,0.0,0.0,0.0,0.0,0.0,0.0,0.0,0.0,0.0,0.0,0.0,0.0,0.0,0.0,0.0,0.0,0.0,0.0,0.0,0.0,0.0,0.0,0.0,0.0,0.0,0.0,0.0,0.0,0.0,0.0,0.0,0.0,0.0,0.0,0.0,0.0,0.0,0.0,0.0,0.0,0.0,0.0,0.0,0.0,0.0,0.0,0.0,0.0,0.0,0.0,0.0,0.0,0.0,0.0,0.0,0.0,0.0,0.0,0.0,0.0,0.0,0.0,0.0,0.0,0.0,0.0,0.0,0.0,0.0,0.0,0.0,0.0,0.0,0.0,0.0,0.0,0.0,0.0,0.0,0.0,0.0,0.0,0.0,0.0,0.0,0.0,0.0,0.0,0.0,0.0,0.0,0.0,0.0,0.0,0.0,0.0,0.0,0.0,0.0,0.0,0.0,0.0,0.0,0.0,0.0,0.0,0.0,0.0,0.0,0.0,0.0,0.0,0.0,0.0,0.0,0.0,0.0,0.0,0.0,0.0,0.0,0.0,0.0,0.0,0.0,0.0,0.0,0.0,0.0,0.0,0.0,0.0,0.0,0.0,0.0,0.0,0.0,0.0,0.0,0.0,0.0,0.0,0.0,0.0,0.0,0.0,0.0,0.0,0.0,0.0,0.0,0.0,0.0,0.0,0.0,0.0,0.0,0.0,0.0,0.0,0.0,0.0,0.0,0.0,0.0,0.0,0.0,0.0,0.0,0.0,0.0,0.0,0.0,0.0,0.0,0.0,0.0,0.0,0.0,0.0,0.0,0.0,0.0,0.0,0.0,0.0,0.0,0.0,0.0,0.0,0.0,0.0,0.0,0.0,0.0,0.0,0.0,0.0,0.0,0.0,0.0,0.0,0.0,0.0,0.0,0.0,0.0,0.0,0.0,0.0,0.0,0.0,0.0,0.0,0.0,0.0,0.0,0.0,0.0,0.0,0.0,0.0,0.0,0.0,0.0,0.0,0.0,0.0,0.0,0.0,0.0,0.0,0.0,0.0,0.0,0.0,0.0,0.0,0.0,0.0,0.0,0.0,0.0,0.0,0.0,0.0,0.0,0.0,0.0,0.0,0.0,0.0,0.0,0.0,0.0,0.0,0.0,0.0,0.0,0.0,0.0,0.0,0.0,0.0,0.0,0.0,0.0,0.0,0.0,0.0,0.0,0.0,0.0,0.0,0.0,0.0,0.0,0.0,0.0,0.0,0.0,0.0,0.0,0.0,0.0,0.0,0.0,0.0,0.0,0.0,0.0,0.0,0.0,0.0,0.0,0.0,0.0,0.0,0.0,0.0,0.0,0.0,0.0,0.0,0.0,0.0,0.0,0.0,0.0,0.0,0.0,0.0,0.0,0.0,0.0,0.0,0.0,0.0,0.0,0.0,0.0,0.0,0.0,0.0,0.0,0.0,0.0,0.0,0.0,0.0,0.0,0.0,0.0,0.0,0.0,0.0,0.0,0.0,0.0,0.0,0.0,0.0,0.0,0.0,0.0,0.0,0.0,0.0,0.0,0.0,0.0,0.0,0.0,0.0,0.0,0.0,0.0,0.0,0.0,0.0,0.0,0.0,0.0,0.0,0.0,0.0,0.0,0.0,0.0,0.0,0.0,0.0,0.0,0.0,0.0,0.0,0.0,0.0,0.0,0.0,0.0,0.0,0.0,0.0,0.0,0.0,0.0,0.0,0.0,0.0,0.0,0.0,0.0,0.0,0.0,0.0,0.0,0.0,0.0,0.0,0.0,0.0,0.0,0.0,0.0,0.0,0.0,0.0,0.0,0.0,0.0,0.0,0.0,0.0,0.0,0.0,0.0,0.0,0.0,0.0,0.0,0.0,0.0,0.0,0.0,0.0,0.0,0.0,0.0,0.0,0.0,0.0,0.0,0.0,0.0,0.0,0.0,0.0,0.0,0.0,0.0,0.0,0.0,0.0,0.0,0.0,0.0,0.0,0.0,0.0,0.0,0.0,0.0,0.0,0.0,0.0,0.0,0.0,0.0,0.0,0.0,0.0,0.0,0.0,0.0,0.0,0.0,0.0,0.0,0.0,0.0,0.0,0.0,0.0,0.0,0.0,0.0,0.0,0.0,0.0,0.0,0.0,0.0,0.0,0.0,0.0,0.0,0.0,0.0,0.0,0.0,0.0,0.0,0.0,0.0,0.0,0.0,0.0,0.0,0.0,0.0,0.0,0.0,0.0,0.0,0.0,0.0,0.0,0.0,0.0,0.0,0.0,0.0,0.0,0.0,0.0,0.0,0.0,0.0,0.0,0.0,0.0,0.0,0.0,0.0,0.0,0.0,0.0,0.0,0.0,0.0,0.0,0.0,0.0,0.0,0.0,0.0,0.0,0.0,0.0,0.0,0.0,0.0,0.0,0.0,0.0,0.0,0.0,0.0,0.0,0.0,0.0,0.0,0.0,0.0,0.0,0.0,0.0,0.0,0.0,0.0,0.0,0.0,0.0,0.0,0.0,0.0,0.0,0.0,0.0,0.0,0.0,0.0,0.0,0.0,0.0,0.0,0.0,0.0,0.0,0.0,0.0,0.0,0.0,0.0,0.0,0.0,0.0,0.0,0.0,0.0,0.0,0.0,0.0,0.0,0.0,0.0,0.0,0.0,0.0,0.0,0.0,0.0,0.0,0.0,0.0,0.0,0.0,0.0,0.0,0.0,0.0,0.0,0.0,0.0,0.0,0.0,0.0,0.0,0.0,0.0,0.0,0.0,0.0,0.0,0.0,0.0,0.0,0.0,0.0,0.0,0.0,0.0,0.0,0.0,0.0,0.0,0.0,0.0,0.0,0.0,0.0,0.0,0.0,0.0,0.0,0.0,0.0,0.0,0.0,0.0,0.0,0.0,0.0,0.0,0.0,0.0,0.0,0.0,0.0,0.0,0.0,0.0,0.0,0.0,0.0,0.0,0.0,0.0,0.0,0.0,0.0,0.0,0.0,0.0,0.0,0.0,0.0,0.0,0.0,0.0,0.0,0.0,0.0,0.0,0.0,0.0,0.0,0.0,0.0,0.0,0.0,0.0,0.0,0.0,0.0,0.0,0.0,0.0,0.0,0.0,0.0,0.0,0.0,0.0,0.0,0.0,0.0,0.0,0.0,0.0,0.0,0.0,0.0,0.0,0.0,0.0,0.0,0.0,0.0,0.0,0.0,0.0,0.0,0.0,0.0,0.0,0.0,0.0,0.0,0.0,0.0,0.0,0.0,0.0,0.0,0.0,0.0,0.0,0.0,0.0,0.0,0.0,0.0,0.0,0.0,0.0,0.0,0.0,0.0,0.0,0.0,0.0,0.0,0.0,0.0,0.0,0.0,0.0,0.0,0.0,0.0,0.0,0.0,0.0,0.0,0.0,0.0,0.0,0.0,0.0,0.0,0.0,0.0,0.0,0.0,0.0,0.0,0.0,0.0,0.0,0.0,0.0,0.0,0.0,0.0,0.0,0.0,0.0,0.0,0.0,0.0,0.0,0.0,0.0,0.0,0.0,0.0,0.0,0.0,0.0,0.0,0.0,0.0,0.0,0.0,0.0,0.0,0.0,0.0,0.0,0.0,0.0,0.0,0.0,0.0,0.0,0.0,0.0,0.0,0.0,0.0,0.0,0.0,0.0,0.0,0.0,0.0,0.0,0.0,0.0,0.0,0.0,0.0,0.0,0.0,0.0,0.0,0.0,0.0,0.0,0.0,0.0,0.0,0.0,0.0,0.0,0.0,0.0,0.0,0.0,0.0,0.0,0.0,0.0,0.0,0.0,0.0,0.0,0.0,0.0,0.0,0.0,0.0,0.0,0.0,0.0,0.0,0.0,0.0,0.0,0.0,0.0,0.0,0.0,0.0,0.0,0.0,0.0,0.0,0.0,0.0,0.0,0.0,0.0,0.0,0.0,0.0,0.0,0.0,0.0,0.0,2.946,0.0,0.0,0.0,0.0,0.0,0.0,0.0,0.0,0.0,0.0,0.0,0.0,0.0,0.0,0.0,0.0,0.0,0.0,0.0,0.0,0.0,0.0,0.0,0.0,0.0,0.0,0.0,0.0,0.0,0.0,0.0,0.0,0.0,0.0,0.0,0.0,0.0,0.0,0.0,0.0,0.0,0.0,0.0,0.0,0.0,0.0,0.0,0.0,0.0,0.0,0.0,0.0,0.0,0.0,0.0,0.0,0.0,0.0,0.0,0.0,0.0,0.0,0.0,0.0,0.0,0.0,0.0,0.0,0.0,0.0,0.0,0.0,0.0,0.0,0.0,0.0,0.0,0.0,0.0,0.0,0.0,0.0,0.0,0.0,0.0,0.0,0.0,0.0,0.0,0.0,0.0,0.0,0.0,0.0,0.0,0.0,0.0,0.0,0.0,0.0,0.0,0.0,0.0,0.0,0.0,0.0,0.0,0.0,0.0,0.0,0.0,0.0,0.0,0.0,0.0,0.0,3.0195,0.0,0.0,0.0,0.0,0.0,0.0,0.0,0.0,0.0,0.0,0.0,0.0,0.0,0.0,0.0,0.0,0.0,0.0,0.0,0.0,0.0,0.0,0.0,0.0,0.0,0.0,0.0,0.0,0.0,0.0,0.0,0.0,0.0,0.0,0.0,0.0,0.0,0.0,0.0,0.0,0.0,0.0,0.0,0.0,0.0,0.0,0.0,0.0,0.0,0.0,0.0,0.0,0.0,0.0,0.0,0.0,0.0,0.0,0.0,0.0,0.0,0.0,0.0,0.0,0.0,0.0,0.0,0.0,0.0,0.0,0.0,0.0,0.0,0.0,0.0,0.0,0.0,0.0,0.0,0.0,0.0,0.0,0.0,0.0,0.0,0.0,0.0,0.0,0.0,0.0,0.0,0.0,0.0,0.0,0.0,0.0,0.0,0.0,0.0,0.0,0.0,0.0,0.0,0.0,0.0,0.0,0.0,0.0,3.2837,3.308,3.3354,3.4739,3.5386,3.529,3.4756,3.3401,3.1573,3.0598,0.0,0.0,0.0,0.0,0.0,0.0,0.0,0.0,0.0,0.0,0.0,0.0,0.0,0.0,0.0,0.0,0.0,0.0,0.0,0.0,0.0,0.0,0.0,0.0,0.0,0.0,0.0,0.0,0.0,0.0,0.0,0.0,0.0,0.0,0.0,0.0,0.0,0.0,0.0,0.0,0.0,0.0,0.0,0.0,0.0,0.0,0.0,0.0,0.0,0.0,0.0,0.0,0.0,0.0,0.0,0.0,0.0,0.0,0.0,0.0,0.0,0.0,0.0,0.0,0.0,0.0,0.0,0.0,0.0,0.0,0.0,0.0,0.0,0.0,0.0,0.0,0.0,0.0,0.0,0.0,0.0,0.0,0.0,0.0,0.0,0.0,3.0204,2.804,0.0,0.0,0.0,0.0,0.0,0.0,0.0,0.0,0.0,0.0,0.0,0.0,0.0,3.0888,3.1572,3.2043,3.2594,3.3205,3.5041,3.6262,3.69,3.857,3.9194,3.9008,3.8891,0.0,3.3954,3.1339,0.0,0.0,0.0,0.0,0.0,0.0,0.0,0.0,0.0,0.0,0.0,0.0,0.0,0.0,0.0,0.0,0.0,0.0,0.0,0.0,0.0,0.0,0.0,0.0,0.0,0.0,0.0,0.0,0.0,0.0,0.0,0.0,0.0,0.0,0.0,0.0,0.0,0.0,0.0,0.0,0.0,0.0,0.0,0.0,0.0,0.0,0.0,0.0,0.0,0.0,0.0,0.0,0.0,0.0,0.0,0.0,0.0,0.0,0.0,0.0,0.0,0.0,0.0,0.0,0.0,0.0,0.0,0.0,0.0,0.0,0.0,0.0,0.0,0.0,0.0,0.0,0.0,0.0,0.0,0.0,0.0,0.0,0.0,0.0,0.0,2.9339,2.9436,2.7066,2.7111,2.6693,0.0,0.0,0.0,0.0,0.0,0.0,0.0,0.0,0.0,3.0457,3.2022,3.3336,3.4345,3.576,3.6821,3.7552,3.8472,3.9293,4.0014,4.0509,4.0778,4.09,4.0916,4.0057,3.8415,3.5416,3.3323,3.1911,0.0,0.0,0.0,0.0,2.8936,2.9019,0.0,0.0,0.0,0.0,0.0,0.0,0.0,0.0,0.0,0.0,0.0,0.0,0.0,0.0,0.0,0.0,0.0,0.0,0.0,0.0,0.0,0.0,0.0,0.0,0.0,0.0,0.0,0.0,0.0,0.0,0.0,0.0,0.0,0.0,0.0,0.0,0.0,0.0,0.0,0.0,0.0,0.0,0.0,0.0,0.0,0.0,0.0,0.0,0.0,0.0,0.0,0.0,0.0,0.0,0.0,0.0,0.0,0.0,0.0,0.0,0.0,0.0,0.0,0.0,0.0,0.0,0.0,0.0,0.0,0.0,0.0,0.0,0.0,0.0,0.0,0.0,0.0,2.8788,2.8952,2.6569,2.7032,2.7195,0.0,0.0,0.0,0.0,0.0,0.0,2.8611,3.0714,3.2286,3.2967,3.4939,3.6472,3.7569,3.9237,4.0374,4.098,4.0942,4.1226,4.1727,4.1409,4.1389,4.1672,4.1777,4.176,4.1455,3.8322,3.5958,3.4261,3.3313,3.2749,3.2422,3.1796,3.1597,3.164,0.0,0.0,0.0,0.0,0.0,0.0,0.0,0.0,0.0,0.0,0.0,0.0,0.0,0.0,0.0,0.0,0.0,0.0,0.0,0.0,0.0,0.0,0.0,0.0,0.0,0.0,0.0,0.0,0.0,0.0,0.0,0.0,0.0,0.0,0.0,0.0,0.0,0.0,0.0,0.0,0.0,0.0,0.0,0.0,0.0,0.0,0.0,0.0,0.0,0.0,0.0,0.0,0.0,0.0,0.0,0.0,0.0,0.0,0.0,0.0,0.0,0.0,0.0,0.0,0.0,0.0,0.0,0.0,0.0,0.0,0.0,0.0,0.0,0.0,0.0,0.0,0.0,0.0,0.0,2.8135,2.889,0.0,0.0,0.0,0.0,3.0046,3.082,3.1384,3.1733,3.4405,3.6157,3.6803,3.9046,4.0508,4.1143,4.1243,4.1326,4.1359,4.1359,4.1375,4.1409,4.1375,4.1375,4.1409,4.1409,4.1409,4.1187,3.7858,3.6702,3.6667,3.3023,3.1966,3.2453,3.1966,3.1868,3.1981,0.0,0.0,0.0,0.0,0.0,0.0,0.0,0.0,0.0,0.0,0.0,0.0,0.0,0.0,0.0,0.0,0.0,0.0,0.0,0.0,0.0,0.0,0.0,0.0,0.0,0.0,0.0,0.0,0.0,0.0,0.0,0.0,0.0,0.0,0.0,0.0,0.0,0.0,0.0,0.0,0.0,0.0,0.0,0.0,0.0,0.0,0.0,0.0,0.0,0.0,0.0,0.0,0.0,0.0,0.0,0.0,0.0,0.0,0.0,0.0,0.0,0.0,0.0,0.0,0.0,0.0,0.0,0.0,0.0,0.0,0.0,0.0,0.0,0.0,0.0,0.0,0.0,0.0,0.0,3.0584,3.1867,0.0,3.1127,3.0909,3.132,3.2558,3.3786,3.4738,3.5298,3.7301,3.8641,3.9266,4.0091,4.0787,4.1409,4.1889,4.2252,4.2422,4.2405,4.2655,4.3106,4.2622,4.2542,4.2833,4.2833,4.2833,4.2675,4.0631,3.9836,3.9706,3.7982,3.6959,3.6389,3.5887,3.5202,3.4546,0.0,0.0,0.0,0.0,0.0,0.0,0.0,0.0,0.0,0.0,0.0,0.0,0.0,0.0,0.0,0.0,0.0,0.0,0.0,0.0,0.0,0.0,0.0,0.0,0.0,0.0,0.0,0.0,0.0,0.0,0.0,0.0,0.0,0.0,0.0,0.0,0.0,0.0,0.0,0.0,0.0,0.0,3.0411,0.0,0.0,0.0,0.0,0.0,0.0,0.0,0.0,0.0,0.0,0.0,0.0,0.0,0.0,0.0,0.0,0.0,0.0,0.0,0.0,0.0,0.0,0.0,0.0,0.0,0.0,0.0,0.0,0.0,0.0,0.0,0.0,0.0,0.0,0.0,3.3156,3.1941,3.3512,3.4554,3.4163,3.3822,3.4225,3.5721,3.697,3.7864,3.8308,3.9731,4.0729,4.1161,4.1422,4.173,4.2154,4.2651,4.3016,4.3189,4.3172,4.3439,4.3906,4.3389,4.3323,4.3628,4.3628,4.3628,4.3519,4.2649,4.2233,4.1989,4.0686,3.9585,3.8699,3.8357,3.7587,3.6785,0.0,0.0,0.0,0.0,0.0,0.0,0.0,0.0,0.0,0.0,0.0,0.0,0.0,0.0,0.0,0.0,0.0,0.0,0.0,0.0,0.0,0.0,0.0,0.0,0.0,0.0,0.0,0.0,0.0,0.0,0.0,0.0,0.0,0.0,0.0,0.0,0.0,0.0,0.0,0.0,0.0,0.0,3.2586,0.0,0.0,0.0,0.0,0.0,0.0,0.0,0.0,0.0,0.0,0.0,0.0,0.0,0.0,0.0,0.0,0.0,0.0,0.0,0.0,0.0,0.0,0.0,0.0,0.0,0.0,0.0,0.0,0.0,0.0,0.0,0.0,0.0,2.8539,3.2287,3.4276,3.229,3.3802,3.5459,3.6384,3.6419,3.7303,3.9542,4.0254,4.0562,4.0579,4.183,4.2551,4.2551,4.3247,4.3628,4.3628,4.3628,4.3628,4.3628,4.3628,4.3628,4.3628,4.3628,4.3628,4.3628,4.3628,4.3628,4.3628,4.3628,4.3628,4.336,4.0649,3.9361,3.8932,3.906,3.8753,3.8341,0.0,0.0,0.0,0.0,0.0,0.0,0.0,0.0,0.0,0.0,0.0,0.0,0.0,0.0,0.0,0.0,0.0,0.0,0.0,0.0,0.0,0.0,0.0,0.0,0.0,0.0,0.0,0.0,0.0,0.0,0.0,0.0,0.0,0.0,0.0,0.0,0.0,0.0,0.0,0.0,0.0,0.0,3.3419,0.0,0.0,0.0,0.0,0.0,0.0,0.0,0.0,0.0,0.0,0.0,0.0,0.0,0.0,0.0,0.0,0.0,0.0,0.0,0.0,0.0,0.0,0.0,0.0,0.0,0.0,0.0,0.0,0.0,0.0,0.0,0.0,3.2867,3.2381,3.3835,3.551,3.7036,3.8231,3.9193,3.9906,3.9972,4.0453,4.1637,4.1863,4.2195,4.2742,4.3098,4.333,4.333,4.3512,4.3628,4.3628,4.3628,4.3628,4.3628,4.3628,4.3628,4.3628,4.3628,4.3628,4.3628,4.3628,4.3628,4.3628,4.3628,4.3628,4.3519,4.2791,4.1862,4.0965,4.1026,4.0165,3.8947,0.0,0.0,0.0,0.0,0.0,0.0,0.0,0.0,0.0,0.0,0.0,0.0,0.0,0.0,0.0,0.0,0.0,0.0,0.0,0.0,0.0,0.0,0.0,0.0,0.0,0.0,0.0,0.0,0.0,0.0,0.0,0.0,0.0,0.0,0.0,0.0,0.0,0.0,0.0,0.0,0.0,0.0,3.4116,3.3651,3.2703,3.1516,3.1235,3.1173,3.1325,3.1247,0.0,0.0,0.0,0.0,0.0,0.0,0.0,0.0,0.0,0.0,0.0,0.0,0.0,0.0,0.0,0.0,0.0,0.0,0.0,0.0,0.0,0.0,0.0,0.0,3.2941,3.5579,3.6439,3.692,3.7831,3.9537,4.0382,4.1094,4.1806,4.1872,4.2187,4.2932,4.2982,4.3164,4.3611,4.3628,4.3628,4.3628,4.3628,4.3628,4.3628,4.3628,4.3628,4.3628,4.3628,4.3628,4.3628,4.3628,4.3628,4.3628,4.3628,4.3628,4.3628,4.3628,4.3628,0.0,0.0,0.0,0.0,0.0,4.096,4.0065,0.0,0.0,0.0,0.0,0.0,0.0,0.0,0.0,0.0,0.0,0.0,0.0,0.0,0.0,0.0,0.0,0.0,0.0,0.0,0.0,0.0,0.0,0.0,0.0,0.0,0.0,0.0,0.0,0.0,0.0,0.0,0.0,0.0,0.0,0.0,0.0,0.0,0.0,0.0,0.0,0.0,0.0,3.4815,3.4091,3.3262,3.2437,3.1763,3.1624,3.1721,3.1596,0.0,0.0,0.0,0.0,0.0,0.0,0.0,0.0,0.0,0.0,0.0,0.0,0.0,0.0,0.0,0.0,0.0,0.0,0.0,0.0,0.0,0.0,0.0,0.0,3.4561,3.7298,4.0117,4.0564,4.063,4.063,4.116,4.1823,4.2568,4.2634,4.2916,4.3578,4.3628,4.3628,4.3628,0.0,0.0,0.0,0.0,4.3777,4.3876,4.3876,4.3876,4.3876,4.3876,4.3876,4.3876,4.3876,4.3876,4.3876,4.3876,4.3876,4.3876,4.3876,4.3876,4.386,4.3694,4.3328,4.2837,4.1851,4.1456,4.139,0.0,0.0,0.0,0.0,0.0,0.0,0.0,0.0,0.0,0.0,0.0,0.0,0.0,0.0,0.0,0.0,0.0,0.0,0.0,0.0,0.0,0.0,0.0,0.0,0.0,0.0,0.0,0.0,0.0,0.0,0.0,0.0,0.0,0.0,0.0,0.0,0.0,0.0,0.0,0.0,0.0,0.0,3.5933,3.5409,3.5098,3.4901,3.4766,3.4803,3.4805,3.4109,3.3558,3.3124,3.2774,0.0,0.0,0.0,0.0,0.0,0.0,0.0,0.0,0.0,0.0,0.0,0.0,0.0,0.0,0.0,0.0,0.0,0.0,0.0,0.0,3.3146,3.6819,3.9918,4.1061,4.1723,4.2104,4.2104,4.222,4.2601,4.3346,4.3413,4.3479,4.3611,4.3628,4.3628,4.3628,4.3628,4.3893,4.4456,4.4473,4.4771,4.5367,4.5367,4.5367,4.5367,0.0,0.0,4.5367,4.5367,4.5367,4.5367,4.5367,4.5367,4.5367,4.5367,4.5367,4.5251,4.4075,4.3568,4.3372,4.2821,4.2571,4.2508,0.0,0.0,0.0,0.0,0.0,0.0,0.0,0.0,0.0,0.0,0.0,0.0,0.0,0.0,0.0,0.0,0.0,0.0,0.0,0.0,0.0,0.0,0.0,0.0,0.0,0.0,0.0,0.0,0.0,0.0,0.0,0.0,0.0,0.0,0.0,0.0,0.0,0.0,0.0,0.0,0.0,0.0,3.6557,3.6131,3.5783,3.5622,3.5622,3.5622,3.5616,3.5182,3.4914,3.4601,3.398,3.3043,3.2025,0.0,0.0,0.0,0.0,0.0,0.0,0.0,0.0,0.0,0.0,0.0,0.0,0.0,0.0,2.9111,0.0,0.0,3.5694,3.6357,3.9235,4.1707,4.2419,4.2833,4.3065,4.3065,4.3065,4.3214,4.3595,4.3628,4.3628,4.3628,4.3959,4.4158,4.4158,4.4506,4.487,4.5235,4.5235,4.5417,4.5798,4.5798,4.5798,4.5798,4.5798,4.5798,4.5798,4.5798,4.5798,4.5798,4.5798,4.5798,4.5765,4.5384,4.5235,4.5135,4.4042,4.3843,4.4098,4.3591,4.2972,4.2285,0.0,0.0,0.0,0.0,0.0,0.0,0.0,0.0,0.0,0.0,0.0,0.0,0.0,0.0,0.0,0.0,0.0,0.0,0.0,0.0,0.0,0.0,0.0,0.0,0.0,0.0,0.0,0.0,0.0,0.0,0.0,0.0,0.0,0.0,0.0,0.0,0.0,0.0,0.0,0.0,0.0,0.0,3.686,3.6516,3.6071,3.5622,3.5622,3.5391,3.5188,3.5476,3.548,3.5237,3.4854,3.4607,3.3997,3.1423,3.1427,0.0,0.0,0.0,0.0,0.0,0.0,0.0,0.0,0.0,2.8613,3.1014,3.1984,3.2763,3.3961,3.6522,3.8659,3.9371,4.1309,4.2949,4.3545,4.3628,4.3628,4.3628,4.3628,4.3678,4.381,4.3827,4.3893,4.4042,4.4572,4.4903,4.4903,4.5467,4.5864,4.5997,4.6013,4.6079,4.6228,4.6228,4.6228,4.6228,4.6228,4.6228,4.6228,4.6228,4.6228,4.6212,4.6079,4.6013,4.5947,4.5218,4.4903,4.4837,4.4274,4.4307,4.4594,4.406,4.3118,4.2126,0.0,0.0,0.0,0.0,0.0,0.0,0.0,0.0,0.0,0.0,0.0,0.0,0.0,0.0,0.0,0.0,0.0,0.0,0.0,0.0,0.0,0.0,0.0,0.0,0.0,0.0,0.0,0.0,0.0,0.0,0.0,0.0,0.0,0.0,0.0,0.0,0.0,0.0,0.0,0.0,0.0,0.0,3.69,3.686,3.6308,3.5622,3.5622,3.4732,3.3777,3.5138,3.4699,3.3794,3.507,3.503,3.4141,3.2235,0.0,3.0278,2.7689,2.811,2.9228,2.8929,2.987,3.0761,0.0,0.0,3.144,3.3047,3.3472,3.395,3.53,3.7564,3.9388,4.0023,4.2014,4.3529,4.3611,4.3628,4.3628,4.3628,4.3628,4.3876,4.4506,4.4572,4.4837,4.55,4.5632,4.5665,4.5665,4.5748,4.6096,4.6758,4.6775,4.709,4.7752,4.7752,4.7752,4.7752,4.7752,4.7752,4.7752,4.7752,4.7752,4.7719,4.6961,4.6664,4.6709,4.5871,4.5557,4.5665,4.5582,4.5202,4.4605,4.3916,4.3558,4.3372,0.0,0.0,0.0,0.0,0.0,0.0,0.0,0.0,0.0,0.0,0.0,0.0,0.0,0.0,0.0,0.0,0.0,0.0,0.0,0.0,0.0,0.0,0.0,0.0,0.0,0.0,0.0,0.0,0.0,0.0,0.0,0.0,0.0,0.0,0.0,0.0,0.0,0.0,0.0,0.0,0.0,0.0,3.69,3.69,3.6333,3.5526,3.5059,3.4476,0.0,0.0,3.4459,3.4122,3.5138,3.4695,3.3515,3.1885,3.109,0.0,3.0385,3.0004,0.0,0.0,3.2237,3.2859,3.3149,3.3357,3.4041,3.596,3.7018,3.7911,3.8851,4.0541,4.1905,0.0,4.2973,4.3628,4.3628,4.3628,4.3777,4.4191,4.4241,4.4357,4.4655,4.5086,4.5467,4.5765,4.6195,4.6444,4.6444,4.6841,4.7222,4.7537,4.7537,4.7686,4.8001,4.8001,4.8001,4.8001,4.8001,4.8001,4.8001,4.8001,4.7704,4.7209,4.6272,4.5944,4.5878,4.5091,4.4858,4.4871,4.4504,4.4219,4.3955,4.4147,4.3718,4.3035,0.0,0.0,0.0,0.0,0.0,0.0,0.0,0.0,0.0,0.0,0.0,0.0,0.0,0.0,0.0,0.0,0.0,0.0,0.0,0.0,0.0,0.0,0.0,0.0,0.0,0.0,0.0,0.0,0.0,0.0,0.0,0.0,0.0,0.0,0.0,0.0,0.0,0.0,0.0,0.0,0.0,0.0,3.69,3.69,3.6074,3.4901,3.429,3.37,0.0,0.0,3.2959,3.2882,3.3577,3.3386,3.2597,3.0896,3.0005,2.9809,3.1106,0.0,0.0,3.3292,3.4283,3.4977,3.5644,3.581,3.639,3.8394,3.9653,4.0663,4.1558,4.2601,4.338,4.3595,4.3628,4.3628,4.3628,4.3794,4.4108,4.4622,4.5052,4.5301,4.5301,4.5781,4.6179,4.6394,4.6891,4.7206,4.7206,4.7719,4.8001,4.8001,4.8001,4.8001,4.8001,4.8001,4.8001,4.8001,4.8001,4.7901,4.7637,4.7357,4.6913,4.6256,4.5324,4.4933,4.4931,4.4148,4.3837,4.385,4.3448,4.3312,4.3377,4.407,4.3739,4.2912,0.0,0.0,0.0,0.0,0.0,0.0,0.0,0.0,0.0,0.0,0.0,0.0,0.0,0.0,0.0,0.0,0.0,0.0,0.0,0.0,0.0,0.0,0.0,0.0,0.0,0.0,0.0,0.0,0.0,0.0,0.0,0.0,0.0,0.0,0.0,0.0,0.0,0.0,0.0,0.0,0.0,0.0,3.69,3.69,3.5434,3.3363,3.333,0.0,0.0,0.0,2.9376,2.8848,2.9683,3.0814,0.0,2.921,2.7412,0.0,0.0,0.0,3.2091,3.3454,3.5571,3.7403,3.7982,3.8112,3.8526,4.0001,4.0348,4.0812,4.222,4.2518,4.2783,4.3512,4.3628,4.3628,4.3628,4.4224,4.4655,4.4688,4.5947,4.6825,0.0,4.6841,4.7156,4.7885,4.7951,4.7968,4.7968,4.7984,4.8001,4.8001,4.8001,4.8001,4.8001,4.8001,4.8001,4.8001,4.8001,4.7571,4.6683,4.583,4.5341,4.5291,4.4397,4.4134,4.4178,4.3287,4.3039,4.3129,4.3113,4.3113,4.3113,4.3328,4.3525,4.3568,0.0,0.0,0.0,0.0,0.0,0.0,0.0,0.0,0.0,0.0,0.0,0.0,0.0,0.0,0.0,0.0,0.0,0.0,0.0,0.0,0.0,0.0,0.0,0.0,0.0,0.0,0.0,0.0,0.0,0.0,0.0,0.0,0.0,0.0,0.0,0.0,0.0,0.0,0.0,0.0,0.0,0.0,3.7159,3.5799,3.464,3.3304,0.0,0.0,0.0,0.0,2.8732,2.8693,2.9862,0.0,0.0,2.8014,2.7767,0.0,0.0,0.0,3.4159,3.642,3.7469,3.8116,3.8811,3.8924,3.9056,3.9553,3.9202,3.895,3.9516,4.0393,4.1064,4.1425,4.2684,4.3628,4.3628,4.4241,4.487,4.5367,4.6295,0.0,0.0,0.0,0.0,4.7984,4.8001,4.8001,4.8001,4.8001,4.8001,4.8001,4.8001,4.8001,4.8001,4.8001,4.7935,4.7787,4.7737,4.7489,4.7226,4.6274,4.562,4.5146,4.422,4.3571,4.31,4.2794,4.2759,4.2805,4.2945,4.2945,4.3007,4.3113,4.3295,4.3509,0.0,0.0,0.0,0.0,0.0,0.0,0.0,0.0,0.0,0.0,0.0,0.0,0.0,0.0,0.0,0.0,0.0,0.0,0.0,0.0,0.0,0.0,0.0,0.0,0.0,0.0,0.0,0.0,0.0,0.0,0.0,0.0,0.0,0.0,0.0,0.0,0.0,0.0,0.0,0.0,0.0,0.0,3.5669,3.4341,3.3263,0.0,0.0,0.0,0.0,0.0,0.0,0.0,0.0,2.829,2.8106,2.7888,2.8567,3.0009,3.2632,3.418,3.5613,3.7801,3.8498,3.8709,3.9172,3.9272,3.9272,3.9272,3.8424,3.7692,3.7989,3.8368,3.8694,3.9011,4.0216,4.1403,4.2237,4.3178,4.4313,4.5632,4.6676,4.7487,0.0,0.0,0.0,4.8001,4.8001,4.8001,4.8001,4.8001,4.8001,4.8001,4.8001,4.8001,4.8001,4.7935,4.7787,4.7638,4.7191,4.701,4.6977,4.5782,4.5033,4.4578,4.3702,4.3055,4.2634,4.2634,4.2634,4.2634,4.2759,4.2759,4.2821,4.2945,4.3129,4.3267,0.0,0.0,0.0,0.0,0.0,0.0,0.0,0.0,0.0,0.0,0.0,0.0,0.0,0.0,0.0,0.0,0.0,0.0,0.0,0.0,0.0,0.0,0.0,0.0,0.0,0.0,0.0,0.0,0.0,0.0,0.0,0.0,0.0,0.0,0.0,0.0,0.0,0.0,0.0,0.0,0.0,0.0,3.2802,3.2648,0.0,0.0,0.0,0.0,0.0,0.0,0.0,0.0,0.0,0.0,2.7586,2.8895,2.9929,3.1215,3.3745,3.5284,3.6522,3.7758,3.8652,3.9272,3.9272,3.9272,3.9255,3.9172,3.7876,3.6931,0.0,0.0,3.594,3.6542,3.6783,3.774,4.0028,4.156,4.3224,0.0,0.0,0.0,0.0,0.0,0.0,4.8001,0.0,4.8001,4.8001,4.8001,4.7984,4.7951,4.7984,4.7984,4.7951,4.777,4.7588,4.747,4.655,4.6157,4.6108,4.4513,4.38,4.3735,4.3006,4.2666,4.2634,4.2634,4.2634,4.2634,4.2634,4.2634,4.2634,4.2821,4.2932,4.301,0.0,0.0,0.0,0.0,0.0,0.0,0.0,0.0,0.0,0.0,0.0,0.0,0.0,0.0,0.0,0.0,0.0,0.0,0.0,0.0,0.0,0.0,0.0,0.0,0.0,0.0,0.0,0.0,0.0,0.0,0.0,0.0,0.0,0.0,0.0,0.0,0.0,0.0,0.0,0.0,0.0,0.0,3.2934,0.0,0.0,0.0,0.0,0.0,0.0,0.0,0.0,0.0,0.0,0.0,3.0608,3.1413,3.2902,3.4562,3.5758,3.6983,3.8154,3.8874,3.9053,3.9094,3.9272,3.9272,3.8957,3.7744,3.6256,3.489,0.0,0.0,0.0,3.6781,3.9545,0.0,4.2659,4.3982,0.0,4.5732,0.0,4.8001,4.8001,4.8001,0.0,0.0,4.8001,4.8001,4.8001,4.8001,4.7687,4.7028,4.7654,4.7687,4.7028,4.7408,4.747,4.7251,4.6919,4.6686,4.6653,4.5678,4.4998,4.448,4.3751,4.3136,4.2634,4.2634,4.2634,4.2634,4.2634,4.2634,4.2634,4.2634,4.3116,4.3714,0.0,0.0,0.0,0.0,0.0,0.0,0.0,0.0,0.0,0.0,0.0,0.0,0.0,0.0,0.0,0.0,0.0,0.0,0.0,0.0,0.0,0.0,0.0,0.0,0.0,0.0,0.0,0.0,0.0,0.0,0.0,0.0,0.0,0.0,0.0,0.0,0.0,0.0,0.0,0.0,0.0,0.0,0.0,0.0,0.0,0.0,0.0,0.0,0.0,0.0,0.0,3.0448,3.1353,3.177,3.2105,3.3264,0.0,3.6315,3.7278,3.8145,3.8821,3.9023,3.8969,3.8804,3.8302,3.8154,3.7741,3.6206,3.466,0.0,0.0,0.0,0.0,0.0,0.0,0.0,4.1774,4.3267,4.4599,0.0,4.7106,0.0,4.8001,4.8001,4.8001,0.0,4.7654,4.7407,4.7407,4.7028,4.6584,4.6124,4.6962,4.7357,4.7128,4.7407,4.7403,4.7183,4.703,4.6876,4.686,4.5824,4.516,4.4739,0.0,4.3006,4.2634,4.2634,4.2634,4.2634,4.2634,4.2828,4.3103,4.3103,4.3637,4.4318,0.0,0.0,0.0,0.0,0.0,0.0,0.0,0.0,0.0,0.0,0.0,0.0,0.0,0.0,0.0,0.0,0.0,0.0,0.0,0.0,0.0,0.0,0.0,0.0,0.0,0.0,0.0,0.0,0.0,0.0,0.0,0.0,0.0,0.0,0.0,0.0,0.0,0.0,0.0,0.0,0.0,0.0,0.0,0.0,0.0,0.0,0.0,0.0,0.0,0.0,3.2751,3.1372,3.2055,3.263,3.3261,3.4797,3.6042,3.7196,3.829,3.8711,3.8876,3.8672,3.8711,3.8428,3.7055,3.6727,3.6217,3.4628,0.0,3.2085,3.1767,0.0,3.2369,3.3079,0.0,3.6906,3.9804,4.1559,4.329,4.5355,4.6957,4.7819,4.7654,4.7737,4.7753,4.7654,4.6847,4.6469,4.6666,4.583,4.5341,4.5503,4.6272,4.7012,4.7704,4.7588,4.7403,4.7183,4.703,4.6961,4.6828,4.5435,4.4787,4.4706,4.3265,4.2634,4.2634,4.2634,4.2634,4.2587,4.2731,4.3152,4.3719,4.3816,4.4318,4.4917,0.0,0.0,0.0,0.0,0.0,0.0,0.0,0.0,0.0,0.0,2.9739,2.9718,0.0,0.0,0.0,0.0,0.0,0.0,0.0,0.0,0.0,0.0,0.0,0.0,0.0,0.0,0.0,0.0,0.0,0.0,0.0,0.0,0.0,0.0,0.0,0.0,0.0,0.0,0.0,0.0,0.0,0.0,0.0,0.0,0.0,0.0,0.0,0.0,0.0,0.0,3.3758,3.4883,3.5706,3.6233,3.6537,3.6638,3.7403,3.8307,3.8383,3.8448,3.856,3.8711,3.8711,3.8335,3.7143,3.6779,0.0,0.0,0.0,3.1792,3.0486,3.1688,0.0,3.4755,0.0,0.0,0.0,0.0,4.4167,0.0,0.0,0.0,0.0,0.0,0.0,0.0,0.0,4.5144,4.6617,4.583,4.5651,4.6452,4.6617,4.7012,4.7704,4.7654,4.7521,4.7183,4.7183,4.703,4.6828,4.5435,4.4787,4.4706,4.3265,0.0,4.2634,4.2634,4.2634,4.2682,4.3298,4.3605,4.3783,4.4383,4.5046,4.5629,0.0,0.0,0.0,0.0,0.0,0.0,0.0,2.9382,2.9494,2.9026,2.8577,2.8577,2.9318,2.9388,2.9407,0.0,0.0,0.0,0.0,0.0,0.0,0.0,0.0,0.0,0.0,0.0,0.0,0.0,0.0,0.0,0.0,0.0,0.0,0.0,0.0,0.0,0.0,0.0,0.0,0.0,0.0,0.0,0.0,0.0,0.0,0.0,0.0,0.0,0.0,0.0,3.3193,3.537,3.6334,3.6977,3.7303,3.7086,3.7923,3.886,3.856,3.8448,3.8448,3.8544,3.8616,3.8046,3.5934,0.0,0.0,0.0,0.0,3.0758,3.0048,0.0,0.0,0.0,0.0,0.0,0.0,0.0,0.0,0.0,0.0,0.0,0.0,0.0,0.0,0.0,0.0,4.4348,4.5242,4.4884,4.5014,4.5929,4.6469,4.7078,4.7853,4.777,4.7638,4.7454,4.7319,4.6987,4.6445,4.5323,4.4593,4.4172,4.3087,0.0,4.2634,4.2634,4.286,4.3233,4.3573,4.4156,4.4852,4.5192,4.5759,4.6358,0.0,0.0,0.0,0.0,0.0,0.0,0.0,2.8407,2.8351,2.8163,2.7528,2.7624,2.9022,2.9147,2.9219,0.0,0.0,0.0,0.0,0.0,0.0,0.0,0.0,0.0,0.0,0.0,0.0,0.0,0.0,0.0,0.0,0.0,0.0,0.0,0.0,0.0,0.0,0.0,0.0,0.0,0.0,0.0,0.0,0.0,0.0,0.0,0.0,0.0,0.0,0.0,3.1703,3.365,3.5009,3.6198,3.6999,3.6771,3.7628,3.8718,3.8574,3.8448,3.8408,3.8464,3.8504,3.7757,3.4816,3.4201,0.0,0.0,0.0,2.9918,2.9918,0.0,0.0,0.0,0.0,0.0,0.0,0.0,0.0,0.0,0.0,0.0,0.0,0.0,0.0,0.0,0.0,0.0,4.3974,4.4201,4.4673,4.5569,4.6518,4.7308,4.8001,4.7853,4.777,4.7704,4.7437,4.6859,4.6075,4.5244,4.4464,4.367,4.2941,0.0,0.0,4.2796,4.3201,4.3735,4.4043,4.4836,4.5824,4.5986,4.639,4.6876,0.0,0.0,0.0,0.0,0.0,0.0,0.0,2.8444,2.8127,2.7411,2.719,2.7437,2.8297,2.8346,2.86,0.0,0.0,0.0,0.0,0.0,0.0,0.0,0.0,0.0,0.0,0.0,0.0,0.0,0.0,0.0,0.0,0.0,0.0,0.0,0.0,0.0,0.0,0.0,0.0,0.0,0.0,0.0,0.0,0.0,0.0,0.0,0.0,0.0,0.0,0.0,0.0,2.9365,3.1618,3.4167,3.6205,3.5712,0.0,0.0,3.8202,3.8408,3.8464,3.856,3.8504,3.7702,3.4901,0.0,0.0,0.0,2.9918,2.9918,2.9918,0.0,0.0,0.0,0.0,3.4818,0.0,0.0,0.0,0.0,0.0,0.0,0.0,0.0,0.0,0.0,0.0,0.0,4.3958,4.4722,4.5601,4.6551,4.739,4.7934,4.8001,4.8001,4.7853,4.7704,4.7638,4.7127,4.6075,4.5391,4.461,4.367,4.2941,0.0,0.0,4.3346,4.3654,4.3832,4.5111,4.5694,4.5888,4.6536,4.6828,4.6876,0.0,0.0,0.0,0.0,0.0,0.0,2.7913,2.807,2.7885,2.6655,2.642,2.6687,2.7493,2.755,2.8034,2.9299,0.0,0.0,0.0,0.0,0.0,0.0,0.0,0.0,0.0,0.0,0.0,0.0,0.0,0.0,0.0,0.0,0.0,0.0,0.0,0.0,0.0,0.0,0.0,0.0,0.0,0.0,0.0,0.0,0.0,0.0,0.0,0.0,0.0,0.0,0.0,0.0,2.9687,3.1306,0.0,0.0,3.5976,3.723,3.817,3.8391,3.8391,3.8464,3.8179,3.7189,3.4753,0.0,0.0,3.0405,2.9918,2.9918,2.9918,2.9918,3.0097,0.0,0.0,0.0,0.0,0.0,0.0,0.0,0.0,0.0,0.0,0.0,0.0,0.0,0.0,0.0,4.4689,4.5318,4.5956,4.665,4.7571,4.8001,4.8001,4.8001,4.7919,4.7704,4.7588,4.6864,4.5473,4.513,4.4221,4.3039,4.2763,0.0,0.0,4.3589,4.4204,4.503,4.5581,4.6067,4.6488,4.6779,4.6876,4.6876,0.0,0.0,0.0,0.0,0.0,2.9211,2.7813,2.777,2.7531,2.6456,2.6083,2.6235,2.7005,2.7324,2.7923,2.9005,2.9341,0.0,0.0,0.0,0.0,0.0,0.0,0.0,0.0,0.0,0.0,0.0,0.0,0.0,0.0,0.0,0.0,0.0,0.0,0.0,0.0,0.0,0.0,0.0,0.0,0.0,0.0,0.0,0.0,0.0,0.0,0.0,0.0,0.0,0.0,0.0,0.0,0.0,0.0,0.0,3.4916,3.6356,3.747,3.8068,3.8391,3.8391,3.7751,3.6588,0.0,0.0,3.2348,3.0324,2.9918,2.9918,2.9918,2.9918,2.9918,2.9918,3.1183,3.2399,0.0,0.0,0.0,0.0,0.0,0.0,0.0,0.0,0.0,0.0,0.0,0.0,4.4851,4.5415,4.6102,4.7028,4.7671,4.8001,4.7919,4.7919,4.7787,4.7654,4.7307,4.6454,4.5066,4.4708,4.3864,4.2634,4.2634,0.0,0.0,4.3945,4.4739,4.5824,4.6034,4.6439,4.6876,4.6876,4.6876,4.6876,0.0,0.0,0.0,0.0,0.0,0.0,2.8593,2.7653,2.7027,2.7065,2.6442,2.6268,2.7024,2.7884,2.839,2.8409,2.9083,0.0,0.0,0.0,0.0,0.0,0.0,0.0,0.0,0.0,0.0,0.0,0.0,0.0,0.0,0.0,0.0,0.0,0.0,0.0,0.0,0.0,0.0,0.0,0.0,0.0,0.0,0.0,0.0,0.0,0.0,0.0,0.0,0.0,0.0,0.0,0.0,0.0,0.0,0.0,3.2658,3.4145,3.5932,3.7416,3.8391,3.8391,3.7355,3.593,0.0,0.0,3.1607,3.021,2.9918,2.9918,2.9918,2.9918,2.9918,2.9918,2.9935,3.0725,3.2979,0.0,0.0,0.0,0.0,0.0,0.0,0.0,0.0,0.0,0.0,0.0,4.3958,4.4945,4.6253,4.7951,4.8001,4.7919,4.7704,4.7704,4.7654,4.747,4.6749,4.5963,4.5049,4.4333,4.3457,4.2634,0.0,0.0,0.0,4.448,4.5192,4.5872,4.6585,4.6876,4.6876,4.6876,4.6876,4.6876,0.0,0.0,0.0,0.0,0.0,0.0,0.0,2.8577,2.8258,2.725,2.738,2.7473,2.7208,2.7412,2.751,2.7382,2.8727,0.0,0.0,0.0,0.0,0.0,0.0,0.0,0.0,0.0,0.0,2.8515,2.9109,0.0,0.0,0.0,0.0,0.0,0.0,0.0,0.0,0.0,0.0,0.0,0.0,0.0,0.0,0.0,0.0,0.0,0.0,0.0,0.0,0.0,0.0,0.0,0.0,0.0,0.0,0.0,0.0,0.0,3.3665,3.4509,3.4964,3.5347,3.4781,3.3858,3.2886,0.0,3.1008,3.0113,2.9918,2.9918,2.9918,2.9918,2.9918,2.9918,2.9918,3.0189,0.0,0.0,0.0,0.0,0.0,0.0,0.0,0.0,0.0,0.0,0.0,0.0,4.4319,4.4915,4.575,4.6898,4.7424,4.7604,4.7521,4.7521,4.747,4.7319,4.6517,4.5733,4.4837,4.4107,4.3378,0.0,0.0,0.0,0.0,4.5192,4.5905,4.6552,4.6795,4.6876,4.6876,4.6876,4.6876,4.6876,0.0,0.0,0.0,0.0,0.0,0.0,0.0,2.8764,2.852,2.7231,2.7512,2.7568,2.6795,2.6983,2.6985,2.6597,2.7848,0.0,0.0,0.0,0.0,0.0,0.0,0.0,0.0,2.9283,2.8873,2.7698,2.8554,2.8482,2.7533,2.7724,0.0,0.0,0.0,0.0,0.0,0.0,0.0,0.0,0.0,0.0,2.7666,0.0,0.0,0.0,0.0,0.0,0.0,0.0,0.0,0.0,0.0,0.0,0.0,0.0,2.7886,0.0,0.0,3.2622,3.3307,3.3648,3.3243,0.0,0.0,0.0,0.0,2.9999,2.9918,2.9918,2.9918,2.9918,2.9918,2.9918,2.9918,3.0238,0.0,0.0,0.0,0.0,0.0,0.0,0.0,0.0,0.0,0.0,0.0,0.0,4.3722,4.4251,4.4789,4.5359,4.6748,4.747,4.7403,4.7403,4.712,4.6675,4.5976,4.5195,4.4366,4.3638,4.3055,0.0,0.0,0.0,0.0,4.5516,4.6228,4.6876,4.6876,4.6876,4.6876,4.6876,4.6876,4.6876,0.0,0.0,0.0,0.0,0.0,0.0,0.0,2.8258,2.7922,2.7118,2.7062,2.6818,2.6087,2.6594,2.6723,2.6024,0.0,0.0,0.0,0.0,0.0,0.0,0.0,0.0,0.0,2.8951,2.854,2.6897,2.7774,2.8031,2.7675,2.6724,2.6964,2.8128,0.0,0.0,0.0,0.0,0.0,0.0,0.0,0.0,0.0,0.0,0.0,0.0,0.0,0.0,0.0,0.0,0.0,0.0,0.0,0.0,0.0,0.0,0.0,0.0,0.0,0.0,0.0,0.0,0.0,0.0,0.0,0.0,0.0,0.0,0.0,2.9918,2.9918,2.9918,2.9918,2.9918,2.9918,0.0,0.0,0.0,0.0,0.0,0.0,0.0,0.0,0.0,0.0,0.0,0.0,0.0,4.2634,4.3314,4.3719,4.3719,4.6044,4.7255,4.7036,4.7036,4.661,4.5726,4.503,4.4366,4.3686,4.2958,4.2634,0.0,0.0,0.0,0.0,4.5581,4.6277,4.6876,4.6876,4.6876,4.6876,4.6876,4.6876,4.6876,0.0,0.0,0.0,0.0,0.0,0.0,0.0,0.0,0.0,0.0,2.7082,2.7026,2.6836,2.6476,2.6141,0.0,0.0,0.0,0.0,0.0,0.0,0.0,0.0,0.0,0.0,2.7586,2.7138,2.6093,2.6748,2.6626,2.5771,2.6014,2.6195,2.625,2.5903,0.0,0.0,0.0,0.0,0.0,0.0,0.0,0.0,0.0,0.0,0.0,2.6841,2.6858,0.0,0.0,0.0,0.0,0.0,0.0,0.0,0.0,2.622,2.6316,2.685,0.0,2.8616,2.9023,0.0,0.0,0.0,0.0,0.0,0.0,0.0,2.9918,2.9918,2.9918,2.9918,2.9918,2.9918,3.0648,0.0,0.0,0.0,0.0,0.0,0.0,0.0,0.0,0.0,0.0,0.0,4.268,4.299,4.3441,4.3719,4.3719,4.4805,4.5422,4.5356,4.5356,4.5259,4.503,4.4302,4.3881,4.3686,4.2958,4.2634,0.0,0.0,0.0,4.4885,4.6115,4.673,4.6876,4.6876,4.6876,4.6876,4.6876,4.6876,4.6876,0.0,0.0,0.0,0.0,0.0,0.0,0.0,0.0,0.0,0.0,0.0,2.6355,2.5961,2.5937,0.0,0.0,0.0,0.0,0.0,0.0,0.0,0.0,0.0,0.0,2.6655,2.6892,2.6447,2.5302,2.6019,2.6152,2.5731,2.5357,2.5564,2.6189,2.5572,2.4873,2.4177,0.0,0.0,0.0,2.6135,0.0,0.0,0.0,0.0,0.0,2.6504,2.6607,0.0,2.6068,2.5648,2.5397,0.0,0.0,0.0,0.0,2.622,2.6168,2.6026,2.6554,2.7175,2.7359,2.7956,0.0,0.0,0.0,0.0,0.0,0.0,0.0,2.9918,0.0,0.0,2.9918,3.0745,0.0,0.0,0.0,0.0,0.0,0.0,0.0,0.0,0.0,0.0,0.0,0.0,4.2759,4.2867,4.3053,4.3217,4.3217,4.3589,4.4123,4.4787,4.4787,4.4625,4.4285,4.3897,4.3541,4.3201,4.2812,4.2634,0.0,0.0,0.0,4.4901,4.6309,4.6876,4.6876,4.6876,4.6876,4.6876,4.6876,4.6876,4.6876,0.0,0.0,0.0,0.0,0.0,0.0,0.0,0.0,0.0,0.0,0.0,0.0,0.0,0.0,0.0,0.0,0.0,0.0,0.0,0.0,0.0,0.0,0.0,2.5702,2.574,2.626,2.5925,2.4676,2.5386,2.5873,2.6112,2.4679,2.4936,2.6586,2.5158,2.4212,2.3731,2.4284,0.0,0.0,2.5796,0.0,0.0,0.0,0.0,0.0,0.0,0.0,0.0,2.6293,2.5688,2.5192,2.5936,0.0,0.0,0.0,0.0,0.0,2.6026,2.6599,2.7175,2.6814,2.7267,2.7963,0.0,0.0,0.0,0.0,0.0,0.0,0.0,0.0,0.0,0.0,0.0,0.0,0.0,0.0,0.0,0.0,0.0,0.0,0.0,0.0,0.0,0.0,0.0,4.2837,4.2634,4.2634,4.2634,4.2634,4.2634,4.3217,4.4447,4.4464,4.4156,4.3541,4.3541,4.3217,4.2634,4.2634,4.2634,4.2715,0.0,0.0,4.4901,4.6309,4.6876,4.6876,4.6876,4.6876,4.6876,4.6876,4.6876,4.6876,0.0,0.0,0.0,0.0,0.0,0.0,0.0,0.0,0.0,0.0,0.0,0.0,0.0,0.0,0.0,0.0,0.0,0.0,0.0,0.0,0.0,0.0,2.5531,2.5337,2.4579,2.4759,2.4754,2.4528,2.4485,2.4469,2.4464,2.3876,2.4121,2.5015,2.4105,2.3998,2.448,2.3927,2.4516,2.575,2.5205,0.0,0.0,0.0,0.0,0.0,0.0,0.0,0.0,2.6168,2.562,2.5055,2.5796,0.0,0.0,0.0,0.0,0.0,2.5917,2.6961,2.7707,2.6377,2.6526,0.0,0.0,0.0,0.0,0.0,0.0,0.0,0.0,0.0,0.0,0.0,0.0,0.0,0.0,0.0,0.0,0.0,0.0,0.0,0.0,0.0,0.0,0.0,0.0,4.3007,4.2837,4.2837,4.2775,4.2634,4.2634,4.2731,4.2958,4.2958,4.2909,4.2796,4.2796,4.2731,4.2634,4.2634,4.2634,4.2715,0.0,4.4787,4.4901,4.6309,4.6876,4.6876,4.6876,4.6876,4.6876,4.6876,4.6876,4.6876,0.0,0.0,0.0,0.0,0.0,0.0,0.0,0.0,0.0,0.0,0.0,0.0,0.0,0.0,0.0,0.0,0.0,0.0,0.0,0.0,0.0,2.4639,2.5241,2.5226,2.4479,2.4321,2.4338,2.4564,2.4321,2.4394,2.474,2.4334,2.4123,2.4052,2.3654,2.3708,2.4034,2.3654,2.4177,2.518,0.0,0.0,0.0,0.0,0.0,0.0,0.0,0.0,0.0,0.0,2.5812,2.553,2.5911,0.0,0.0,0.0,0.0,0.0,2.5917,2.6356,2.688,2.7027,2.819,0.0,0.0,0.0,0.0,0.0,0.0,0.0,0.0,0.0,0.0,0.0,0.0,0.0,0.0,0.0,0.0,0.0,0.0,0.0,0.0,0.0,0.0,0.0,0.0,0.0,4.2899,4.2775,4.2696,4.2634,4.2634,4.2634,4.2634,4.2634,4.2634,4.2634,4.2634,4.2634,4.2634,4.2634,4.2634,4.2715,0.0,4.4787,4.4901,4.6309,4.6876,4.6876,4.6876,4.6876,4.6876,4.6876,4.6876,4.6876,0.0,0.0,0.0,0.0,0.0,0.0,0.0,0.0,0.0,0.0,0.0,0.0,0.0,0.0,0.0,0.0,0.0,0.0,0.0,0.0,2.504,2.4607,2.5001,2.4986,2.4476,2.4154,2.4153,2.4462,2.4248,2.4409,2.4915,2.4599,2.4129,2.3517,2.3517,2.3517,2.3517,2.3517,2.3981,2.4741,0.0,0.0,0.0,0.0,0.0,0.0,0.0,0.0,0.0,0.0,0.0,0.0,0.0,0.0,0.0,2.5954,2.5917,2.5844,2.5844,2.6036,2.6521,0.0,0.0,0.0,0.0,0.0,0.0,0.0,0.0,0.0,0.0,0.0,0.0,0.0,0.0,0.0,0.0,0.0,0.0,0.0,0.0,0.0,0.0,0.0,0.0,0.0,0.0,0.0,4.2899,4.2759,4.2634,4.2634,4.2634,4.2634,4.2634,4.2634,4.2634,4.2634,4.2634,4.2634,4.2634,4.2634,4.2634,4.2715,4.4156,4.4787,4.4901,4.6309,4.6876,4.6876,4.6876,4.6876,4.6876,4.6876,4.6876,4.6876,0.0,0.0,0.0,0.0,0.0,0.0,0.0,0.0,0.0,0.0,0.0,0.0,0.0,0.0,0.0,0.0,0.0,0.0,0.0,0.0,2.4535,2.4856,2.4564,2.4284,2.4041,2.3999,2.4016,2.4036,2.4016,2.391,2.3723,2.3697,2.3656,2.3585,2.3539,2.3539,2.3585,2.3585,2.405,2.479,2.4861,0.0,0.0,0.0,0.0,0.0,0.0,0.0,0.0,0.0,0.0,0.0,0.0,0.0,2.5897,2.5897,2.5828,2.5701,2.5701,2.6733,2.7776,0.0,0.0,0.0,0.0,0.0,0.0,0.0,0.0,0.0,0.0,0.0,0.0,0.0,0.0,0.0,0.0,0.0,0.0,0.0,0.0,0.0,0.0,0.0,0.0,0.0,0.0,0.0,4.2899,4.2899,4.2759,4.2634,4.2634,4.2634,4.2634,4.2634,4.2634,4.2634,4.2634,4.2634,4.2634,4.2634,4.2634,4.2715,4.4156,4.4787,4.4901,4.6309,4.6876,4.6876,4.6876,4.6876,4.6876,4.6876,4.6876,4.6876,0.0,0.0,0.0,0.0,0.0,0.0,0.0,0.0,0.0,0.0,0.0,0.0,0.0,0.0,0.0,0.0,0.0,0.0,0.0,0.0,2.4426,2.4827,2.4493,2.4247,2.4192,2.3978,2.3933,2.3996,2.3976,2.381,2.3539,2.3539,2.3539,2.3539,2.3517,2.3517,2.3539,2.3539,2.3608,2.3777,2.4049,2.4574,0.0,0.0,0.0,0.0,0.0,0.0,0.0,0.0,2.5696,2.5701,2.5701,2.5738,2.5791,2.5791,2.5733,2.5637,2.5637,2.6737,2.7907,0.0,0.0,0.0,0.0,0.0,0.0,0.0,0.0,0.0,0.0,0.0,0.0,0.0,0.0,0.0,0.0,0.0,0.0,0.0,0.0,0.0,0.0,0.0,0.0,0.0,0.0,0.0,4.2899,4.2775,4.2696,4.2634,4.2634,4.2634,4.2634,4.2634,4.2634,4.2634,4.2634,4.2634,4.2634,4.2634,4.2634,4.2715,4.4156,4.4787,4.4901,4.6309,4.6876,4.6876,4.6876,4.6876,4.6876,4.6876,4.6876,4.6876,0.0,0.0,0.0,0.0,0.0,0.0,0.0,0.0,0.0,0.0,0.0,0.0,0.0,0.0,0.0,0.0,0.0,0.0,0.0,2.4355,2.4284,2.4639,2.4426,2.4266,2.4211,2.3955,2.3807,2.3873,2.3831,2.3703,2.3539,2.3539,2.3539,2.3539,2.3517,2.3517,2.3539,2.3539,2.3424,2.3287,2.3588,2.4116,0.0,0.0,0.0,0.0,0.0,0.0,0.0,0.0,2.5637,2.568,2.568,2.568,2.568,2.5701,2.5659,2.5616,2.5637,2.6389,2.7273,0.0,0.0,0.0,0.0,0.0,0.0,0.0,0.0,0.0,0.0,0.0,0.0,0.0,0.0,0.0,0.0,0.0,0.0,0.0,0.0,0.0,0.0,0.0,0.0,0.0,0.0,0.0,0.0,4.2759,4.2634,4.2634,4.2634,4.2634,4.2634,4.2634,4.2634,4.2634,4.2634,4.2634,4.2634,4.2634,4.2634,4.2715,4.4156,4.4787,4.4901,4.6309,4.6876,4.6876,4.6876,4.6876,4.6876,4.6876,4.6876,4.6876,0.0,0.0,0.0,0.0,0.0,0.0,0.0,0.0,0.0,0.0,0.0,0.0,0.0,0.0,0.0,0.0,0.0,0.0,2.4489,2.4192,2.4099,2.4282,2.4302,2.421,2.4016,2.3871,2.3739,2.3585,2.3585,2.3585,2.3585,2.3585,2.3585,2.3603,2.3539,2.3539,2.3585,2.3585,2.3603,2.3593,2.3746,2.4223,2.4913,0.0,0.0,0.0,0.0,0.0,0.0,0.0,2.5616,2.5616,2.5616,2.5616,2.56,2.568,2.5659,2.56,2.568,2.5675,0.0,0.0,0.0,0.0,0.0,0.0,0.0,0.0,0.0,0.0,0.0,0.0,0.0,0.0,0.0,0.0,0.0,0.0,0.0,0.0,0.0,0.0,0.0,0.0,0.0,0.0,0.0,0.0,0.0,4.2805,4.2634,4.2634,4.2634,4.2634,4.2634,4.2634,4.2634,4.2634,4.2634,4.2634,4.2634,4.2634,4.2634,4.2715,4.4156,4.4787,4.4901,4.6309,4.6876,4.6876,4.6876,4.6876,4.6876,4.6876,4.6876,4.6876,0.0,0.0,0.0,0.0,0.0,0.0,0.0,0.0,0.0,0.0,0.0,0.0,0.0,0.0,0.0,0.0,0.0,0.0,0.0,2.4355,2.4318,2.4439,2.4265,2.4173,2.4211,2.3852,2.3629,2.3585,2.3562,2.3539,2.3539,2.3539,2.3539,2.3539,2.3517,2.3517,2.3539,2.3539,2.3295,2.2977,2.3007,2.3465,2.4145,0.0,0.0,0.0,0.0,0.0,0.0,0.0,0.0,0.0,2.5616,2.5616,2.5616,2.5637,2.56,2.5616,2.5637,0.0,0.0,0.0,0.0,0.0,0.0,0.0,0.0,0.0,0.0,0.0,0.0,0.0,0.0,0.0,0.0,0.0,0.0,0.0,0.0,0.0,0.0,0.0,0.0,0.0,0.0,0.0,0.0,0.0,0.0,4.299,4.2867,4.2634,4.2634,4.2634,4.2634,4.2634,4.2634,4.2634,4.2634,4.2634,4.2634,4.2634,4.2634,4.2682,4.3622,4.4318,4.4901,4.6309,4.6876,4.6876,4.6876,4.6876,4.6876,4.6876,4.6876,4.6876,0.0,0.0,0.0,0.0,0.0,0.0,0.0,0.0,0.0,0.0,0.0,0.0,0.0,0.0,0.0,0.0,0.0,0.0,0.0,0.0,2.4265,2.4265,2.4098,2.4165,2.4496,2.3887,2.3723,2.4045,2.3677,2.3494,2.3494,2.3494,2.3494,2.3494,0.0,2.3494,2.3494,2.3494,2.3247,2.2833,2.2756,2.3238,2.3983,0.0,0.0,0.0,0.0,0.0,0.0,0.0,0.0,0.0,2.5616,2.56,2.5621,2.5621,2.5621,2.5788,2.6428,0.0,0.0,0.0,0.0,0.0,0.0,0.0,0.0,0.0,0.0,0.0,0.0,0.0,0.0,0.0,0.0,0.0,0.0,0.0,0.0,0.0,0.0,0.0,0.0,0.0,0.0,0.0,0.0,0.0,0.0,4.3157,4.2929,4.2634,4.2634,4.2634,4.2634,4.2634,4.2634,4.2634,4.2634,4.2634,4.2634,4.2634,4.2634,4.2682,4.3702,4.4544,4.5289,4.6423,4.6876,4.6876,4.6876,4.6876,4.6876,4.6876,4.6876,4.6876,0.0,0.0,0.0,0.0,0.0,0.0,0.0,0.0,0.0,0.0,0.0,0.0,0.0,0.0,0.0,0.0,0.0,0.0,0.0,0.0,2.402,2.3959,2.3939,2.4157,2.4682,2.3914,2.3873,2.4587,2.3945,2.3565,2.3494,2.3565,2.3565,2.3494,0.0,2.3517,2.3517,2.3517,2.3336,2.3052,2.2851,2.3363,2.4225,2.3951,0.0,0.0,0.0,0.0,0.0,0.0,0.0,0.0,2.5637,2.5659,2.5701,2.5701,2.5782,2.6227,0.0,0.0,0.0,0.0,0.0,0.0,0.0,0.0,0.0,0.0,0.0,0.0,0.0,0.0,0.0,0.0,0.0,0.0,0.0,0.0,0.0,0.0,0.0,0.0,0.0,0.0,0.0,0.0,0.0,0.0,0.0,4.3339,4.299,4.2634,4.2634,4.2634,4.2634,4.2634,4.2634,4.2634,4.2634,4.2634,4.2634,4.2634,4.2634,4.2715,4.4156,4.5144,4.5775,4.6552,4.6876,4.6876,4.6876,4.6876,4.6876,4.6876,4.6876,4.6876,0.0,0.0,0.0,0.0,0.0,0.0,0.0,0.0,0.0,0.0,0.0,0.0,0.0,0.0,0.0,0.0,0.0,0.0,0.0,0.0,2.4391,2.4371,2.4265,2.4074,2.3789,2.3651,2.3651,2.3743,2.423,2.4123,0.0,0.0,0.0,2.3494,0.0,2.3539,2.3562,2.3517,2.323,2.2816,2.3244,2.3587,2.3852,2.4272,2.4932,0.0,0.0,0.0,0.0,0.0,0.0,0.0,2.5616,2.5616,2.5637,2.5637,2.6493,0.0,0.0,0.0,0.0,0.0,0.0,0.0,0.0,0.0,0.0,0.0,0.0,0.0,0.0,0.0,0.0,0.0,0.0,0.0,0.0,0.0,0.0,0.0,0.0,0.0,0.0,0.0,0.0,0.0,0.0,0.0,4.4039,4.3654,4.3339,4.299,4.2743,4.2634,4.2634,4.2634,4.2634,0.0,4.2634,4.2634,4.2634,4.2634,4.2634,4.2715,4.4156,4.4868,4.5111,4.6358,4.6876,4.6876,4.6876,4.6876,4.6876,4.6876,4.6876,4.6876,0.0,0.0,0.0,0.0,0.0,0.0,0.0,0.0,0.0,0.0,0.0,0.0,0.0,0.0,0.0,0.0,0.0,0.0,0.0,0.0,0.0,2.4174,2.4598,2.4608,2.4144,2.3718,2.3649,2.3975,0.0,0.0,0.0,0.0,0.0,2.3494,0.0,2.3517,2.3539,2.3517,2.3369,2.3168,2.347,2.3801,2.4172,2.4476,2.5005,2.5616,2.5616,0.0,0.0,0.0,0.0,0.0,0.0,0.0,2.577,2.5659,2.6254,2.7267,0.0,0.0,0.0,0.0,0.0,0.0,0.0,0.0,0.0,0.0,0.0,0.0,0.0,0.0,0.0,0.0,0.0,0.0,0.0,0.0,0.0,0.0,0.0,0.0,0.0,0.0,0.0,0.0,0.0,4.39,4.3561,4.3573,4.3459,4.3096,4.2743,4.2634,4.2634,4.2634,4.2634,4.2634,4.2634,4.2634,4.2634,4.2634,4.2634,4.2715,4.4156,4.4787,4.4901,4.6309,4.6876,4.6876,4.6876,4.6876,4.6876,4.6876,4.6876,4.6876,0.0,0.0,0.0,0.0,0.0,0.0,0.0,0.0,0.0,0.0,0.0,0.0,0.0,0.0,0.0,0.0,0.0,0.0,0.0,0.0,0.0,0.0,2.4942,2.5155,2.4613,2.3968,2.3869,0.0,0.0,0.0,0.0,0.0,0.0,2.3494,0.0,2.3588,2.3736,2.3736,2.3784,2.3893,2.3956,2.4255,2.4658,2.4789,2.5155,2.5616,2.5654,2.5659,2.5701,2.5637,0.0,0.0,0.0,0.0,2.5937,2.5791,2.5971,2.6857,0.0,0.0,0.0,0.0,0.0,0.0,0.0,0.0,0.0,0.0,0.0,0.0,0.0,0.0,0.0,0.0,0.0,0.0,0.0,0.0,0.0,0.0,0.0,0.0,0.0,0.0,0.0,0.0,0.0,4.3175,4.3088,4.3372,4.3462,4.3279,4.2867,4.2696,4.2696,4.2696,4.2634,4.2634,4.2634,4.2634,4.2634,4.2634,4.2634,4.2715,4.4156,4.4787,4.4901,4.6309,4.6876,4.6876,4.6876,4.6876,4.6876,4.6876,4.6876,4.6876,0.0,0.0,0.0,0.0,0.0,0.0,0.0,0.0,0.0,0.0,0.0,0.0,0.0,0.0,0.0,0.0,0.0,0.0,0.0,0.0,0.0,2.5201,2.539,2.4939,2.379,2.4361,2.4324,0.0,0.0,0.0,0.0,0.0,0.0,2.3494,0.0,0.0,2.4721,2.4657,2.4797,2.5105,2.5407,2.5257,2.4919,2.5504,2.5668,2.5616,2.5787,2.5791,2.5701,2.5637,2.5659,0.0,0.0,0.0,2.5738,2.5844,0.0,0.0,0.0,0.0,0.0,0.0,0.0,0.0,0.0,0.0,0.0,0.0,0.0,0.0,0.0,0.0,0.0,0.0,0.0,0.0,0.0,0.0,0.0,0.0,0.0,0.0,0.0,0.0,0.0,0.0,4.2033,4.2726,4.3331,4.3188,4.337,4.3964,4.3355,4.3052,4.3052,4.3052,4.2867,4.2634,4.2634,4.2634,4.2634,4.2634,4.2634,4.2715,4.4156,4.4787,4.4901,4.6309,4.6876,4.6876,4.6876,4.6876,4.6876,4.6876,4.6876,4.6876,0.0,0.0,0.0,0.0,0.0,0.0,0.0,0.0,0.0,0.0,0.0,0.0,0.0,0.0,0.0,0.0,0.0,0.0,0.0,0.0,0.0,2.6107,2.6489,2.6173,2.4972,2.5237,2.5176,0.0,0.0,0.0,0.0,2.4889,2.4853,0.0,0.0,0.0,0.0,0.0,2.5714,2.6006,2.5987,2.6447,2.7106,2.6372,2.6574,2.7184,2.6213,2.5881,2.5864,2.5717,2.5754,2.5864,2.5864,0.0,0.0,0.0,0.0,0.0,0.0,0.0,0.0,0.0,0.0,0.0,0.0,0.0,0.0,0.0,0.0,0.0,0.0,0.0,0.0,0.0,0.0,0.0,0.0,0.0,0.0,0.0,0.0,0.0,0.0,0.0,0.0,0.0,4.1271,4.183,4.2168,4.2286,4.2691,4.3444,4.2999,4.2884,4.3096,4.3113,4.2929,4.2634,4.2634,4.2634,4.2634,4.2634,4.2634,4.2682,4.3735,4.4415,4.4868,4.5872,4.652,4.6876,4.6876,4.6876,4.6876,4.6876,4.6876,4.6876,0.0,0.0,0.0,0.0,0.0,0.0,0.0,0.0,0.0,0.0,0.0,0.0,0.0,0.0,0.0,0.0,0.0,0.0,0.0,0.0,0.0,2.7019,2.7301,2.6913,2.5703,2.605,0.0,0.0,0.0,0.0,2.4899,2.5417,2.5488,0.0,2.5093,0.0,0.0,0.0,0.0,0.0,2.7362,2.8122,2.8917,2.7568,2.7576,2.8048,2.6366,2.5746,2.5779,2.5799,2.5864,2.601,2.601,2.6063,0.0,0.0,0.0,0.0,0.0,0.0,0.0,0.0,0.0,0.0,0.0,0.0,0.0,0.0,0.0,0.0,0.0,0.0,0.0,0.0,0.0,0.0,0.0,0.0,0.0,0.0,0.0,0.0,0.0,0.0,0.0,0.0,4.0595,4.1001,4.1187,4.1499,4.203,4.2786,4.2705,4.2767,4.3059,4.3075,4.2929,4.2696,4.2571,4.2571,4.2571,4.2571,4.2571,4.2603,4.3331,4.4123,4.4852,4.5516,4.6228,4.6876,4.6876,4.6876,4.6876,4.6807,4.6807,4.6807,0.0,0.0,0.0,0.0,0.0,0.0,0.0,0.0,0.0,0.0,0.0,0.0,0.0,0.0,2.7457,2.75,2.8259,2.9023,2.9718,2.8015,2.7288,2.7996,2.7283,0.0,2.4877,0.0,0.0,0.0,0.0,0.0,2.5638,2.5614,2.6003,2.664,2.6035,2.6218,2.7046,0.0,0.0,0.0,3.0446,3.0507,2.9282,0.0,0.0,0.0,0.0,0.0,2.5225,2.5796,2.5974,2.601,2.601,2.601,2.6026,0.0,0.0,0.0,0.0,0.0,0.0,0.0,0.0,0.0,0.0,0.0,0.0,0.0,0.0,0.0,0.0,0.0,0.0,0.0,0.0,0.0,0.0,0.0,0.0,0.0,0.0,0.0,0.0,0.0,0.0,0.0,4.0121,4.0443,4.117,4.1238,4.1593,4.232,4.2774,4.2992,4.2969,4.2966,4.2899,4.2899,4.2571,4.2381,4.2381,4.2381,4.2381,4.2493,4.3331,4.4123,4.4852,4.5516,4.6228,4.6876,4.6876,4.6876,4.6876,4.6668,4.6598,4.6598,0.0,0.0,0.0,0.0,0.0,0.0,0.0,0.0,0.0,0.0,0.0,0.0,0.0,2.8466,2.8565,2.8992,2.9333,2.9618,2.9869,2.8664,2.7979,2.8088,2.7725,2.72,2.6542,0.0,0.0,0.0,0.0,2.6428,2.6419,2.6869,2.7002,2.6854,2.671,2.7092,2.787,2.8052,0.0,0.0,3.0686,3.1778,3.1647,0.0,0.0,0.0,0.0,0.0,0.0,2.757,2.6762,2.561,2.604,2.617,2.6132,0.0,0.0,0.0,0.0,0.0,0.0,0.0,0.0,0.0,0.0,0.0,0.0,0.0,0.0,0.0,0.0,0.0,0.0,0.0,0.0,0.0,0.0,0.0,0.0,0.0,0.0,0.0,0.0,0.0,0.0,0.0,0.0,4.0206,4.046,4.0476,4.0815,4.1576,4.1758,4.2059,4.2485,4.295,4.3007,4.2571,4.2713,4.2634,4.2508,4.2445,4.2381,4.2397,4.2575,4.3362,4.4455,4.483,4.562,4.6738,4.6876,4.6807,4.6738,4.6652,4.6528,4.6404,0.0,0.0,0.0,0.0,0.0,0.0,0.0,0.0,0.0,0.0,0.0,0.0,0.0,0.0,2.9455,2.9867,2.9888,2.9888,2.9888,2.9032,2.8519,2.8575,2.8196,2.7877,2.7606,0.0,0.0,0.0,0.0,0.0,0.0,0.0,2.7861,2.7458,2.7309,0.0,0.0,0.0,0.0,2.8166,0.0,3.34,3.3373,0.0,0.0,0.0,0.0,0.0,0.0,0.0,2.8595,2.7261,0.0,0.0,0.0,0.0,0.0,0.0,0.0,0.0,0.0,0.0,0.0,0.0,0.0,0.0,0.0,0.0,0.0,0.0,0.0,0.0,0.0,0.0,0.0,0.0,0.0,0.0,0.0,0.0,0.0,0.0,0.0,0.0,0.0,0.0,0.0,0.0,3.9986,3.9986,4.0323,4.1187,4.1405,4.1774,4.2352,4.2993,4.3007,4.2445,4.2634,4.2634,4.2508,4.2445,4.2381,4.2381,4.2125,4.2732,4.3885,4.426,4.513,4.6207,4.6588,4.6598,4.6458,4.6474,4.6349,4.6207,0.0,0.0,0.0,0.0,0.0,0.0,0.0,0.0,0.0,0.0,0.0,0.0,0.0,0.0,0.0,2.9905,2.9888,2.9888,2.9888,2.9013,2.8797,2.9439,2.8652,2.8086,2.7834,0.0,0.0,0.0,0.0,0.0,0.0,0.0,2.8453,0.0,2.7822,2.7834,2.837,0.0,2.8489,2.8915,0.0,3.5338,3.4207,0.0,0.0,0.0,2.9213,2.8064,0.0,0.0,0.0,0.0,0.0,0.0,0.0,0.0,0.0,0.0,0.0,0.0,0.0,0.0,0.0,0.0,0.0,0.0,0.0,0.0,0.0,0.0,0.0,0.0,0.0,0.0,0.0,0.0,0.0,0.0,0.0,0.0,0.0,0.0,0.0,0.0,0.0,0.0,3.9867,3.9729,3.9729,3.9729,4.0169,4.1153,4.1738,4.2244,4.2682,4.2944,4.2912,4.2634,4.2445,4.2381,4.2381,4.2381,4.2381,4.2381,4.2028,4.2395,4.3197,4.3933,4.4653,4.5357,4.6061,4.6262,4.6278,4.6168,4.6112,4.6112,0.0,0.0,0.0,0.0,0.0,0.0,0.0,0.0,0.0,0.0,0.0,0.0,0.0,0.0,2.9937,2.9905,2.9888,2.9888,2.9888,2.9115,2.869,2.876,2.859,2.8371,2.8104,0.0,0.0,0.0,0.0,0.0,0.0,0.0,0.0,0.0,2.7833,2.7543,2.7565,2.7061,0.0,0.0,3.3194,3.498,0.0,0.0,0.0,0.0,0.0,3.3055,3.2634,0.0,3.2127,2.7793,0.0,0.0,0.0,0.0,0.0,0.0,2.7262,0.0,0.0,0.0,0.0,0.0,0.0,0.0,0.0,0.0,0.0,0.0,0.0,0.0,0.0,0.0,0.0,0.0,0.0,0.0,0.0,0.0,0.0,0.0,0.0,0.0,0.0,0.0,4.0104,3.9969,3.9969,3.9833,3.983,4.0135,4.0608,4.1178,4.174,4.2277,4.2545,4.2634,4.2696,4.2713,4.2571,4.2445,4.2381,4.2381,4.2125,4.2124,4.2346,4.354,4.4432,4.5132,4.5991,4.6207,4.6168,4.6096,4.604,4.588,0.0,0.0,0.0,0.0,0.0,0.0,0.0,0.0,0.0,0.0,0.0,0.0,0.0,0.0,0.0,2.9956,2.9924,2.9888,2.9888,2.9453,2.9172,2.9087,2.9091,2.9022,2.8858,2.8629,0.0,0.0,0.0,0.0,0.0,0.0,0.0,0.0,0.0,0.0,0.0,0.0,0.0,0.0,3.2721,0.0,0.0,3.7671,3.9336,0.0,0.0,0.0,3.5752,3.7351,3.3992,0.0,0.0,0.0,0.0,0.0,0.0,0.0,0.0,0.0,0.0,0.0,0.0,0.0,3.4156,3.6131,3.8546,0.0,0.0,0.0,0.0,0.0,0.0,0.0,0.0,0.0,0.0,0.0,0.0,0.0,0.0,0.0,0.0,4.1036,4.0896,4.0514,4.0286,4.0003,3.9661,3.9556,3.9451,3.9398,3.9951,4.0436,4.0849,4.1658,4.2141,4.2259,4.2613,4.2696,4.2634,4.2508,4.2508,4.2445,4.2318,4.219,4.2173,4.3224,4.3949,4.4564,4.5403,4.581,4.5952,4.5952,4.5896,4.5807,0.0,0.0,0.0,3.2013,3.1992,3.196,0.0,0.0,0.0,0.0,0.0,0.0,0.0,0.0,0.0,0.0,3.0089,3.0018,2.9907,2.9907,2.9907,2.9907,2.9841,2.9808,2.9808,2.9456,0.0,0.0,0.0,0.0,0.0,0.0,0.0,0.0,0.0,0.0,0.0,0.0,0.0,2.6874,3.2593,3.4845,0.0,0.0,3.9675,0.0,3.8064,3.7668,3.7911,3.87,3.6221,0.0,0.0,0.0,0.0,0.0,2.7751,0.0,0.0,0.0,0.0,0.0,0.0,0.0,3.5335,3.6564,3.808,4.1359,0.0,0.0,0.0,0.0,0.0,0.0,0.0,0.0,0.0,0.0,0.0,0.0,0.0,0.0,4.122,4.1472,4.1428,4.0754,4.0417,3.9919,3.9169,3.9169,3.9152,3.9023,3.9578,3.9939,4.0077,4.1128,4.1666,4.1824,4.2356,4.2634,4.2634,4.2634,4.2634,4.2571,4.2445,4.2381,4.243,4.296,4.3349,4.3822,4.4659,4.5302,4.5807,4.5807,4.5807,4.5807,3.1738,0.0,0.0,3.2,3.1994,3.176,0.0,0.0,0.0,0.0,0.0,0.0,0.0,0.0,0.0,0.0,3.1077,3.0715,2.995,2.9893,2.9893,2.9893,2.9895,2.9861,2.9808,2.9717,2.9608,0.0,0.0,0.0,0.0,0.0,0.0,0.0,0.0,0.0,0.0,0.0,0.0,2.8428,3.3011,0.0,3.5381,4.0668,4.2467,4.2121,4.1845,4.1148,4.0021,0.0,3.6809,3.5936,0.0,0.0,0.0,0.0,0.0,0.0,0.0,0.0,0.0,0.0,0.0,0.0,3.2973,3.3193,3.3864,0.0,0.0,0.0,0.0,0.0,0.0,0.0,0.0,0.0,0.0,0.0,0.0,0.0,0.0,0.0,4.2061,4.1856,4.1666,4.149,4.0896,4.0368,3.9969,3.9454,3.9152,3.9023,3.8841,3.9145,3.9942,4.0447,4.1119,4.1824,4.2356,4.2634,4.2634,4.2634,4.2634,4.2634,4.2571,4.2508,4.2397,4.2653,4.3233,4.3992,4.4729,4.5302,4.5807,4.5807,4.5807,4.5807,3.2479,0.0,0.0,3.2669,3.2647,3.2499,3.2059,0.0,0.0,0.0,0.0,0.0,0.0,0.0,0.0,0.0,0.0,0.0,0.0,2.9926,2.9926,2.9912,2.9895,2.9876,2.9857,2.9859,2.9808,2.9699,0.0,0.0,0.0,0.0,0.0,0.0,0.0,0.0,0.0,0.0,2.6845,2.9624,3.2931,0.0,3.7106,4.1708,4.3322,4.3142,4.2882,4.2459,4.1767,4.0147,3.8582,0.0,0.0,3.4694,3.3758,0.0,3.1468,3.1465,0.0,0.0,0.0,3.0549,0.0,0.0,0.0,3.3404,3.3917,3.6199,3.6642,0.0,0.0,0.0,0.0,0.0,0.0,0.0,0.0,0.0,0.0,0.0,0.0,0.0,4.2287,4.2145,4.1899,4.1709,4.0972,4.0351,4.0003,3.9523,3.9023,3.8567,3.8432,3.8626,3.9024,3.9606,4.0259,4.1167,4.1821,4.2294,4.2634,4.2634,4.2634,4.2634,4.2634,4.2571,4.2508,4.2571,4.3009,4.3789,4.4357,4.4919,4.5445,4.5681,4.5807,4.5807,3.2727,0.0,0.0,0.0,3.3161,3.3101,3.3264,0.0,0.0,0.0,0.0,0.0,0.0,0.0,0.0,0.0,0.0,0.0,0.0,0.0,3.0452,2.9931,2.9895,2.9893,2.9907,2.991,2.991,2.9888,0.0,0.0,0.0,0.0,0.0,0.0,0.0,0.0,0.0,0.0,0.0,3.1348,0.0,3.5765,3.8825,4.215,4.3429,4.3411,4.2995,4.301,4.3176,4.2667,0.0,3.829,3.8868,3.7559,0.0,0.0,0.0,0.0,0.0,0.0,0.0,0.0,0.0,3.1701,0.0,0.0,0.0,3.659,0.0,0.0,0.0,0.0,0.0,0.0,0.0,0.0,0.0,0.0,0.0,0.0,0.0,0.0,4.1859,4.18,4.1825,4.1821,4.0787,4.0124,4.0152,3.9679,3.9115,3.8479,3.8432,3.8335,3.8164,3.884,3.9543,4.0243,4.1116,4.1827,4.2377,4.2506,4.2634,4.2634,4.2634,4.2634,4.2634,4.2634,4.2847,4.3315,4.3968,4.4516,4.5094,4.5611,4.5807,4.5807,3.1916,3.2203,0.0,0.0,3.2667,3.2402,3.3184,0.0,0.0,0.0,0.0,0.0,0.0,0.0,0.0,0.0,0.0,0.0,3.3557,0.0,0.0,3.0007,2.9842,2.9842,2.9912,2.9891,2.9888,2.9888,0.0,0.0,0.0,0.0,0.0,0.0,3.0841,0.0,0.0,0.0,3.2748,0.0,3.4887,3.6482,0.0,4.22,4.3569,4.3719,4.3497,4.3815,4.4054,0.0,4.2032,4.2376,0.0,3.9409,4.1743,0.0,0.0,0.0,0.0,0.0,0.0,0.0,3.1589,0.0,0.0,0.0,3.2138,3.325,0.0,0.0,0.0,0.0,0.0,0.0,0.0,0.0,0.0,0.0,0.0,0.0,0.0,0.0,0.0,4.006,4.0606,4.2139,4.0355,3.9905,4.1385,4.048,3.98,3.9629,3.8843,3.8335,3.8116,3.8739,3.9081,3.9193,4.0723,4.1477,4.1574,4.2296,4.2634,4.2634,4.2634,4.2634,4.2634,4.2634,4.2619,4.2813,4.3776,4.4516,4.5094,4.5611,4.5807,4.5807,3.1783,0.0,0.0,0.0,3.2306,3.2333,3.3172,0.0,0.0,0.0,0.0,0.0,0.0,0.0,0.0,0.0,0.0,3.5985,0.0,0.0,0.0,3.0004,2.9842,2.9825,2.9895,2.9859,3.0084,3.061,3.0137,0.0,0.0,0.0,0.0,0.0,3.057,0.0,3.0151,0.0,0.0,0.0,0.0,0.0,0.0,4.2399,4.3579,4.4071,4.398,4.4473,4.5021,0.0,4.3124,0.0,0.0,0.0,0.0,0.0,0.0,0.0,0.0,0.0,0.0,0.0,0.0,0.0,3.2264,0.0,3.1602,0.0,0.0,0.0,0.0,0.0,0.0,0.0,3.338,0.0,0.0,0.0,0.0,0.0,0.0,0.0,0.0,0.0,0.0,0.0,3.9974,3.9442,4.149,4.0861,4.0334,4.0102,3.9246,3.8723,3.8557,3.8364,3.8471,3.9006,4.0059,4.0809,4.1227,4.2122,4.2508,4.2508,4.2508,4.2508,4.2571,4.2365,4.2429,4.2668,4.3377,4.3994,4.4612,4.5135,4.5516,4.5807,3.1406,0.0,0.0,0.0,0.0,0.0,0.0,0.0,0.0,0.0,0.0,0.0,3.4454,3.5204,0.0,0.0,3.7891,3.7241,0.0,0.0,3.3688,0.0,0.0,0.0,0.0,3.0182,3.0108,3.0729,3.0162,2.999,0.0,0.0,0.0,0.0,0.0,3.2083,3.2428,0.0,0.0,3.8266,3.7523,3.8861,4.1437,4.3067,4.4108,4.4765,4.4671,4.5199,4.5745,4.4758,4.387,0.0,4.3005,0.0,0.0,0.0,0.0,0.0,3.0683,0.0,0.0,0.0,0.0,0.0,0.0,0.0,0.0,0.0,0.0,0.0,0.0,0.0,0.0,0.0,0.0,3.3306,0.0,0.0,0.0,0.0,0.0,0.0,0.0,0.0,0.0,4.1186,3.9198,3.899,4.156,4.1265,4.0861,4.0621,3.9851,3.937,3.9176,3.8423,3.8274,3.8803,3.939,4.0032,4.0751,4.1644,4.2125,4.2318,4.2318,4.2381,4.2429,4.2174,4.2238,4.2493,4.2848,4.3341,4.3994,4.4734,4.5278,4.5611,3.0441,3.0618,0.0,0.0,0.0,0.0,0.0,0.0,0.0,0.0,0.0,0.0,0.0,0.0,0.0,0.0,0.0,4.3109,3.8185,0.0,3.6347,0.0,0.0,3.1028,0.0,3.1051,2.9808,2.9846,2.9827,3.0204,0.0,0.0,0.0,0.0,0.0,3.3164,3.2655,3.6726,3.9499,4.1193,4.1473,4.1946,4.2654,0.0,4.5478,4.59,4.5643,0.0,0.0,4.2678,4.4175,0.0,0.0,0.0,0.0,0.0,0.0,0.0,0.0,0.0,0.0,3.0924,0.0,0.0,0.0,0.0,3.0972,0.0,0.0,0.0,0.0,0.0,3.2197,3.193,3.1891,0.0,0.0,0.0,0.0,0.0,0.0,0.0,0.0,0.0,3.5941,3.8881,3.7807,3.8581,4.2085,4.177,4.1472,4.1472,4.0668,4.0152,3.9952,3.9123,3.8541,3.8327,3.8654,3.9163,3.9863,4.0719,4.1469,4.2109,4.2109,4.2109,4.2109,4.2109,4.2109,4.2109,4.2334,4.2735,4.3355,4.4575,4.5015,4.5072,0.0,0.0,0.0,0.0,0.0,0.0,0.0,3.2766,0.0,0.0,0.0,0.0,0.0,3.9466,4.0936,0.0,0.0,4.2369,3.8395,3.7877,0.0,0.0,0.0,3.1099,0.0,3.1762,3.099,3.1374,3.1467,3.1637,0.0,0.0,0.0,0.0,0.0,3.4049,0.0,0.0,0.0,0.0,0.0,4.1572,4.4116,0.0,0.0,4.4557,4.6067,4.7051,0.0,4.6015,4.6542,4.7122,4.3826,4.501,4.7057,4.3808,4.098,0.0,0.0,0.0,4.0724,3.5011,0.0,0.0,0.0,0.0,0.0,0.0,0.0,0.0,0.0,0.0,3.1888,3.2179,3.2037,3.1875,0.0,0.0,0.0,0.0,0.0,0.0,0.0,0.0,0.0,3.8874,3.8304,3.9042,4.175,4.1788,4.1744,4.1899,4.1013,4.0573,4.059,3.9647,3.9123,3.9106,3.9348,3.9725,4.0212,4.0919,4.1517,4.1947,4.1947,4.1996,4.2109,4.1851,4.1916,4.2109,4.2077,4.2221,4.2653,4.3994,4.4671,4.511,2.9167,0.0,0.0,0.0,0.0,0.0,0.0,0.0,0.0,0.0,3.6619,0.0,4.0012,0.0,4.2354,0.0,4.3976,4.2656,3.8933,3.8992,0.0,3.5854,3.3792,0.0,0.0,0.0,3.2804,3.3204,3.2655,3.2505,0.0,0.0,0.0,0.0,0.0,0.0,3.8137,0.0,4.1585,0.0,0.0,4.1007,0.0,0.0,4.3259,4.4578,0.0,4.7903,4.8224,4.7834,4.7706,4.7715,4.7687,4.7692,4.7693,4.7702,4.6191,4.4718,4.5554,4.5748,0.0,3.7936,3.7703,0.0,3.1576,0.0,0.0,0.0,0.0,0.0,0.0,0.0,3.1246,3.1758,3.1637,3.16,0.0,3.1396,0.0,0.0,0.0,0.0,0.0,0.0,3.549,3.7775,3.7759,3.8564,0.0,0.0,4.178,4.1934,4.1356,4.1001,4.0984,4.0201,3.98,3.9732,3.9694,3.9975,4.0491,4.0813,4.1276,4.1817,4.1817,4.1866,4.1916,4.172,4.172,4.1916,4.1898,4.1947,4.214,4.3288,4.4257,4.4953,0.0,0.0,0.0,0.0,3.003,0.0,0.0,0.0,3.21,0.0,3.6799,3.833,4.0967,4.2688,4.3658,4.3712,4.5074,0.0,4.0004,4.0957,0.0,0.0,3.819,3.8804,4.1339,0.0,0.0,3.5059,3.3371,3.2882,3.3543,0.0,0.0,0.0,3.2391,0.0,3.8804,4.0355,4.3501,4.6994,4.2063,4.049,4.1154,4.1399,4.3256,4.5998,4.7936,4.8641,4.8513,4.791,4.7684,4.7699,4.7699,4.7717,4.7717,4.7717,4.7717,4.6904,4.3406,4.246,4.1912,3.96,0.0,0.0,0.0,0.0,3.3013,0.0,0.0,0.0,0.0,0.0,0.0,3.0733,3.0751,3.1011,0.0,0.0,0.0,0.0,0.0,0.0,0.0,3.2509,3.3076,3.5728,3.6266,3.7245,0.0,0.0,4.1472,4.1604,4.156,4.1453,4.1209,4.0733,4.0446,4.0235,3.9767,3.9964,4.068,4.0518,4.0858,4.1607,4.1638,4.1654,4.1588,4.1588,4.1588,4.1588,4.1817,4.1898,4.1978,4.2693,4.3685,4.4828,2.7282,2.8422,2.9728,0.0,3.0412,3.0412,0.0,0.0,0.0,0.0,3.8614,4.0623,4.4508,4.5289,4.5514,4.5533,4.5893,0.0,0.0,0.0,0.0,4.1046,3.887,3.8842,4.1358,3.7927,0.0,3.5894,3.4887,3.4433,3.451,0.0,0.0,0.0,0.0,0.0,3.6121,3.7814,3.9908,4.1949,4.0633,4.0592,0.0,0.0,4.5068,4.6529,4.8436,4.8987,4.8725,4.7942,4.7709,4.7706,4.7705,4.7717,4.7717,4.7717,4.7717,4.7476,4.6537,4.6302,4.558,4.2605,4.1791,4.0795,0.0,0.0,0.0,0.0,0.0,0.0,0.0,0.0,0.0,0.0,3.0302,0.0,0.0,0.0,0.0,3.108,0.0,0.0,3.2115,3.3003,3.4226,3.5934,3.6259,3.7543,4.0187,0.0,0.0,4.1401,4.1226,4.1198,4.1346,4.0884,4.0628,4.0642,4.0368,4.0408,4.0745,4.1333,4.151,4.1341,4.2044,4.2093,4.1588,4.1588,4.1588,4.1588,4.167,4.167,4.1813,4.3198,4.4113,4.4828,2.6619,0.0,0.0,3.0306,0.0,0.0,3.2966,0.0,0.0,3.9023,3.9756,0.0,4.477,4.5781,4.6332,4.6683,4.6741,0.0,4.3986,0.0,0.0,4.2911,4.1681,4.1666,4.3058,4.0578,0.0,3.7985,0.0,0.0,3.5015,0.0,0.0,0.0,0.0,3.4478,0.0,4.0519,4.17,4.1261,4.2025,0.0,0.0,4.466,4.6437,4.8285,4.9366,4.9637,4.939,4.8516,4.7979,4.7691,4.7696,4.7697,4.7717,4.7717,4.7717,4.7717,4.7717,4.7717,4.7283,4.5454,4.5001,4.4111,4.0744,3.977,3.9013,0.0,0.0,0.0,0.0,0.0,0.0,0.0,0.0,0.0,0.0,0.0,0.0,0.0,3.0403,0.0,3.0907,3.1977,3.3214,3.4569,3.5022,3.595,0.0,0.0,0.0,3.9985,3.9807,4.0134,4.1024,4.0245,4.0134,4.0707,4.0789,4.0827,4.0838,4.1577,4.1642,4.1257,4.2106,4.2158,4.1588,4.1588,4.1588,4.1588,4.1588,4.1588,4.1731,4.2988,4.3775,4.4385,0.0,0.0,0.0,0.0,0.0,0.0,0.0,3.4583,0.0,4.0558,0.0,4.1306,4.3902,4.5597,4.6825,4.7528,0.0,4.733,4.6484,4.6918,4.6452,4.4795,4.5341,4.5606,4.5449,4.3921,0.0,0.0,0.0,0.0,0.0,0.0,0.0,0.0,0.0,0.0,0.0,4.4281,4.4791,4.2463,4.4431,4.5194,4.5252,4.569,4.772,5.0302,5.0302,5.0279,5.0175,4.9352,4.8602,4.7942,4.7755,4.7722,4.7687,4.7699,4.7717,4.7717,4.7717,4.7717,4.7717,4.7717,4.7717,4.6939,4.4023,4.2546,4.1101,3.8466,3.7066,3.6179,0.0,0.0,0.0,0.0,0.0,0.0,0.0,0.0,0.0,0.0,0.0,0.0,2.9605,3.0318,3.1353,3.272,3.3316,3.3819,0.0,0.0,0.0,3.8504,3.8457,3.9003,4.0226,0.0,3.9376,4.0288,4.0874,4.1034,4.0898,4.1651,4.1707,4.1297,4.2137,4.2238,4.1704,4.1654,4.1588,4.1588,4.1588,4.1588,4.1667,4.2299,4.3042,4.3816,0.0,0.0,0.0,0.0,0.0,3.586,3.947,3.9078,3.9285,4.1846,4.2674,4.3981,4.6561,4.7737,4.8391,4.8535,4.8574,0.0,0.0,0.0,0.0,4.6573,4.7234,4.7204,4.6309,4.5354,4.3692,0.0,0.0,0.0,0.0,0.0,0.0,0.0,0.0,0.0,3.9181,3.9242,0.0,4.0976,4.3977,4.5194,4.55,4.8331,4.9786,5.0302,5.0302,5.0316,5.0282,5.0118,4.9826,4.9299,4.8089,4.7717,4.7706,4.7692,4.7717,4.7717,4.7717,4.7717,4.7717,4.7717,4.7717,4.7391,4.616,4.5214,4.4292,4.3099,4.2157,4.0962,3.9028,0.0,0.0,0.0,0.0,0.0,0.0,0.0,0.0,0.0,0.0,3.052,0.0,2.9834,3.1425,3.2928,3.249,3.3773,0.0,0.0,0.0,0.0,3.9946,0.0,0.0,0.0,3.9387,3.8499,4.0173,4.0731,4.0341,4.2175,4.2532,4.1754,4.2746,4.2896,4.2396,4.1835,4.1588,4.1588,4.1588,4.1588,4.1604,4.1746,4.26,4.3816,0.0,0.0,0.0,0.0,0.0,0.0,0.0,4.5181,0.0,4.5153,4.5015,4.5641,4.7324,4.8688,4.982,5.0692,5.0386,5.0316,5.07,4.9742,4.8926,4.8368,4.8174,0.0,4.7188,4.6787,4.4914,4.1495,0.0,0.0,0.0,0.0,0.0,0.0,0.0,3.87,0.0,0.0,0.0,4.4442,4.6866,4.7853,4.8025,4.9671,5.0302,5.0302,5.0302,5.0312,5.031,5.0311,5.0156,4.9871,4.9104,4.8308,4.7696,4.7682,4.772,4.7717,4.7717,4.7717,4.7717,4.7717,4.7391,4.6993,4.6595,4.5544,4.4566,4.4168,4.3444,4.2083,3.9389,3.5828,0.0,0.0,0.0,0.0,0.0,0.0,0.0,0.0,0.0,0.0,0.0,0.0,0.0,0.0,0.0,0.0,0.0,0.0,0.0,0.0,0.0,0.0,0.0,0.0,0.0,3.912,4.0175,4.0468,4.0172,4.1972,4.2375,4.1772,4.3107,4.3366,4.2941,4.2333,4.19,4.1588,4.1588,4.1588,4.1588,4.1588,4.2268,4.3279,0.0,2.8841,0.0,0.0,3.9898,0.0,4.6199,5.018,5.1771,4.8716,4.7878,4.7819,4.8504,4.998,5.1396,5.2523,5.2035,5.1874,5.2317,5.0956,4.9951,4.9621,4.8998,4.8491,4.8086,4.8239,4.6443,0.0,0.0,0.0,0.0,0.0,0.0,0.0,0.0,0.0,0.0,0.0,4.8018,4.8606,4.9816,5.0302,5.0302,5.0302,5.0302,5.0302,5.0302,5.0302,5.0302,5.0312,5.0228,5.0109,4.9946,4.9001,4.7923,4.7864,4.7769,4.7717,4.7717,4.7717,4.7663,4.75,4.6975,4.6413,4.6069,4.5001,4.4041,4.3878,4.3335,4.199,3.9035,3.6781,0.0,0.0,0.0,0.0,0.0,0.0,0.0,0.0,0.0,0.0,3.0419,0.0,0.0,0.0,0.0,0.0,3.4301,0.0,0.0,0.0,0.0,3.8421,3.9221,0.0,3.8945,3.9664,4.0234,4.0387,4.0121,4.1662,4.2179,4.1882,4.3354,4.3739,4.3246,4.2772,4.2285,4.1769,4.1654,4.1588,4.1588,4.1588,4.2062,4.2789,0.0,0.0,0.0,0.0,0.0,0.0,4.7825,5.1499,5.3101,5.1183,5.1564,5.2021,5.2104,5.3024,5.3373,5.2761,5.2611,5.2269,5.1562,5.1284,5.0695,4.9658,5.0198,5.0047,4.9006,4.9691,4.8735,0.0,0.0,4.1387,0.0,0.0,0.0,0.0,0.0,0.0,0.0,4.7375,4.8774,5.052,5.0363,5.0302,5.0302,5.0302,5.0302,5.0302,5.0302,5.0302,5.0302,5.0302,5.0288,5.0247,4.9977,4.9352,4.8633,4.8402,4.8028,4.7717,4.7717,4.7717,4.7536,4.6794,4.6558,4.6124,4.4657,4.4204,4.3878,4.3154,4.2936,4.2083,3.9352,3.8522,3.7294,0.0,0.0,0.0,0.0,0.0,0.0,0.0,0.0,0.0,0.0,2.9191,0.0,0.0,3.2225,0.0,0.0,0.0,0.0,3.8334,0.0,3.7449,3.628,3.8727,3.9357,3.8235,3.9771,4.0387,4.0189,4.1869,4.255,4.246,4.3411,4.3621,4.3246,4.2664,4.2476,4.2459,4.1835,4.1588,4.1588,4.1588,4.2062,4.2789,0.0,0.0,0.0,0.0,0.0,0.0,0.0,5.4234,5.5217,5.4515,5.3818,5.3585,5.4108,5.4499,5.457,5.423,5.3764,5.3103,5.2235,5.1635,5.1053,5.0513,5.0689,5.0527,4.9942,5.0176,4.906,0.0,0.0,0.0,0.0,0.0,0.0,0.0,0.0,4.536,4.7173,4.864,4.9786,5.0606,5.0396,5.0302,5.0302,5.0302,5.0302,5.0302,5.0302,5.0302,5.0302,5.0302,5.0255,5.0201,5.0081,4.9759,4.9313,4.8618,4.7793,4.7135,4.7021,4.6631,4.6178,4.5852,4.5417,4.4892,4.424,4.3715,4.3281,4.2955,4.2862,4.2438,4.1078,3.9626,3.8518,0.0,0.0,0.0,0.0,0.0,0.0,0.0,0.0,0.0,0.0,0.0,0.0,0.0,0.0,0.0,0.0,0.0,0.0,3.698,0.0,3.8751,3.7206,3.9137,3.9833,3.9289,3.9949,4.0171,4.0172,4.1714,4.3044,4.4036,4.4376,4.4276,4.3873,4.3306,4.2756,4.2222,4.1769,4.1769,4.2013,4.2142,4.2398,4.2815,4.4443,0.0,4.491,0.0,5.0625,5.1501,5.5033,5.6093,5.6503,5.6503,5.5431,5.4882,5.5484,5.5341,5.5093,5.4843,5.4071,5.3244,5.2377,5.1687,5.1234,5.112,5.0908,0.0,5.0527,5.0374,4.9423,4.7627,4.5189,0.0,0.0,0.0,0.0,0.0,4.6215,4.738,4.8166,4.9717,5.0442,5.0507,5.0352,5.0302,5.0302,5.0325,5.0325,5.0325,5.0348,5.0348,5.0325,5.0325,5.0302,5.0236,5.0158,4.9803,4.9348,4.8861,4.7844,4.6891,4.7022,4.6513,4.5943,4.5707,4.5236,4.4729,4.4512,4.4005,4.3534,4.3278,4.2967,4.2649,4.2369,4.0895,3.9802,4.0106,0.0,0.0,0.0,0.0,0.0,0.0,3.3324,3.2394,3.339,2.9543,0.0,0.0,0.0,0.0,0.0,0.0,0.0,0.0,0.0,0.0,3.8044,3.9425,4.007,4.007,4.007,4.007,4.0121,4.161,4.3277,4.4923,4.4923,4.4814,4.4519,4.3956,4.3229,4.2412,4.2029,4.2077,4.2317,4.2522,4.2694,4.303,5.0413,4.838,4.8243,5.5189,5.356,5.2469,5.5937,5.6483,5.6503,5.6503,5.6483,5.6455,5.6398,5.5675,5.485,5.3982,5.3181,5.2351,5.1472,5.1341,5.125,0.0,0.0,5.0735,5.0587,5.0418,5.0283,5.0245,0.0,0.0,4.677,0.0,4.4722,4.6866,4.7101,4.8445,5.0548,5.0587,5.0606,5.0567,5.0374,5.0302,5.0302,5.0371,5.0412,5.0412,5.0478,5.0457,5.0412,5.0412,5.0412,5.0371,5.0255,4.9333,4.8475,4.9265,4.8289,4.7204,4.8029,4.7992,4.7482,4.6685,4.6486,4.6269,4.5472,4.5273,4.5015,4.4159,4.3246,4.2649,4.2783,4.2374,4.1327,3.9075,0.0,0.0,0.0,0.0,0.0,3.5908,3.3693,3.3123,3.4978,3.1581,0.0,0.0,0.0,0.0,0.0,0.0,0.0,3.8508,3.8368,0.0,3.8213,3.9474,4.007,4.007,4.007,4.007,4.0121,4.161,4.324,4.4776,4.4776,4.4923,4.5123,4.4519,4.3873,4.3246,4.2756,4.2443,4.2317,4.2522,4.2986,4.3608,5.4595,5.3933,5.3894,5.6113,5.5587,5.5217,5.6327,5.6503,5.6503,5.6503,5.6455,5.6417,5.6407,5.5684,5.4853,0.0,5.3161,5.2331,0.0,5.1349,5.1289,5.1242,5.1042,5.0867,5.0735,5.0587,5.044,5.0302,0.0,0.0,0.0,4.653,4.7523,4.9906,4.9862,5.0248,5.0942,5.0699,5.0587,5.0567,5.0374,5.0325,5.0367,5.039,5.0435,5.0478,5.05,5.05,5.0478,5.0478,5.0435,5.039,5.0348,4.9997,4.9561,4.9522,4.8715,4.7783,4.7537,4.7001,4.6335,4.5824,4.5689,4.5576,4.5265,4.5129,4.4993,4.4617,4.4366,4.4245,4.4286,4.3796,4.3086,4.206,4.1472,0.0,0.0,0.0,0.0,3.3707,3.1466,3.1209,3.3835,3.1324,0.0,0.0,0.0,0.0,0.0,0.0,0.0,0.0,3.8877,0.0,3.8213,3.9523,4.0188,4.007,4.007,4.0612,4.161,4.2083,4.3277,4.494,4.494,4.5032,4.5123,4.4519,4.4047,4.3604,4.3246,4.3229,4.3512,4.3663,4.3914,4.4289,5.6511,5.6503,5.6503,5.6503,5.6503,5.6503,5.6503,5.6503,5.6503,5.6503,5.6455,5.6437,5.6446,5.5396,0.0,5.3907,5.2848,5.198,5.1433,5.1355,5.1349,5.1343,5.1131,5.1004,5.0894,5.0717,0.0,5.0399,4.9043,4.8542,4.885,4.885,4.9718,5.123,5.1181,5.1097,5.0978,5.0848,5.0717,5.0587,5.0504,5.0438,5.0412,5.0435,5.0457,5.05,5.0521,5.05,5.0478,5.05,5.0457,5.039,5.0367,5.0302,5.0163,4.9833,4.9003,4.8164,4.7946,4.7424,4.6838,4.6418,4.6299,4.6259,4.5995,4.563,4.5347,4.5262,4.5072,4.4959,4.5,4.4687,4.4385,4.415,4.3326,4.2088,4.0426,0.0,0.0,0.0,0.0,0.0,0.0,3.3237,3.3794,0.0,0.0,0.0,0.0,0.0,0.0,3.8008,3.9748,0.0,3.9067,3.9878,4.0238,4.007,4.007,4.0849,4.2286,4.2286,4.3277,4.4978,4.4978,4.5086,4.5247,4.4797,4.4316,4.3823,4.3663,4.3764,4.4054,4.4219,4.4519,4.4946,5.6511,5.6503,5.6503,0.0,5.6503,0.0,5.6503,5.6503,5.6503,5.6503,5.6503,5.6483,5.6483,5.4933,5.3868,5.3811,0.0,0.0,0.0,5.1411,5.1394,5.1394,5.122,5.1105,5.1105,5.0784,5.0606,5.0587,5.0711,5.0953,5.1292,5.1351,5.1307,5.1214,5.1394,5.1277,5.0932,5.1114,5.0966,5.0606,5.0663,5.0585,5.0412,5.0478,5.05,5.05,5.0582,5.0519,5.0412,5.0478,5.0457,5.039,5.0325,5.0302,5.0278,5.0158,4.9265,4.8464,4.9052,4.8986,4.8623,4.8132,4.7992,4.7829,4.7389,4.6675,4.6086,4.6086,4.5495,4.5,4.5048,4.5119,4.5206,4.5196,4.4617,4.3144,4.0125,0.0,0.0,0.0,0.0,0.0,0.0,3.6746,3.786,0.0,0.0,0.0,0.0,0.0,3.7818,4.0784,4.0793,4.0648,4.0534,4.0387,4.0238,4.007,4.007,4.0849,4.2286,4.2286,4.3277,4.4978,4.4978,4.5157,4.5371,4.5247,4.4763,4.4054,4.4088,4.4071,4.4112,4.4276,4.4814,4.5524,0.0,0.0,5.6503,5.6503,5.6503,5.6503,5.6503,5.6503,5.6503,5.6503,5.6456,5.6427,5.6427,5.4879,5.3815,5.3806,5.2323,5.1394,5.1394,5.1349,5.1349,5.1394,5.1248,5.115,5.1105,5.0874,5.0696,5.0587,5.0644,5.0813,5.1169,5.183,5.2173,5.228,5.2968,5.2873,5.2164,5.2119,5.1579,5.0745,5.0663,5.0545,5.0412,5.0478,5.05,5.05,5.0582,5.0562,5.0478,5.05,5.0457,5.0412,5.039,5.0325,5.0278,5.0207,4.9886,4.954,4.9326,4.9196,4.8919,4.8192,4.7663,4.7356,4.7267,4.6972,4.6757,4.6757,4.6704,4.6444,4.5878,4.5372,4.4844,4.4255,4.1779,3.9686,3.8922,3.6614,3.48,0.0,3.3774,3.4558,3.7282,3.7456,3.7759,0.0,0.0,0.0,0.0,3.8322,3.9029,4.0819,4.0888,4.0793,4.0648,4.0534,4.0337,4.007,4.007,4.0849,4.2286,4.2286,4.3277,4.4978,4.4978,4.5086,4.5247,4.5086,4.4852,4.4631,4.4592,4.4686,4.4797,4.4814,4.5086,4.5524,5.65,5.65,5.65,5.6511,5.6503,5.6503,5.6503,5.6503,5.6503,5.6503,5.6437,5.6407,5.6407,5.4879,5.3854,5.3854,5.2343,5.1394,5.1394,5.1375,5.1356,5.1394,5.13,5.123,5.1181,5.1386,5.1629,5.1943,5.1959,5.21,5.2347,5.2854,5.3118,5.321,5.3697,5.3424,5.2598,5.2514,5.1851,5.079,5.0784,5.0644,5.0412,5.0478,5.0478,5.0457,5.05,5.0457,5.0416,5.0438,5.0412,5.0348,5.0348,5.0325,5.0302,5.0255,5.0163,5.0012,4.9627,4.948,4.9265,4.8402,4.752,4.6805,4.6685,4.6266,4.5998,4.6463,4.631,4.6086,4.6101,4.5479,4.4857,4.4425,4.1805,3.9759,3.9419,3.6887,3.5352,3.6171,3.5911,3.6689,3.9343,3.9503,3.952,3.9708,4.0026,0.0,3.9382,3.9648,4.0181,4.0853,4.0888,4.084,4.0697,4.0502,4.0288,4.007,4.0426,4.1187,4.2303,4.2642,4.36,4.4978,4.494,4.5032,4.5177,4.4978,4.4886,4.4776,4.472,4.4831,4.4978,4.4978,4.514,4.5524,5.6503,5.6488,5.6508,5.6511,5.6503,5.6503,5.6503,5.6483,5.6483,5.6483,5.6437,5.6378,5.6378,5.4885,5.394,5.4076,5.2556,5.1531,5.1414,5.1508,5.1589,5.1583,5.1654,5.169,5.1682,5.2208,5.2809,5.3485,5.3532,5.363,5.3779,5.3954,5.3992,5.3911,5.4048,5.3541,5.2606,5.2606,5.1919,5.0855,5.0956,5.0769,5.0438,5.0478,5.0457,5.039,5.0412,5.0367,5.0302,5.0367,5.0348,5.0302,5.0302,5.0302,5.0302,5.0302,5.0255,5.0163,4.9898,4.9759,4.9469,4.8527,4.7364,4.6359,4.5989,4.528,4.4889,4.563,4.5237,4.4975,4.5652,4.5246,4.4635,4.415,4.2106,4.0363,3.9716,0.0,3.6809,3.8487,3.8734,3.9541,4.1481,4.1692,4.1648,4.1604,4.1471,4.1318,4.1209,4.1123,4.1047,4.0871,4.0888,4.084,4.0648,4.0436,4.0238,4.0087,4.0849,4.1593,4.232,4.3064,4.399,4.4978,4.4886,4.4923,4.514,4.4886,4.4776,4.4776,4.4682,4.4776,4.4978,4.4978,4.514,4.5595,5.6496,5.65,5.6511,5.6503,5.6503,5.6503,5.6503,5.6446,5.6417,5.6417,5.6358,5.6314,5.6314,5.4819,5.4103,5.4849,5.3436,5.2195,5.1453,5.2035,5.2402,5.2402,5.3109,5.3474,5.3409,5.3386,5.3404,5.3429,5.3429,5.3499,5.3647,5.4405,5.444,5.3931,5.4671,5.4106,5.2606,5.2606,5.1999,5.1049,5.0951,5.0784,5.0567,5.0523,5.0416,5.0325,5.039,5.0367,5.0302,5.0302,5.0302,5.0302,5.0302,5.0302,5.0302,5.0302,5.0302,5.0255,5.0108,4.9646,4.8968,4.7961,4.7297,4.6629,4.558,4.5224,4.5047,4.4854,4.4714,4.4507,4.4007,4.381,4.2864,4.0185,3.7828,3.6305,3.6179,0.0,3.6168,3.8798,4.0446,4.1534,4.2127,4.1977,4.1805,4.1604,4.1471,4.1318,4.1209,4.1123,4.1047,4.0871,4.0888,4.0776,4.0534,4.0485,4.032,4.0087,4.0849,4.1593,4.232,4.3064,4.399,4.4978,4.4886,4.4886,4.5032,4.4886,4.472,4.4626,4.472,4.4886,4.4978,4.4978,4.5086,4.54,5.6504,5.6491,5.6496,5.65,5.6492,5.6503,5.6503,5.6446,5.6417,5.6446,5.6407,5.6356,5.6347,5.5289,5.4717,5.513,5.408,5.3229,5.2839,5.3103,5.3306,5.3299,5.3641,5.4042,5.45,5.4449,5.4618,5.5022,5.5029,5.5046,5.5111,5.5093,5.4899,5.4593,5.4535,5.3794,5.2606,5.2606,5.2028,5.1093,5.0951,5.0784,5.0586,5.0481,5.039,5.0302,5.0344,5.0325,5.0302,5.0302,5.0302,5.0302,5.0302,4.9996,4.9729,5.0168,5.0255,5.0182,5.0108,4.9428,4.8577,4.7965,4.694,4.577,4.4869,4.4297,4.3942,4.4044,4.3685,4.3375,4.3531,4.3167,4.2091,3.9771,3.8185,0.0,0.0,3.7506,3.8205,4.0816,4.1809,4.2351,4.245,4.2103,4.1849,4.1736,4.1453,4.1226,4.1152,4.1029,4.0982,4.0888,4.084,4.068,4.0485,4.0436,4.0288,4.0087,4.1238,4.1965,4.2337,4.3613,4.4436,4.4978,4.4886,4.4886,4.4978,4.4793,4.4626,4.4626,4.4737,4.4886,4.4978,4.4978,4.5086,4.54,5.6509,5.6497,5.6498,5.6496,5.65,5.6492,5.6503,5.6446,5.6427,5.6465,5.6407,5.6386,5.6388,5.5666,5.5263,5.5485,5.4745,5.4369,5.4596,5.4541,5.441,5.4188,5.4315,5.4702,5.5385,5.5404,5.5735,5.6427,5.6427,5.6417,5.6398,5.5578,5.51,5.4866,5.3989,5.3112,5.2294,5.2294,5.1842,5.1139,5.1024,5.0848,5.0625,5.0525,5.0393,5.0302,5.0302,5.0302,5.0302,5.0302,5.0302,5.0264,5.0073,4.9595,4.9175,4.9595,4.9659,4.9638,4.9993,4.9299,4.8334,4.7924,4.6551,4.5119,4.4307,4.3524,4.3029,4.335,4.2844,4.2507,4.3161,4.2762,4.1716,3.995,0.0,0.0,0.0,3.9372,3.9985,4.2456,4.2688,4.2649,4.2609,4.2228,4.1934,4.1823,4.1453,4.118,4.1093,4.0982,4.0888,4.0888,4.0793,4.0697,4.0485,4.0387,4.0323,4.0358,4.1677,4.2388,4.2608,4.4109,4.4831,4.4923,4.4831,4.4886,4.494,4.4682,4.4587,4.4643,4.4776,4.494,4.4978,4.5032,4.5086,4.5363,5.6509,5.6497,5.6498,5.6496,5.6496,5.6508,5.6511,5.6446,5.6397,5.6416,5.6345,5.6314,5.6314,5.5587,5.5449,5.6325,5.5605,5.548,5.6352,5.6347,5.5918,5.5041,5.5725,5.6181,5.631,5.6291,5.6359,5.6483,5.6483,5.6483,5.6464,5.5606,5.4768,5.397,5.3073,5.2216,5.1398,5.1398,5.1351,5.1284,5.121,5.1024,5.0778,5.0718,5.0525,5.0302,5.0302,5.0302,5.0302,5.0302,5.0302,5.0168,4.9423,4.9137,4.8945,4.82,4.7968,4.8289,4.9714,4.9359,4.8367,4.7494,4.644,4.5375,4.4278,4.3664,4.3266,4.292,4.2552,4.2305,4.2399,4.2323,4.1538,3.9254,0.0,0.0,3.8897,3.892,3.9819,4.2322,4.2706,4.2745,4.2609,4.2409,4.2121,4.1823,4.1453,4.118,4.1093,4.0982,4.0888,4.0888,4.0888,4.0776,4.0485,4.0485,4.0678,4.1136,4.1914,4.2658,4.3352,4.4347,4.4776,4.4831,4.4776,4.4776,4.4776,4.4682,4.4587,4.4643,4.4886,4.4978,4.5032,4.514,4.5157,4.5323,5.6558,5.6523,5.6498,5.6491,5.6496,5.6492,5.6446,5.6417,5.6406,5.6406,5.6345,5.6314,5.6358,5.609,5.6074,5.6468,5.6191,5.6185,5.6567,5.6577,5.6342,5.5882,5.6139,5.6309,5.6336,5.6377,5.6417,5.6446,5.6483,5.6503,5.6464,5.5041,5.4223,5.3833,5.243,5.1612,5.13,5.13,5.13,5.1284,5.1042,5.0884,5.0774,5.0547,5.0374,5.0302,5.0302,5.0302,5.0302,5.0302,5.0302,5.0168,4.9347,4.8735,4.8124,4.7264,4.7379,4.8044,4.9162,4.8332,4.7036,4.6682,4.5779,4.4786,4.4141,4.3693,4.3301,4.2867,4.2555,4.2287,4.2287,4.2287,4.168,3.9807,0.0,4.0628,3.9629,4.042,4.1504,4.2501,4.2706,4.2783,4.2745,4.2512,4.2169,4.1788,4.148,4.1226,4.0982,4.0935,4.0888,4.0888,4.0888,4.084,4.0648,4.0436,4.0712,4.1359,4.2001,4.2692,4.3436,4.4473,4.4886,4.4776,4.4886,4.4886,4.4776,4.4626,4.4626,4.4737,4.494,4.5015,4.5089,4.5103,4.5206,4.5323,5.6606,5.6548,5.6511,5.6504,5.6496,5.6483,5.6417,5.6407,5.6386,5.6375,5.6345,5.6356,5.6398,5.6414,5.6452,5.6501,5.6502,5.6521,5.6563,5.6558,5.6471,5.6339,5.6302,5.6304,5.6302,5.6345,5.623,5.5989,5.6047,5.592,5.5617,5.4176,5.3494,5.3424,5.1963,5.13,5.13,5.13,5.13,5.1284,5.0998,5.0855,5.0758,5.0507,5.0352,5.0302,5.0302,5.0302,5.0302,5.0302,5.0302,5.0168,4.9347,4.8315,4.7341,4.6997,4.6959,4.7207,4.8048,4.7091,4.5968,4.6455,4.5712,4.4758,4.4293,4.3758,4.3318,4.3032,4.2616,4.2287,4.2287,4.2287,4.193,4.0842,4.1573,4.1895,4.0806,4.1707,4.2486,4.2548,4.2627,4.2706,4.2745,4.2512,4.221,4.1856,4.1569,4.1244,4.0935,4.0888,4.0888,4.0888,4.0888,4.084,4.0697,4.0502,4.0831,4.1698,4.2102,4.2811,4.3792,4.4593,4.4886,4.472,4.4886,4.4886,4.472,4.4682,4.4737,4.4831,4.4978,4.5106,4.5125,4.5192,4.5275,4.5323,5.6606,5.6558,5.6503,5.6504,5.6503,5.648,5.6417,5.6407,5.6375,5.6314,5.6356,5.6406,5.6406,5.6456,5.6488,5.6503,5.6481,5.6481,5.6482,5.6425,5.6386,5.6386,5.6325,5.6285,5.6283,5.6283,5.5886,5.5082,5.5082,5.4655,5.3779,5.2981,5.2609,5.2567,5.169,5.13,5.13,5.13,5.13,5.1292,5.115,5.0978,5.0793,5.0643,5.0464,5.0302,5.0283,5.0283,5.0283,5.0283,5.0283,5.0149,4.9328,4.7895,4.6672,4.7532,4.6596,4.5468,4.629,4.5821,4.5479,4.6992,4.6531,4.5472,4.4684,4.3918,4.3406,4.3406,4.2808,4.2287,4.2287,4.2287,4.2287,4.2287,4.2287,4.2287,4.2287,4.2287,4.2346,4.2503,4.2503,4.2544,4.2609,4.2409,4.2246,4.2103,4.1675,4.1244,4.0935,4.0888,4.0888,4.0888,4.0888,4.084,4.0697,4.0583,4.1137,4.2286,4.2303,4.3098,4.457,4.4737,4.4737,4.4643,4.4737,4.472,4.4626,4.4737,4.4776,4.4831,4.5086,4.5159,4.5125,4.5333,4.54,4.5377,5.6536,5.6504,5.651,5.6503,5.6508,5.6483,5.6407,5.6388,5.6377,5.6317,5.6353,5.6406,5.6406,5.6417,5.6457,5.6501,5.5944,5.5351,5.4789,5.4689,5.4651,5.4656,5.513,5.5087,5.449,5.4521,5.4427,5.4187,5.4188,5.4071,5.3844,5.3007,5.2598,5.2567,5.169,5.13,5.13,5.13,5.13,5.1284,5.0998,5.0855,5.0758,5.0488,5.0352,5.0225,4.9652,4.9461,4.9461,4.9461,4.9461,4.9308,4.8468,4.7016,4.5698,4.5965,4.5679,4.5468,4.629,4.624,4.5893,4.5697,4.5318,4.4907,4.4599,4.414,4.3744,4.3474,4.2996,4.2577,4.2351,4.2287,4.2287,4.2287,4.2287,4.2287,4.2287,4.2287,4.2346,4.2503,4.2503,4.2503,4.2526,4.2486,4.2282,4.1909,4.1426,4.1076,4.0935,4.0888,4.0888,4.0888,4.0888,4.0776,4.0534,4.1015,4.1665,4.2479,4.2881,4.3606,4.457,4.4737,4.4737,4.4643,4.4737,4.4793,4.472,4.4776,4.494,4.5086,4.5177,4.523,4.5318,4.5383,4.5192,4.481,5.6498,5.6218,5.6086,5.6437,5.5935,5.5676,5.63,5.6106,5.5998,5.6302,5.6375,5.6407,5.6407,5.6398,5.6414,5.647,5.5697,5.4862,5.4053,5.3942,5.3754,5.3396,5.3789,5.3938,5.3744,5.3775,5.3622,5.3292,5.3293,5.3136,5.2862,5.2317,5.2091,5.206,5.1534,5.13,5.13,5.13,5.13,5.1284,5.1011,5.0918,5.087,5.0567,5.0189,4.9844,4.9296,4.8869,4.8582,4.8582,4.8582,4.8487,4.7971,4.6882,4.5774,4.5774,4.5545,4.5411,4.5889,4.5935,4.5665,4.5052,4.5041,4.5055,4.4599,4.4218,4.3892,4.3474,4.3069,4.2714,4.2351,4.2287,4.2287,4.2287,4.2287,4.2287,4.2287,4.2287,4.2328,4.2405,4.2405,4.2405,4.2405,4.2405,4.2222,4.1736,4.1453,4.1198,4.0935,4.0888,4.0888,4.0888,4.084,4.0882,4.0929,4.1714,4.2228,4.2426,4.3064,4.3826,4.457,4.4682,4.4682,4.457,4.4682,4.4737,4.4776,4.4831,4.4978,4.5194,4.5247,4.5318,4.5388,4.5383,4.514,4.4761,5.6457,5.5853,5.5572,5.6352,5.5186,5.4643,5.6164,5.5735,5.5512,5.6299,5.6398,5.6417,5.6407,5.6398,5.6398,5.6398,5.5586,5.4705,5.3822,5.3707,5.3325,5.2513,5.2433,5.2777,5.3565,5.3574,5.3176,5.2378,5.2378,5.2028,5.1295,5.1295,5.1304,5.13,5.13,5.13,5.13,5.13,5.13,5.1292,5.115,5.1054,5.092,5.0619,4.9933,4.9144,4.8939,4.8353,4.7685,4.7685,4.7685,4.7685,4.7685,4.7092,4.6385,4.6385,4.587,4.5297,4.5297,4.5213,4.508,4.4919,4.5344,4.5572,4.4693,4.4248,4.3923,4.356,4.3177,4.2772,4.2414,4.2351,4.231,4.2287,4.2287,4.2287,4.2287,4.2287,4.2287,4.2287,4.2287,4.2287,4.2287,4.2287,4.2121,4.1692,4.164,4.1463,4.0965,4.0935,4.0871,4.0871,4.0814,4.1028,4.1562,4.2501,4.274,4.2405,4.3166,4.3893,4.4587,4.4587,4.4587,4.4587,4.4626,4.4682,4.4831,4.4978,4.5086,4.523,4.5371,4.5423,4.5388,4.5421,4.5264,4.5074,5.6275,5.6252,5.6277,5.6472,5.6199,5.6046,5.6359,5.627,5.6251,5.6377,5.6461,5.6457,5.6407,5.6405,5.6398,5.6402,5.5033,5.3554,5.2069,5.1952,5.182,5.1581,5.1609,5.1698,5.1849,5.1794,5.1707,5.155,5.155,5.1471,5.1292,5.1292,5.1292,5.13,5.13,5.13,5.13,5.13,5.13,5.1292,5.115,5.0636,4.9906,4.966,4.8989,4.8037,4.7324,4.694,4.6787,4.6787,4.6787,4.6787,4.6787,4.6214,4.5564,4.5564,4.543,4.5297,4.5297,4.5275,4.5192,4.4943,4.5003,4.5023,4.4589,4.444,4.4277,4.3955,4.3809,4.3526,4.281,4.2675,4.2616,4.2351,4.2287,4.2287,4.2287,4.2287,4.2287,4.2287,4.2287,4.2287,4.2287,4.2139,4.2055,4.1995,4.1569,4.1255,4.1117,4.1012,4.084,4.0745,4.1263,4.1542,4.1444,4.2754,4.3365,4.3183,4.4164,4.4606,4.4587,4.4587,4.4587,4.4643,4.4737,4.4831,4.4995,4.5086,4.5247,4.5371,4.5371,4.5423,4.5388,4.5421,4.5369,4.53,5.5569,5.5306,5.5141,5.5111,5.484,5.4907,5.5658,5.5813,5.5969,5.6358,5.6422,5.6439,5.6405,5.6391,5.6074,5.5233,5.4401,5.3165,5.1457,5.1386,5.1366,5.1301,5.1366,5.1374,5.13,5.1276,5.1248,5.1304,5.1304,5.1312,5.13,5.13,5.13,5.13,5.13,5.13,5.13,5.13,5.13,5.1292,5.1211,5.0592,4.9672,4.9473,4.8529,4.724,4.6696,4.6252,4.5927,4.5906,4.5906,4.5927,4.5906,4.5579,4.5275,4.5297,4.5275,4.5275,4.5297,4.5235,4.517,4.4991,4.4846,4.4693,4.4496,4.444,4.4354,4.3968,4.3892,4.3646,4.2903,4.2903,4.2903,4.2573,4.2516,4.2555,4.2555,4.2391,4.2287,4.2287,4.2287,4.2287,4.2287,4.2282,4.2157,4.1995,4.1744,4.148,4.1152,4.1088,4.1121,4.1212,4.1557,4.1937,4.2447,4.3299,4.3824,4.3978,4.4533,4.4737,4.4587,4.4587,4.4626,4.4682,4.4776,4.494,4.5086,4.5177,4.53,4.5423,4.5423,4.5423,4.5371,4.5422,4.5405,4.5405,5.4987,5.442,5.4019,5.3845,5.3366,5.3478,5.4868,5.5103,5.5405,5.6299,5.6277,5.6186,5.6191,5.6032,5.5314,5.3728,5.3635,5.2981,5.1381,5.1351,5.1355,5.1286,5.1361,5.1378,5.13,5.13,5.13,5.13,5.13,5.13,5.13,5.13,5.13,5.13,5.1292,5.13,5.13,5.1292,5.13,5.13,5.1295,5.0705,4.9753,4.9427,4.8246,4.6741,4.6412,4.587,4.5256,4.5213,4.5213,4.5275,4.5213,4.5192,4.5192,4.5256,4.5254,4.5192,4.5235,4.5192,4.508,4.4967,4.477,4.4578,4.4383,4.4354,4.4277,4.3968,4.3841,4.3612,4.2995,4.3069,4.3142,4.277,4.2732,4.2734,4.2714,4.2516,4.2351,4.2287,4.2287,4.2287,4.2328,4.2364,4.2282,4.1952,4.1909,4.1719,4.1233,4.1152,4.1324,4.1728,4.1783,4.2347,4.3549,4.3897,4.4235,4.4626,4.4626,4.4587,4.4587,4.4626,4.4682,4.4776,4.4831,4.4978,4.5177,4.523,4.53,4.5423,4.5423,4.5423,4.5423,4.5423,4.5423,4.5388,5.5516,5.5556,5.542,5.4827,5.466,5.4699,5.5052,5.5102,5.5404,5.6289,5.5786,5.5333,5.5277,5.4591,5.3758,5.2753,5.2684,5.2263,5.1277,5.1333,5.1346,5.1226,5.1323,5.1378,5.13,5.13,5.13,5.13,5.13,5.13,5.13,5.13,5.13,5.13,5.1304,5.1304,5.13,5.1304,5.1304,5.13,5.1295,5.0695,4.971,4.8793,4.7733,4.6589,4.576,4.5371,4.5213,4.5192,4.517,4.5148,4.5192,4.517,4.5125,4.5192,4.517,4.5125,4.5125,4.5125,4.5038,4.4796,4.4712,4.4605,4.4304,4.4255,4.4314,4.4237,4.4226,4.4067,4.3646,4.3318,4.3032,4.2732,4.2652,4.2552,4.2391,4.2534,4.2573,4.2328,4.2287,4.2346,4.2463,4.2216,4.2174,4.2382,4.1666,4.1307,4.1515,4.1059,4.104,4.1596,4.2228,4.2822,4.3403,4.4135,4.458,4.4776,4.4626,4.4587,4.457,4.4737,4.4776,4.4831,4.5032,4.5194,4.5194,4.5318,4.5371,4.5423,4.5423,4.5423,4.5423,4.5423,4.5423,4.5371,5.4917,5.4955,5.4651,5.3395,5.37,5.4134,5.4194,5.4684,5.5361,5.6224,5.6037,5.5619,5.5143,5.4365,5.3506,5.2631,5.2562,5.2173,5.1259,5.1278,5.133,5.1258,5.1305,5.1347,5.1359,5.132,5.13,5.13,5.13,5.13,5.13,5.13,5.1292,5.1304,5.1304,5.1276,5.1248,5.1276,5.1304,5.1304,5.1295,5.0413,4.9019,4.845,4.7311,4.5898,4.539,4.517,4.5148,4.5103,4.5103,4.5103,4.5103,4.508,4.5057,4.5125,4.5103,4.5038,4.5103,4.5103,4.5061,4.4895,4.4745,4.4605,4.4401,4.4255,4.4147,4.4226,4.4177,4.4036,4.3642,4.3437,4.323,4.2867,4.2865,4.2752,4.2458,4.2577,4.2595,4.2328,4.2287,4.2328,4.2387,4.2181,4.2097,4.2216,4.171,4.1353,4.1307,4.138,4.1626,4.2108,4.2805,4.3501,4.4062,4.4512,4.4682,4.4682,4.4682,4.4737,4.4737,4.4776,4.4831,4.494,4.514,4.5247,4.5318,4.5371,4.5423,4.5423,4.5423,4.5423,4.5423,4.5423,4.5423,4.5423]},{"header":{"parameterUnit":"m.s-1","parameterCategory":1,"la1":30.6,"la2":28.766,"lo1":-90.7593,"lo2":-88.6598,"dy":0.0162,"dx":0.0183,"nx":116,"ny":114,"refTime":"2023-04-25T18:00:00:Z","depth":0,"parameterNumber":3,"parameterNumberName":"V-component_of_WINDS"},"data":[0.0,0.0,0.0,0.0,0.0,0.0,0.0,0.0,0.0,0.0,0.0,0.0,0.0,0.0,0.0,0.0,0.0,0.0,0.0,0.0,0.0,0.0,0.0,0.0,0.0,0.0,0.0,0.0,0.0,0.0,0.0,0.0,0.0,0.0,0.0,0.0,0.0,0.0,0.0,0.0,0.0,0.0,0.0,0.0,0.0,0.0,0.0,0.0,0.0,0.0,0.0,0.0,0.0,0.0,0.0,0.0,0.0,0.0,0.0,0.0,0.0,0.0,0.0,0.0,0.0,0.0,0.0,0.0,0.0,0.0,0.0,0.0,0.0,0.0,0.0,0.0,0.0,0.0,0.0,0.0,0.0,0.0,0.0,0.0,0.0,0.0,0.0,0.0,0.0,0.0,0.0,0.0,0.0,0.0,0.0,0.0,0.0,0.0,0.0,0.0,0.0,0.0,0.0,0.0,0.0,0.0,0.0,0.0,0.0,0.0,0.0,0.0,0.0,0.0,0.0,0.0,0.0,0.0,0.0,0.0,0.0,0.0,0.0,0.0,0.0,0.0,0.0,0.0,0.0,0.0,0.0,0.0,0.0,0.0,0.0,0.0,0.0,0.0,0.0,0.0,0.0,0.0,0.0,0.0,0.0,0.0,0.0,0.0,0.0,0.0,0.0,0.0,0.0,0.0,0.0,0.0,0.0,0.0,0.0,0.0,0.0,0.0,0.0,0.0,0.0,0.0,0.0,0.0,0.0,0.0,0.0,0.0,0.0,0.0,0.0,0.0,0.0,0.0,0.0,0.0,0.0,0.0,0.0,0.0,0.0,0.0,0.0,0.0,0.0,0.0,0.0,0.0,0.0,0.0,0.0,0.0,0.0,0.0,0.0,0.0,0.0,0.0,0.0,0.0,0.0,0.0,0.0,0.0,0.0,0.0,0.0,0.0,0.0,0.0,0.0,0.0,0.0,0.0,0.0,0.0,0.0,0.0,0.0,0.0,0.0,0.0,0.0,0.0,0.0,0.0,0.0,0.0,0.0,0.0,0.0,0.0,0.0,0.0,0.0,0.0,0.0,0.0,0.0,0.0,0.0,0.0,0.0,0.0,0.0,0.0,0.0,0.0,0.0,0.0,0.0,0.0,0.0,0.0,0.0,0.0,0.0,0.0,0.0,0.0,0.0,0.0,0.0,0.0,0.0,0.0,0.0,0.0,0.0,0.0,0.0,0.0,0.0,0.0,0.0,0.0,0.0,0.0,0.0,0.0,0.0,0.0,0.0,0.0,0.0,0.0,0.0,0.0,0.0,0.0,0.0,0.0,0.0,0.0,0.0,0.0,0.0,0.0,0.0,0.0,0.0,0.0,0.0,0.0,0.0,0.0,0.0,0.0,0.0,0.0,0.0,0.0,0.0,0.0,0.0,0.0,0.0,0.0,0.0,0.0,0.0,0.0,0.0,0.0,0.0,0.0,0.0,0.0,0.0,0.0,0.0,0.0,0.0,0.0,0.0,0.0,0.0,0.0,0.0,0.0,0.0,0.0,0.0,0.0,0.0,0.0,0.0,0.0,0.0,0.0,0.0,0.0,0.0,0.0,0.0,0.0,0.0,0.0,0.0,0.0,0.0,0.0,0.0,0.0,0.0,0.0,0.0,0.0,0.0,0.0,0.0,0.0,0.0,0.0,0.0,0.0,0.0,0.0,0.0,0.0,0.0,0.0,0.0,0.0,0.0,0.0,0.0,0.0,0.0,0.0,0.0,0.0,0.0,0.0,0.0,0.0,0.0,0.0,0.0,0.0,0.0,0.0,0.0,0.0,0.0,0.0,0.0,0.0,0.0,0.0,0.0,0.0,0.0,0.0,0.0,0.0,0.0,0.0,0.0,0.0,0.0,0.0,0.0,0.0,0.0,0.0,0.0,0.0,0.0,0.0,0.0,0.0,0.0,0.0,0.0,0.0,0.0,0.0,0.0,0.0,0.0,0.0,0.0,0.0,0.0,0.0,0.0,0.0,0.0,0.0,0.0,0.0,0.0,0.0,0.0,0.0,0.0,0.0,0.0,0.0,0.0,0.0,0.0,0.0,0.0,0.0,0.0,0.0,0.0,0.0,0.0,0.0,0.0,0.0,0.0,0.0,0.0,0.0,0.0,0.0,0.0,0.0,0.0,0.0,0.0,0.0,0.0,0.0,0.0,0.0,0.0,0.0,0.0,0.0,0.0,0.0,0.0,0.0,0.0,0.0,0.0,0.0,0.0,0.0,0.0,0.0,0.0,0.0,0.0,0.0,0.0,0.0,0.0,0.0,0.0,0.0,0.0,0.0,0.0,0.0,0.0,0.0,0.0,0.0,0.0,0.0,0.0,0.0,0.0,0.0,0.0,0.0,0.0,0.0,0.0,0.0,0.0,0.0,0.0,0.0,0.0,0.0,0.0,0.0,0.0,0.0,0.0,0.0,0.0,0.0,0.0,0.0,0.0,0.0,0.0,0.0,0.0,0.0,0.0,0.0,0.0,0.0,0.0,0.0,0.0,0.0,0.0,0.0,0.0,0.0,0.0,0.0,0.0,0.0,0.0,0.0,0.0,0.0,0.0,0.0,0.0,0.0,0.0,0.0,0.0,0.0,0.0,0.0,0.0,0.0,0.0,0.0,0.0,0.0,0.0,0.0,0.0,0.0,0.0,0.0,0.0,0.0,0.0,0.0,0.0,0.0,0.0,0.0,0.0,0.0,0.0,0.0,0.0,0.0,0.0,0.0,0.0,0.0,0.0,0.0,0.0,0.0,0.0,0.0,0.0,0.0,0.0,0.0,0.0,0.0,0.0,0.0,0.0,0.0,0.0,0.0,0.0,0.0,0.0,0.0,0.0,0.0,0.0,0.0,0.0,0.0,0.0,0.0,0.0,0.0,0.0,0.0,0.0,0.0,0.0,0.0,0.0,0.0,0.0,0.0,0.0,0.0,0.0,0.0,0.0,0.0,0.0,0.0,0.0,0.0,0.0,0.0,0.0,0.0,0.0,0.0,0.0,0.0,0.0,0.0,0.0,0.0,0.0,0.0,0.0,0.0,0.0,0.0,0.0,0.0,0.0,0.0,0.0,0.0,0.0,0.0,0.0,0.0,0.0,0.0,0.0,0.0,0.0,0.0,0.0,0.0,0.0,0.0,0.0,0.0,0.0,0.0,0.0,0.0,0.0,0.0,0.0,0.0,0.0,0.0,0.0,0.0,0.0,0.0,0.0,0.0,0.0,0.0,0.0,0.0,0.0,0.0,0.0,0.0,0.0,0.0,0.0,0.0,0.0,0.0,0.0,0.0,0.0,0.0,0.0,0.0,0.0,0.0,0.0,0.0,0.0,0.0,0.0,0.0,0.0,0.0,0.0,0.0,0.0,0.0,0.0,0.0,0.0,0.0,0.0,0.0,0.0,0.0,0.0,0.0,0.0,0.0,0.0,0.0,0.0,0.0,0.0,0.0,0.0,0.0,0.0,0.0,0.0,0.0,0.0,0.0,0.0,0.0,0.0,0.0,0.0,0.0,0.0,0.0,0.0,0.0,0.0,0.0,0.0,0.0,0.0,0.0,0.0,0.0,0.0,0.0,0.0,0.0,0.0,0.0,0.0,0.0,0.0,0.0,0.0,0.0,0.0,0.0,0.0,0.0,0.0,0.0,0.0,0.0,0.0,0.0,0.0,0.0,0.0,0.0,0.0,0.0,0.0,0.0,0.0,0.0,0.0,0.0,0.0,0.0,0.0,0.0,0.0,0.0,0.0,0.0,0.0,0.0,0.0,0.0,0.0,0.0,0.0,0.0,0.0,0.0,0.0,0.0,0.0,0.0,0.0,0.0,0.0,0.0,0.0,0.0,0.0,0.0,0.0,0.0,0.0,0.0,0.0,0.0,0.0,0.0,0.0,0.0,0.0,0.0,0.0,0.0,0.0,0.0,0.0,0.0,0.0,0.0,0.0,0.0,0.0,0.0,0.0,0.0,0.0,0.0,0.0,0.0,0.0,0.0,0.0,0.0,0.0,0.0,0.0,0.0,0.0,0.0,0.0,0.0,0.0,0.0,0.0,0.0,0.0,0.0,0.0,0.0,0.0,0.0,0.0,0.0,0.0,0.0,0.0,0.0,0.0,0.0,0.0,0.0,0.0,0.0,0.0,0.0,0.0,0.0,0.0,0.0,0.0,0.0,0.0,0.0,0.0,0.0,0.0,0.0,0.0,0.0,0.0,0.0,0.0,0.0,0.0,0.0,0.0,0.0,0.0,0.0,0.0,0.0,0.0,0.0,0.0,0.0,0.0,0.0,0.0,0.0,0.0,0.0,0.0,0.0,0.0,0.0,0.0,0.0,0.0,0.0,0.0,0.0,0.0,0.0,0.0,0.0,0.0,0.0,0.0,0.0,0.0,0.0,0.0,0.0,0.0,0.0,0.0,0.0,0.0,0.0,0.0,0.0,0.0,0.0,0.0,0.0,0.0,0.0,0.0,0.0,0.0,0.0,0.0,0.0,0.0,0.0,0.0,0.0,0.0,0.0,0.0,0.0,0.0,0.0,0.0,0.0,0.0,0.0,0.0,0.0,0.0,0.0,0.0,0.0,0.0,0.0,0.0,0.0,0.0,0.0,0.0,0.0,0.0,0.0,0.0,0.0,0.0,0.0,0.0,0.0,0.0,0.0,0.0,0.0,0.0,0.0,0.0,0.0,0.0,0.0,0.0,0.0,0.0,0.0,0.0,0.0,0.0,0.0,0.0,0.0,0.0,0.0,0.0,0.0,0.0,0.0,0.0,0.0,0.0,0.0,0.0,0.0,0.0,0.0,0.0,0.0,0.0,0.0,0.0,0.0,0.0,0.0,0.0,0.0,0.0,0.0,0.0,0.0,0.0,0.0,0.0,0.0,0.0,0.0,0.0,0.0,0.0,0.0,0.0,0.0,0.0,0.0,0.0,0.0,0.0,0.0,0.0,0.0,0.0,0.0,0.0,0.0,0.0,0.0,0.0,0.0,0.0,0.0,0.0,0.0,0.0,0.0,0.0,0.0,0.0,0.0,0.0,0.0,0.0,0.0,0.0,0.0,0.0,0.0,0.0,0.0,0.0,0.0,0.0,0.0,0.0,0.0,0.0,0.0,0.0,0.0,0.0,0.0,0.0,0.0,0.0,0.0,0.0,0.0,0.0,0.0,0.0,0.0,0.0,0.0,0.0,0.0,0.0,0.0,0.0,0.0,0.0,0.0,0.0,0.0,0.0,0.0,0.0,0.0,0.0,0.0,0.0,0.0,0.0,0.0,0.0,0.0,0.0,0.0,0.0,0.0,0.0,0.0,0.0,0.0,0.0,0.0,0.0,0.0,0.0,0.0,0.0,0.0,0.0,0.0,0.0,0.0,0.0,0.0,0.0,0.0,0.0,0.0,0.0,0.0,0.0,0.0,0.0,0.0,0.0,0.0,0.0,0.0,0.0,0.0,0.0,0.0,0.0,0.0,0.0,0.0,0.0,0.0,0.0,0.0,0.0,0.0,0.0,0.0,0.0,0.0,0.0,0.0,0.0,0.0,0.0,0.0,0.0,0.0,0.0,0.0,0.0,0.0,0.0,0.0,0.0,0.0,0.0,0.0,0.0,0.0,0.0,0.0,0.0,0.0,0.0,0.0,0.0,0.0,0.0,0.0,0.0,0.0,0.0,0.0,0.0,0.0,0.0,0.0,0.0,0.0,0.0,0.0,0.0,0.0,0.0,0.0,0.0,0.0,0.0,0.0,0.0,0.0,0.0,0.0,0.0,0.0,0.0,0.0,0.0,0.0,0.0,0.0,0.0,0.0,0.0,0.0,0.0,0.0,0.0,0.0,0.0,0.0,0.0,0.0,0.0,0.0,0.0,0.0,0.0,0.0,0.0,0.0,0.0,0.0,0.0,0.0,0.0,0.0,0.0,0.0,0.0,0.0,0.0,0.0,0.0,0.0,0.0,0.0,0.0,0.0,0.0,0.0,0.0,0.0,0.0,0.0,0.0,0.0,0.0,0.0,0.0,0.0,0.0,0.0,0.0,0.0,0.0,0.0,0.0,0.0,0.0,0.0,0.0,0.0,0.0,0.0,0.0,0.0,0.0,0.0,0.0,0.0,-1.7789,0.0,0.0,0.0,0.0,0.0,0.0,0.0,0.0,0.0,0.0,0.0,0.0,0.0,0.0,0.0,0.0,0.0,0.0,0.0,0.0,0.0,0.0,0.0,0.0,0.0,0.0,0.0,0.0,0.0,0.0,0.0,0.0,0.0,0.0,0.0,0.0,0.0,0.0,0.0,0.0,0.0,0.0,0.0,0.0,0.0,0.0,0.0,0.0,0.0,0.0,0.0,0.0,0.0,0.0,0.0,0.0,0.0,0.0,0.0,0.0,0.0,0.0,0.0,0.0,0.0,0.0,0.0,0.0,0.0,0.0,0.0,0.0,0.0,0.0,0.0,0.0,0.0,0.0,0.0,0.0,0.0,0.0,0.0,0.0,0.0,0.0,0.0,0.0,0.0,0.0,0.0,0.0,0.0,0.0,0.0,0.0,0.0,0.0,0.0,0.0,0.0,0.0,0.0,0.0,0.0,0.0,0.0,0.0,0.0,0.0,0.0,0.0,0.0,0.0,0.0,0.0,-1.8868,0.0,0.0,0.0,0.0,0.0,0.0,0.0,0.0,0.0,0.0,0.0,0.0,0.0,0.0,0.0,0.0,0.0,0.0,0.0,0.0,0.0,0.0,0.0,0.0,0.0,0.0,0.0,0.0,0.0,0.0,0.0,0.0,0.0,0.0,0.0,0.0,0.0,0.0,0.0,0.0,0.0,0.0,0.0,0.0,0.0,0.0,0.0,0.0,0.0,0.0,0.0,0.0,0.0,0.0,0.0,0.0,0.0,0.0,0.0,0.0,0.0,0.0,0.0,0.0,0.0,0.0,0.0,0.0,0.0,0.0,0.0,0.0,0.0,0.0,0.0,0.0,0.0,0.0,0.0,0.0,0.0,0.0,0.0,0.0,0.0,0.0,0.0,0.0,0.0,0.0,0.0,0.0,0.0,0.0,0.0,0.0,0.0,0.0,0.0,0.0,0.0,0.0,0.0,0.0,0.0,0.0,0.0,0.0,-2.1121,-2.1176,-2.1146,-2.0873,-2.074,-2.0787,-2.0269,-2.0368,-2.07,-2.0157,0.0,0.0,0.0,0.0,0.0,0.0,0.0,0.0,0.0,0.0,0.0,0.0,0.0,0.0,0.0,0.0,0.0,0.0,0.0,0.0,0.0,0.0,0.0,0.0,0.0,0.0,0.0,0.0,0.0,0.0,0.0,0.0,0.0,0.0,0.0,0.0,0.0,0.0,0.0,0.0,0.0,0.0,0.0,0.0,0.0,0.0,0.0,0.0,0.0,0.0,0.0,0.0,0.0,0.0,0.0,0.0,0.0,0.0,0.0,0.0,0.0,0.0,0.0,0.0,0.0,0.0,0.0,0.0,0.0,0.0,0.0,0.0,0.0,0.0,0.0,0.0,0.0,0.0,0.0,0.0,0.0,0.0,0.0,0.0,0.0,0.0,-2.1051,-2.0186,0.0,0.0,0.0,0.0,0.0,0.0,0.0,0.0,0.0,0.0,0.0,0.0,0.0,-2.0639,-2.1196,-2.0909,-2.1066,-2.1667,-2.1578,-2.1788,-2.2281,-2.2606,-2.2972,-2.3323,-2.3253,0.0,-2.184,-2.1539,0.0,0.0,0.0,0.0,0.0,0.0,0.0,0.0,0.0,0.0,0.0,0.0,0.0,0.0,0.0,0.0,0.0,0.0,0.0,0.0,0.0,0.0,0.0,0.0,0.0,0.0,0.0,0.0,0.0,0.0,0.0,0.0,0.0,0.0,0.0,0.0,0.0,0.0,0.0,0.0,0.0,0.0,0.0,0.0,0.0,0.0,0.0,0.0,0.0,0.0,0.0,0.0,0.0,0.0,0.0,0.0,0.0,0.0,0.0,0.0,0.0,0.0,0.0,0.0,0.0,0.0,0.0,0.0,0.0,0.0,0.0,0.0,0.0,0.0,0.0,0.0,0.0,0.0,0.0,0.0,0.0,0.0,0.0,0.0,0.0,-1.9511,-1.9576,-1.8515,-1.9338,-1.9483,0.0,0.0,0.0,0.0,0.0,0.0,0.0,0.0,0.0,-2.0544,-2.1296,-2.1752,-2.188,-2.2346,-2.2785,-2.3238,-2.323,-2.3493,-2.3924,-2.3624,-2.39,-2.4575,-2.4585,-2.4307,-2.3772,-2.278,-2.2582,-2.2867,0.0,0.0,0.0,0.0,-2.428,-2.4242,0.0,0.0,0.0,0.0,0.0,0.0,0.0,0.0,0.0,0.0,0.0,0.0,0.0,0.0,0.0,0.0,0.0,0.0,0.0,0.0,0.0,0.0,0.0,0.0,0.0,0.0,0.0,0.0,0.0,0.0,0.0,0.0,0.0,0.0,0.0,0.0,0.0,0.0,0.0,0.0,0.0,0.0,0.0,0.0,0.0,0.0,0.0,0.0,0.0,0.0,0.0,0.0,0.0,0.0,0.0,0.0,0.0,0.0,0.0,0.0,0.0,0.0,0.0,0.0,0.0,0.0,0.0,0.0,0.0,0.0,0.0,0.0,0.0,0.0,0.0,0.0,0.0,-1.8785,-1.8892,-1.7503,-1.884,-1.9219,0.0,0.0,0.0,0.0,0.0,0.0,-2.0597,-2.1208,-2.1675,-2.2237,-2.269,-2.3012,-2.3023,-2.3927,-2.45,-2.4745,-2.4844,-2.5017,-2.5321,-2.4636,-2.4746,-2.5412,-2.5351,-2.5341,-2.5279,-2.4179,-2.3913,-2.4213,-2.4426,-2.4791,-2.5217,-2.6094,-2.6396,-2.6314,0.0,0.0,0.0,0.0,0.0,0.0,0.0,0.0,0.0,0.0,0.0,0.0,0.0,0.0,0.0,0.0,0.0,0.0,0.0,0.0,0.0,0.0,0.0,0.0,0.0,0.0,0.0,0.0,0.0,0.0,0.0,0.0,0.0,0.0,0.0,0.0,0.0,0.0,0.0,0.0,0.0,0.0,0.0,0.0,0.0,0.0,0.0,0.0,0.0,0.0,0.0,0.0,0.0,0.0,0.0,0.0,0.0,0.0,0.0,0.0,0.0,0.0,0.0,0.0,0.0,0.0,0.0,0.0,0.0,0.0,0.0,0.0,0.0,0.0,0.0,0.0,0.0,0.0,0.0,-1.8534,-1.9304,0.0,0.0,0.0,0.0,-1.8958,-1.9634,-1.9802,-1.9351,-2.1084,-2.2484,-2.3109,-2.4163,-2.5067,-2.5709,-2.5771,-2.5823,-2.5844,-2.5844,-2.5854,-2.5875,-2.5854,-2.5854,-2.5875,-2.5875,-2.5875,-2.5861,-2.6019,-2.5699,-2.5201,-2.6033,-2.5886,-2.5241,-2.5886,-2.6037,-2.5898,0.0,0.0,0.0,0.0,0.0,0.0,0.0,0.0,0.0,0.0,0.0,0.0,0.0,0.0,0.0,0.0,0.0,0.0,0.0,0.0,0.0,0.0,0.0,0.0,0.0,0.0,0.0,0.0,0.0,0.0,0.0,0.0,0.0,0.0,0.0,0.0,0.0,0.0,0.0,0.0,0.0,0.0,0.0,0.0,0.0,0.0,0.0,0.0,0.0,0.0,0.0,0.0,0.0,0.0,0.0,0.0,0.0,0.0,0.0,0.0,0.0,0.0,0.0,0.0,0.0,0.0,0.0,0.0,0.0,0.0,0.0,0.0,0.0,0.0,0.0,0.0,0.0,0.0,0.0,-1.9204,-2.0498,0.0,-1.9735,-1.9786,-2.0049,-2.0246,-2.1009,-2.1918,-2.3033,-2.4108,-2.5094,-2.5744,-2.616,-2.6235,-2.5875,-2.6175,-2.6146,-2.5869,-2.5859,-2.6011,-2.6286,-2.5991,-2.6197,-2.6765,-2.6765,-2.6765,-2.6796,-2.7149,-2.6617,-2.5785,-2.6595,-2.6852,-2.6804,-2.7537,-2.7876,-2.7975,0.0,0.0,0.0,0.0,0.0,0.0,0.0,0.0,0.0,0.0,0.0,0.0,0.0,0.0,0.0,0.0,0.0,0.0,0.0,0.0,0.0,0.0,0.0,0.0,0.0,0.0,0.0,0.0,0.0,0.0,0.0,0.0,0.0,0.0,0.0,0.0,0.0,0.0,0.0,0.0,0.0,0.0,-1.6684,0.0,0.0,0.0,0.0,0.0,0.0,0.0,0.0,0.0,0.0,0.0,0.0,0.0,0.0,0.0,0.0,0.0,0.0,0.0,0.0,0.0,0.0,0.0,0.0,0.0,0.0,0.0,0.0,0.0,0.0,0.0,0.0,0.0,0.0,0.0,-2.0318,-1.9573,-2.1042,-2.1697,-2.0731,-2.1135,-2.1595,-2.189,-2.2655,-2.366,-2.4997,-2.5925,-2.6576,-2.6986,-2.7158,-2.6971,-2.6341,-2.6651,-2.6619,-2.6337,-2.6327,-2.6489,-2.6774,-2.6459,-2.6679,-2.7262,-2.7262,-2.7262,-2.7326,-2.7564,-2.7165,-2.6493,-2.7314,-2.7847,-2.8245,-2.8773,-2.9234,-2.9523,0.0,0.0,0.0,0.0,0.0,0.0,0.0,0.0,0.0,0.0,0.0,0.0,0.0,0.0,0.0,0.0,0.0,0.0,0.0,0.0,0.0,0.0,0.0,0.0,0.0,0.0,0.0,0.0,0.0,0.0,0.0,0.0,0.0,0.0,0.0,0.0,0.0,0.0,0.0,0.0,0.0,0.0,-1.7509,0.0,0.0,0.0,0.0,0.0,0.0,0.0,0.0,0.0,0.0,0.0,0.0,0.0,0.0,0.0,0.0,0.0,0.0,0.0,0.0,0.0,0.0,0.0,0.0,0.0,0.0,0.0,0.0,0.0,0.0,0.0,0.0,0.0,-1.7833,-1.998,-2.1107,-1.9788,-2.102,-2.1943,-2.2078,-2.2208,-2.2747,-2.3877,-2.4547,-2.4979,-2.4989,-2.6011,-2.6589,-2.6589,-2.7024,-2.7262,-2.7262,-2.7262,-2.7262,-2.7262,-2.7262,-2.7262,-2.7262,-2.7262,-2.7262,-2.7262,-2.7262,-2.7262,-2.7262,-2.7262,-2.7262,-2.7358,-2.8199,-2.8861,-2.947,-2.93,-2.9737,-3.0361,0.0,0.0,0.0,0.0,0.0,0.0,0.0,0.0,0.0,0.0,0.0,0.0,0.0,0.0,0.0,0.0,0.0,0.0,0.0,0.0,0.0,0.0,0.0,0.0,0.0,0.0,0.0,0.0,0.0,0.0,0.0,0.0,0.0,0.0,0.0,0.0,0.0,0.0,0.0,0.0,0.0,0.0,-1.8429,0.0,0.0,0.0,0.0,0.0,0.0,0.0,0.0,0.0,0.0,0.0,0.0,0.0,0.0,0.0,0.0,0.0,0.0,0.0,0.0,0.0,0.0,0.0,0.0,0.0,0.0,0.0,0.0,0.0,0.0,0.0,0.0,-2.0637,-2.0234,-2.104,-2.2082,-2.3031,-2.3773,-2.4372,-2.4815,-2.4856,-2.5155,-2.5766,-2.6032,-2.6238,-2.6579,-2.6931,-2.7076,-2.7076,-2.7189,-2.7262,-2.7262,-2.7262,-2.7262,-2.7262,-2.7262,-2.7262,-2.7262,-2.7262,-2.7262,-2.7262,-2.7262,-2.7262,-2.7262,-2.7262,-2.7262,-2.7326,-2.7524,-2.7839,-2.8154,-2.8065,-2.8649,-2.9482,0.0,0.0,0.0,0.0,0.0,0.0,0.0,0.0,0.0,0.0,0.0,0.0,0.0,0.0,0.0,0.0,0.0,0.0,0.0,0.0,0.0,0.0,0.0,0.0,0.0,0.0,0.0,0.0,0.0,0.0,0.0,0.0,0.0,0.0,0.0,0.0,0.0,0.0,0.0,0.0,0.0,0.0,-1.9106,-1.9136,-1.8786,-1.838,-1.8125,-1.7998,-1.7813,-1.7949,0.0,0.0,0.0,0.0,0.0,0.0,0.0,0.0,0.0,0.0,0.0,0.0,0.0,0.0,0.0,0.0,0.0,0.0,0.0,0.0,0.0,0.0,0.0,0.0,-2.0885,-2.234,-2.277,-2.307,-2.3639,-2.4705,-2.5233,-2.5678,-2.6123,-2.6165,-2.6361,-2.6827,-2.6858,-2.6972,-2.7251,-2.7262,-2.7262,-2.7262,-2.7262,-2.7262,-2.7262,-2.7262,-2.7262,-2.7262,-2.7262,-2.7262,-2.7262,-2.7262,-2.7262,-2.7262,-2.7262,-2.7262,-2.7262,-2.7262,-2.7262,0.0,0.0,0.0,0.0,0.0,-2.9217,-2.9782,0.0,0.0,0.0,0.0,0.0,0.0,0.0,0.0,0.0,0.0,0.0,0.0,0.0,0.0,0.0,0.0,0.0,0.0,0.0,0.0,0.0,0.0,0.0,0.0,0.0,0.0,0.0,0.0,0.0,0.0,0.0,0.0,0.0,0.0,0.0,0.0,0.0,0.0,0.0,0.0,0.0,0.0,-1.9497,-1.919,-1.9107,-1.9011,-1.8616,-1.835,-1.8222,-1.8242,0.0,0.0,0.0,0.0,0.0,0.0,0.0,0.0,0.0,0.0,0.0,0.0,0.0,0.0,0.0,0.0,0.0,0.0,0.0,0.0,0.0,0.0,0.0,0.0,-2.2231,-2.3533,-2.5068,-2.5347,-2.5388,-2.5388,-2.572,-2.6134,-2.6599,-2.6641,-2.6817,-2.7231,-2.7262,-2.7262,-2.7262,0.0,0.0,0.0,0.0,-2.7355,-2.7417,-2.7417,-2.7417,-2.7417,-2.7417,-2.7417,-2.7417,-2.7417,-2.7417,-2.7417,-2.7417,-2.7417,-2.7417,-2.7417,-2.7417,-2.7407,-2.7303,-2.7736,-2.8488,-2.9852,-3.0397,-3.0487,0.0,0.0,0.0,0.0,0.0,0.0,0.0,0.0,0.0,0.0,0.0,0.0,0.0,0.0,0.0,0.0,0.0,0.0,0.0,0.0,0.0,0.0,0.0,0.0,0.0,0.0,0.0,0.0,0.0,0.0,0.0,0.0,0.0,0.0,0.0,0.0,0.0,0.0,0.0,0.0,0.0,0.0,-1.9409,-2.0034,-2.0264,-2.0252,-2.0174,-1.9992,-1.9792,-1.9594,-1.918,-1.8836,-1.9402,0.0,0.0,0.0,0.0,0.0,0.0,0.0,0.0,0.0,0.0,0.0,0.0,0.0,0.0,0.0,0.0,0.0,0.0,0.0,0.0,-2.1218,-2.3231,-2.4943,-2.5658,-2.6072,-2.631,-2.631,-2.6382,-2.662,-2.7086,-2.7127,-2.7169,-2.7251,-2.7262,-2.7262,-2.7262,-2.7262,-2.7427,-2.7779,-2.779,-2.7976,-2.8349,-2.8349,-2.8349,-2.8349,0.0,0.0,-2.8349,-2.8349,-2.8349,-2.8349,-2.8349,-2.8349,-2.8349,-2.8349,-2.8349,-2.8276,-2.7541,-2.7357,-2.7631,-2.8477,-2.885,-2.8943,0.0,0.0,0.0,0.0,0.0,0.0,0.0,0.0,0.0,0.0,0.0,0.0,0.0,0.0,0.0,0.0,0.0,0.0,0.0,0.0,0.0,0.0,0.0,0.0,0.0,0.0,0.0,0.0,0.0,0.0,0.0,0.0,0.0,0.0,0.0,0.0,0.0,0.0,0.0,0.0,0.0,0.0,-1.8727,-1.9618,-2.0245,-2.0566,-2.0566,-2.0566,-2.0459,-2.0312,-1.9955,-1.9676,-1.9816,-1.9367,-1.8864,0.0,0.0,0.0,0.0,0.0,0.0,0.0,0.0,0.0,0.0,0.0,0.0,0.0,0.0,-1.936,0.0,0.0,-2.2304,-2.2829,-2.4636,-2.6061,-2.6506,-2.6765,-2.691,-2.691,-2.691,-2.7003,-2.7241,-2.7262,-2.7262,-2.7262,-2.7469,-2.7593,-2.7593,-2.781,-2.8038,-2.8266,-2.8266,-2.838,-2.8618,-2.8618,-2.8618,-2.8618,-2.8618,-2.8618,-2.8618,-2.8618,-2.8618,-2.8618,-2.8618,-2.8618,-2.8597,-2.8359,-2.8266,-2.8204,-2.7521,-2.7396,-2.7689,-2.8444,-2.8849,-2.9198,0.0,0.0,0.0,0.0,0.0,0.0,0.0,0.0,0.0,0.0,0.0,0.0,0.0,0.0,0.0,0.0,0.0,0.0,0.0,0.0,0.0,0.0,0.0,0.0,0.0,0.0,0.0,0.0,0.0,0.0,0.0,0.0,0.0,0.0,0.0,0.0,0.0,0.0,0.0,0.0,0.0,0.0,-1.8078,-1.8807,-1.9687,-2.0566,-2.0566,-2.0536,-2.0419,-2.0585,-2.0382,-2.0139,-2.0022,-1.998,-1.9826,-1.9445,-1.9734,0.0,0.0,0.0,0.0,0.0,0.0,0.0,0.0,0.0,-1.985,-2.0625,-2.107,-2.1378,-2.1428,-2.2822,-2.4157,-2.4602,-2.5813,-2.6837,-2.721,-2.7262,-2.7262,-2.7262,-2.7262,-2.7293,-2.7376,-2.7386,-2.7427,-2.7521,-2.7852,-2.8059,-2.8059,-2.8411,-2.8659,-2.8742,-2.8752,-2.8794,-2.8887,-2.8887,-2.8887,-2.8887,-2.8887,-2.8887,-2.8887,-2.8887,-2.8887,-2.8876,-2.8794,-2.8752,-2.8711,-2.8255,-2.8059,-2.8017,-2.7665,-2.7686,-2.8001,-2.8476,-2.8947,-2.936,0.0,0.0,0.0,0.0,0.0,0.0,0.0,0.0,0.0,0.0,0.0,0.0,0.0,0.0,0.0,0.0,0.0,0.0,0.0,0.0,0.0,0.0,0.0,0.0,0.0,0.0,0.0,0.0,0.0,0.0,0.0,0.0,0.0,0.0,0.0,0.0,0.0,0.0,0.0,0.0,0.0,0.0,-1.7997,-1.8078,-1.9204,-2.0566,-2.0566,-2.0154,-1.9698,-2.0389,-2.0134,-1.9708,-2.035,-2.0225,-1.9811,-1.9465,0.0,-1.892,-1.7896,-1.843,-1.9254,-1.9421,-1.9771,-2.0264,0.0,0.0,-2.0223,-2.1155,-2.1324,-2.1628,-2.2489,-2.3587,-2.4612,-2.5253,-2.6381,-2.72,-2.7251,-2.7262,-2.7262,-2.7262,-2.7262,-2.7417,-2.781,-2.7852,-2.8017,-2.8431,-2.8514,-2.8535,-2.8535,-2.8587,-2.8804,-2.9218,-2.9228,-2.9425,-2.9839,-2.9839,-2.9839,-2.9839,-2.9839,-2.9839,-2.9839,-2.9839,-2.9839,-2.9818,-2.963,-2.9443,-2.9187,-2.8942,-2.8744,-2.8535,-2.8483,-2.8245,-2.7872,-2.7575,-2.7483,-2.7631,0.0,0.0,0.0,0.0,0.0,0.0,0.0,0.0,0.0,0.0,0.0,0.0,0.0,0.0,0.0,0.0,0.0,0.0,0.0,0.0,0.0,0.0,0.0,0.0,0.0,0.0,0.0,0.0,0.0,0.0,0.0,0.0,0.0,0.0,0.0,0.0,0.0,0.0,0.0,0.0,0.0,0.0,-1.7997,-1.7997,-1.9116,-2.0615,-2.0446,-2.0206,0.0,0.0,-2.0197,-1.9999,-2.0698,-2.0335,-1.9644,-1.9924,-1.9427,0.0,-1.9079,-1.9207,0.0,0.0,-2.0537,-2.0833,-2.1322,-2.1251,-2.1375,-2.2579,-2.3244,-2.3805,-2.4513,-2.5456,-2.6185,0.0,-2.6983,-2.7262,-2.7262,-2.7262,-2.7355,-2.7614,-2.7645,-2.7717,-2.7903,-2.8173,-2.8411,-2.8597,-2.8866,-2.9021,-2.9021,-2.927,-2.9508,-2.9704,-2.9704,-2.9798,-2.9994,-2.9994,-2.9994,-2.9994,-2.9994,-2.9994,-2.9994,-2.9994,-2.9953,-2.9786,-2.9621,-2.941,-2.9368,-2.9003,-2.8715,-2.8586,-2.8216,-2.79,-2.7733,-2.772,-2.7851,-2.8081,0.0,0.0,0.0,0.0,0.0,0.0,0.0,0.0,0.0,0.0,0.0,0.0,0.0,0.0,0.0,0.0,0.0,0.0,0.0,0.0,0.0,0.0,0.0,0.0,0.0,0.0,0.0,0.0,0.0,0.0,0.0,0.0,0.0,0.0,0.0,0.0,0.0,0.0,0.0,0.0,0.0,0.0,-1.7997,-1.7997,-1.8979,-2.0252,-2.0098,-1.9752,0.0,0.0,-1.9511,-1.9563,-2.0076,-1.9862,-1.9393,-1.9588,-1.884,-1.8267,-1.9437,0.0,0.0,-2.0803,-2.1319,-2.1645,-2.2273,-2.2377,-2.2739,-2.3991,-2.4778,-2.5409,-2.5968,-2.662,-2.7107,-2.7241,-2.7262,-2.7262,-2.7262,-2.7365,-2.7562,-2.7883,-2.8152,-2.8307,-2.8307,-2.8607,-2.8856,-2.899,-2.9301,-2.9497,-2.9497,-2.9818,-2.9994,-2.9994,-2.9994,-2.9994,-2.9994,-2.9994,-2.9994,-2.9994,-2.9994,-2.9932,-2.9912,-2.988,-2.9743,-2.961,-2.9434,-2.9319,-2.9179,-2.8807,-2.8604,-2.8476,-2.7947,-2.7726,-2.7768,-2.7806,-2.7999,-2.8269,0.0,0.0,0.0,0.0,0.0,0.0,0.0,0.0,0.0,0.0,0.0,0.0,0.0,0.0,0.0,0.0,0.0,0.0,0.0,0.0,0.0,0.0,0.0,0.0,0.0,0.0,0.0,0.0,0.0,0.0,0.0,0.0,0.0,0.0,0.0,0.0,0.0,0.0,0.0,0.0,0.0,0.0,-1.7997,-1.7997,-1.8643,-1.9555,-1.9535,0.0,0.0,0.0,-1.7738,-1.7592,-1.7835,-1.8607,0.0,-1.79,-1.7129,0.0,0.0,0.0,-1.9665,-2.0803,-2.1798,-2.2808,-2.3619,-2.3815,-2.4074,-2.4995,-2.5213,-2.5502,-2.6382,-2.6568,-2.6734,-2.7189,-2.7262,-2.7262,-2.7262,-2.7634,-2.7903,-2.7924,-2.8711,-2.9259,0.0,-2.927,-2.9466,-2.9922,-2.9963,-2.9973,-2.9973,-2.9984,-2.9994,-2.9994,-2.9994,-2.9994,-2.9994,-2.9994,-2.9994,-2.9994,-2.9994,-2.987,-2.974,-2.9479,-2.9444,-2.9413,-2.9246,-2.8935,-2.8689,-2.8516,-2.8218,-2.8008,-2.7998,-2.7998,-2.7998,-2.7736,-2.7462,-2.7357,0.0,0.0,0.0,0.0,0.0,0.0,0.0,0.0,0.0,0.0,0.0,0.0,0.0,0.0,0.0,0.0,0.0,0.0,0.0,0.0,0.0,0.0,0.0,0.0,0.0,0.0,0.0,0.0,0.0,0.0,0.0,0.0,0.0,0.0,0.0,0.0,0.0,0.0,0.0,0.0,0.0,0.0,-1.7131,-1.7267,-1.7841,-1.8556,0.0,0.0,0.0,0.0,-1.7521,-1.7583,-1.8479,0.0,0.0,-1.742,-1.7775,0.0,0.0,0.0,-2.1553,-2.2318,-2.2961,-2.3587,-2.4134,-2.4322,-2.4405,-2.4716,-2.4615,-2.4575,-2.4812,-2.5363,-2.5909,-2.5885,-2.6672,-2.7262,-2.7262,-2.7645,-2.8038,-2.8349,-2.8928,0.0,0.0,0.0,0.0,-2.9984,-2.9994,-2.9994,-2.9994,-2.9994,-2.9994,-2.9994,-2.9994,-2.9994,-2.9994,-2.9994,-3.0099,-3.0297,-3.0412,-3.0546,-3.0377,-3.0194,-2.991,-2.9599,-2.9407,-2.9113,-2.8798,-2.8729,-2.8571,-2.8466,-2.829,-2.829,-2.8196,-2.7998,-2.7715,-2.7452,0.0,0.0,0.0,0.0,0.0,0.0,0.0,0.0,0.0,0.0,0.0,0.0,0.0,0.0,0.0,0.0,0.0,0.0,0.0,0.0,0.0,0.0,0.0,0.0,0.0,0.0,0.0,0.0,0.0,0.0,0.0,0.0,0.0,0.0,0.0,0.0,0.0,0.0,0.0,0.0,0.0,0.0,-1.6068,-1.6196,-1.6584,0.0,0.0,0.0,0.0,0.0,0.0,0.0,0.0,-1.7678,-1.7308,-1.7767,-1.8552,-1.9488,-2.0789,-2.1775,-2.2579,-2.3392,-2.3823,-2.4188,-2.4478,-2.454,-2.454,-2.454,-2.4127,-2.3897,-2.4085,-2.4326,-2.4651,-2.4734,-2.5497,-2.625,-2.6649,-2.7243,-2.7824,-2.8514,-2.9166,-2.9673,0.0,0.0,0.0,-2.9994,-2.9994,-2.9994,-2.9994,-2.9994,-2.9994,-2.9994,-2.9994,-2.9994,-2.9994,-3.0099,-3.0297,-3.0495,-3.0647,-3.0675,-3.0653,-3.0303,-2.9948,-2.9645,-2.9339,-2.9041,-2.8757,-2.8757,-2.8757,-2.8757,-2.8571,-2.8571,-2.8477,-2.829,-2.8008,-2.7831,0.0,0.0,0.0,0.0,0.0,0.0,0.0,0.0,0.0,0.0,0.0,0.0,0.0,0.0,0.0,0.0,0.0,0.0,0.0,0.0,0.0,0.0,0.0,0.0,0.0,0.0,0.0,0.0,0.0,0.0,0.0,0.0,0.0,0.0,0.0,0.0,0.0,0.0,0.0,0.0,0.0,0.0,-1.4776,-1.4879,0.0,0.0,0.0,0.0,0.0,0.0,0.0,0.0,0.0,0.0,-1.7659,-1.8764,-1.9251,-1.9886,-2.2124,-2.2696,-2.2822,-2.3939,-2.4388,-2.454,-2.454,-2.454,-2.4529,-2.4478,-2.3898,-2.3528,0.0,0.0,-2.3228,-2.3844,-2.4116,-2.4509,-2.5501,-2.6477,-2.7537,0.0,0.0,0.0,0.0,0.0,0.0,-2.9994,0.0,-2.9994,-2.9994,-2.9994,-2.9984,-2.9963,-2.9984,-2.9984,-2.9963,-3.0287,-3.0609,-3.0827,-3.0665,-3.0551,-3.0518,-2.9883,-2.9543,-2.95,-2.9008,-2.8779,-2.8757,-2.8757,-2.8757,-2.8757,-2.8757,-2.8757,-2.8757,-2.8477,-2.8416,-2.8333,0.0,0.0,0.0,0.0,0.0,0.0,0.0,0.0,0.0,0.0,0.0,0.0,0.0,0.0,0.0,0.0,0.0,0.0,0.0,0.0,0.0,0.0,0.0,0.0,0.0,0.0,0.0,0.0,0.0,0.0,0.0,0.0,0.0,0.0,0.0,0.0,0.0,0.0,0.0,0.0,0.0,0.0,-1.4235,0.0,0.0,0.0,0.0,0.0,0.0,0.0,0.0,0.0,0.0,0.0,-1.9312,-2.0012,-2.1163,-2.2338,-2.3222,-2.4132,-2.466,-2.4291,-2.4522,-2.4786,-2.454,-2.454,-2.4343,-2.3815,-2.3098,-2.2442,0.0,0.0,0.0,-2.3545,-2.5314,0.0,-2.6786,-2.7617,0.0,-2.8576,0.0,-2.9994,-2.9994,-2.9994,0.0,0.0,-2.9994,-2.9994,-2.9994,-2.9994,-2.9943,-2.9816,-2.9922,-2.9943,-2.9816,-3.0348,-3.0827,-3.1127,-3.1203,-3.1342,-3.132,-3.081,-3.0351,-3.0002,-2.951,-2.9095,-2.8757,-2.8757,-2.8757,-2.8757,-2.8757,-2.8757,-2.8757,-2.8757,-2.8809,-2.8934,0.0,0.0,0.0,0.0,0.0,0.0,0.0,0.0,0.0,0.0,0.0,0.0,0.0,0.0,0.0,0.0,0.0,0.0,0.0,0.0,0.0,0.0,0.0,0.0,0.0,0.0,0.0,0.0,0.0,0.0,0.0,0.0,0.0,0.0,0.0,0.0,0.0,0.0,0.0,0.0,0.0,0.0,0.0,0.0,0.0,0.0,0.0,0.0,0.0,0.0,0.0,-1.7846,-1.7201,-1.8527,-2.0453,-2.0886,0.0,-2.3583,-2.4324,-2.489,-2.5211,-2.4861,-2.4946,-2.484,-2.4284,-2.419,-2.3928,-2.3066,-2.2294,0.0,0.0,0.0,0.0,0.0,0.0,0.0,-2.6613,-2.7432,-2.814,0.0,-2.9435,0.0,-2.9994,-2.9994,-2.9994,0.0,-2.9922,-2.9912,-2.9912,-2.9816,-2.9677,-2.9526,-2.9774,-2.988,-3.0024,-3.0493,-3.0931,-3.123,-3.1424,-3.1618,-3.1607,-3.0908,-3.0461,-3.0177,0.0,-2.9008,-2.8757,-2.8757,-2.8757,-2.8757,-2.8757,-2.8888,-2.9074,-2.9074,-2.9295,-2.9612,0.0,0.0,0.0,0.0,0.0,0.0,0.0,0.0,0.0,0.0,0.0,0.0,0.0,0.0,0.0,0.0,0.0,0.0,0.0,0.0,0.0,0.0,0.0,0.0,0.0,0.0,0.0,0.0,0.0,0.0,0.0,0.0,0.0,0.0,0.0,0.0,0.0,0.0,0.0,0.0,0.0,0.0,0.0,0.0,0.0,0.0,0.0,0.0,0.0,0.0,-1.6688,-1.8664,-1.7586,-1.9029,-2.1292,-2.1638,-2.2851,-2.4271,-2.5344,-2.538,-2.5126,-2.5475,-2.538,-2.4955,-2.3949,-2.3737,-2.3519,-2.238,0.0,-2.1237,-2.1326,0.0,-2.1936,-2.2628,0.0,-2.4427,-2.5849,-2.6732,-2.7579,-2.8479,-2.9342,-2.988,-2.9922,-2.9974,-2.9985,-2.9922,-2.9701,-2.9604,-2.973,-2.9479,-2.9444,-2.9409,-2.9621,-2.995,-3.0391,-3.0609,-3.0931,-3.123,-3.1424,-3.1527,-3.1586,-3.0646,-3.0209,-3.0155,-2.9183,-2.8757,-2.8757,-2.8757,-2.8757,-2.8861,-2.8822,-2.9106,-2.9489,-2.9554,-2.9893,-3.0297,0.0,0.0,0.0,0.0,0.0,0.0,0.0,0.0,0.0,0.0,-0.8738,-0.8944,0.0,0.0,0.0,0.0,0.0,0.0,0.0,0.0,0.0,0.0,0.0,0.0,0.0,0.0,0.0,0.0,0.0,0.0,0.0,0.0,0.0,0.0,0.0,0.0,0.0,0.0,0.0,0.0,0.0,0.0,0.0,0.0,0.0,0.0,0.0,0.0,0.0,0.0,-1.6374,-1.7966,-1.79,-1.9878,-2.239,-2.2783,-2.4059,-2.5355,-2.5768,-2.5812,-2.5644,-2.538,-2.538,-2.5134,-2.3777,-2.3657,0.0,0.0,0.0,-2.1043,-2.0466,-2.1374,0.0,-2.3113,0.0,0.0,0.0,0.0,-2.8273,0.0,0.0,0.0,0.0,0.0,0.0,0.0,0.0,-2.9317,-2.9698,-2.9479,-2.9505,-2.9593,-2.9698,-2.995,-3.0391,-3.0505,-3.0713,-3.123,-3.123,-3.1424,-3.1586,-3.0646,-3.0209,-3.0155,-2.9183,0.0,-2.8757,-2.8757,-2.8757,-2.879,-2.9205,-2.9412,-2.9532,-2.9936,-3.0384,-3.0777,0.0,0.0,0.0,0.0,0.0,0.0,0.0,-0.8356,-0.8388,-0.846,-0.8465,-0.8669,-0.9314,-0.9478,-0.9484,0.0,0.0,0.0,0.0,0.0,0.0,0.0,0.0,0.0,0.0,0.0,0.0,0.0,0.0,0.0,0.0,0.0,0.0,0.0,0.0,0.0,0.0,0.0,0.0,0.0,0.0,0.0,0.0,0.0,0.0,0.0,0.0,0.0,0.0,0.0,-1.5655,-1.7347,-1.8215,-2.0391,-2.2747,-2.3062,-2.4043,-2.5115,-2.5644,-2.5812,-2.5812,-2.5633,-2.5559,-2.5182,-2.3559,0.0,0.0,0.0,0.0,-2.0552,-2.0172,0.0,0.0,0.0,0.0,0.0,0.0,0.0,0.0,0.0,0.0,0.0,0.0,0.0,0.0,0.0,0.0,-2.9214,-2.9381,-2.9287,-2.9373,-2.9542,-2.9604,-2.9848,-3.0193,-3.0287,-3.0495,-3.0817,-3.1023,-3.11,-3.1034,-3.0427,-3.0078,-2.9794,-2.9063,0.0,-2.8757,-2.8757,-2.891,-2.9161,-2.939,-2.9784,-3.0253,-3.0482,-3.0865,-3.1269,0.0,0.0,0.0,0.0,0.0,0.0,0.0,-0.8213,-0.8196,-0.8142,-0.8089,-0.838,-0.9081,-0.94,-0.9494,0.0,0.0,0.0,0.0,0.0,0.0,0.0,0.0,0.0,0.0,0.0,0.0,0.0,0.0,0.0,0.0,0.0,0.0,0.0,0.0,0.0,0.0,0.0,0.0,0.0,0.0,0.0,0.0,0.0,0.0,0.0,0.0,0.0,0.0,0.0,-1.4783,-1.6594,-1.7935,-2.0065,-2.2231,-2.2977,-2.3742,-2.4429,-2.5411,-2.5812,-2.5906,-2.5822,-2.5728,-2.5228,-2.3373,-2.2852,0.0,0.0,0.0,-2.0085,-2.0085,0.0,0.0,0.0,0.0,0.0,0.0,0.0,0.0,0.0,0.0,0.0,0.0,0.0,0.0,0.0,0.0,0.0,-2.9106,-2.9117,-2.9289,-2.9452,-2.9635,-2.9849,-2.9994,-3.0193,-3.0287,-3.0391,-3.0806,-3.0869,-3.0497,-3.0231,-2.985,-2.9456,-2.8964,0.0,0.0,-2.8866,-2.9139,-2.95,-2.9707,-3.0242,-3.0908,-3.1018,-3.1291,-3.1618,0.0,0.0,0.0,0.0,0.0,0.0,0.0,-0.8156,-0.8265,-0.786,-0.799,-0.8257,-0.8719,-0.921,-0.95,0.0,0.0,0.0,0.0,0.0,0.0,0.0,0.0,0.0,0.0,0.0,0.0,0.0,0.0,0.0,0.0,0.0,0.0,0.0,0.0,0.0,0.0,0.0,0.0,0.0,0.0,0.0,0.0,0.0,0.0,0.0,0.0,0.0,0.0,0.0,0.0,-1.5286,-1.6372,-1.8072,-2.0172,-2.2642,0.0,0.0,-2.5406,-2.5906,-2.5822,-2.5644,-2.5728,-2.5311,-2.321,0.0,0.0,0.0,-2.0085,-2.0085,-2.0085,0.0,0.0,0.0,0.0,-2.3264,0.0,0.0,0.0,0.0,0.0,0.0,0.0,0.0,0.0,0.0,0.0,0.0,-2.9095,-2.9321,-2.9473,-2.9656,-2.9901,-2.9953,-2.9994,-2.9994,-3.0193,-3.0391,-3.0495,-3.0459,-3.0497,-3.0044,-2.9667,-2.9456,-2.8964,0.0,0.0,-2.9237,-2.9445,-2.9565,-3.0428,-3.0821,-3.0952,-3.1389,-3.1586,-3.1618,0.0,0.0,0.0,0.0,0.0,0.0,-0.7807,-0.8182,-0.8326,-0.7518,-0.7701,-0.7968,-0.8274,-0.8555,-0.8839,-0.9308,0.0,0.0,0.0,0.0,0.0,0.0,0.0,0.0,0.0,0.0,0.0,0.0,0.0,0.0,0.0,0.0,0.0,0.0,0.0,0.0,0.0,0.0,0.0,0.0,0.0,0.0,0.0,0.0,0.0,0.0,0.0,0.0,0.0,0.0,0.0,0.0,-1.5045,-1.621,0.0,0.0,-2.2809,-2.3604,-2.5384,-2.5895,-2.5895,-2.5822,-2.5511,-2.4849,-2.3221,0.0,0.0,-2.0412,-2.0085,-2.0085,-2.0085,-2.0085,-2.0205,0.0,0.0,0.0,0.0,0.0,0.0,0.0,0.0,0.0,0.0,0.0,0.0,0.0,0.0,0.0,-2.9299,-2.901,-2.9136,-2.9719,-2.987,-2.9994,-2.9994,-2.9994,-3.0088,-3.0391,-3.0609,-3.0434,-3.0098,-3.0013,-2.9687,-2.903,-2.8844,0.0,0.0,-2.9401,-2.9816,-3.0373,-3.0745,-3.1072,-3.1356,-3.1553,-3.1618,-3.1618,0.0,0.0,0.0,0.0,0.0,-0.817,-0.7583,-0.8094,-0.8351,-0.7649,-0.7602,-0.7709,-0.8063,-0.8158,-0.8404,-0.9006,-0.9111,0.0,0.0,0.0,0.0,0.0,0.0,0.0,0.0,0.0,0.0,0.0,0.0,0.0,0.0,0.0,0.0,0.0,0.0,0.0,0.0,0.0,0.0,0.0,0.0,0.0,0.0,0.0,0.0,0.0,0.0,0.0,0.0,0.0,0.0,0.0,0.0,0.0,0.0,0.0,-2.1818,-2.2939,-2.4919,-2.5677,-2.5895,-2.5895,-2.5343,-2.4447,0.0,0.0,-2.1512,-2.0357,-2.0085,-2.0085,-2.0085,-2.0085,-2.0085,-2.0085,-2.0934,-2.1751,0.0,0.0,0.0,0.0,0.0,0.0,0.0,0.0,0.0,0.0,0.0,0.0,-2.9266,-2.8932,-2.9088,-2.9816,-2.9933,-2.9994,-3.0088,-3.0088,-3.0297,-3.0505,-3.0575,-3.0312,-2.9828,-2.9873,-2.9448,-2.8757,-2.8757,0.0,0.0,-2.9642,-3.0177,-3.0908,-3.105,-3.1323,-3.1618,-3.1618,-3.1618,-3.1618,0.0,0.0,0.0,0.0,0.0,0.0,-0.7461,-0.7864,-0.8328,-0.8404,-0.7833,-0.7594,-0.8069,-0.826,-0.8409,-0.8415,-0.8684,0.0,0.0,0.0,0.0,0.0,0.0,0.0,0.0,0.0,0.0,0.0,0.0,0.0,0.0,0.0,0.0,0.0,0.0,0.0,0.0,0.0,0.0,0.0,0.0,0.0,0.0,0.0,0.0,0.0,0.0,0.0,0.0,0.0,0.0,0.0,0.0,0.0,0.0,0.0,-2.0308,-2.1648,-2.367,-2.5001,-2.5895,-2.5895,-2.5196,-2.4235,0.0,0.0,-2.1319,-2.0281,-2.0085,-2.0085,-2.0085,-2.0085,-2.0085,-2.0085,-2.0096,-2.053,-2.1725,0.0,0.0,0.0,0.0,0.0,0.0,0.0,0.0,0.0,0.0,0.0,-2.9095,-2.9049,-2.9325,-2.9963,-2.9994,-3.0088,-3.0391,-3.0391,-3.0505,-3.0827,-3.0359,-2.9992,-2.9817,-2.9343,-2.9037,-2.8757,0.0,0.0,0.0,-3.0002,-3.0482,-3.0941,-3.1422,-3.1618,-3.1618,-3.1618,-3.1618,-3.1618,0.0,0.0,0.0,0.0,0.0,0.0,0.0,-0.8533,-0.891,-0.8266,-0.8241,-0.8203,-0.793,-0.7925,-0.8149,-0.8502,-0.8714,0.0,0.0,0.0,0.0,0.0,0.0,0.0,0.0,0.0,0.0,-0.9196,-0.9388,0.0,0.0,0.0,0.0,0.0,0.0,0.0,0.0,0.0,0.0,0.0,0.0,0.0,0.0,0.0,0.0,0.0,0.0,0.0,0.0,0.0,0.0,0.0,0.0,0.0,0.0,0.0,0.0,0.0,-2.2282,-2.3058,-2.3362,-2.3842,-2.346,-2.2837,-2.2182,0.0,-2.0915,-2.0216,-2.0085,-2.0085,-2.0085,-2.0085,-2.0085,-2.0085,-2.0085,-2.0172,0.0,0.0,0.0,0.0,0.0,0.0,0.0,0.0,0.0,0.0,0.0,0.0,-2.8507,-2.9168,-2.971,-3.0021,-3.0358,-3.062,-3.0713,-3.0713,-3.0827,-3.1023,-3.0643,-3.027,-3.0101,-2.9611,-2.9121,0.0,0.0,0.0,0.0,-3.0482,-3.0963,-3.14,-3.1564,-3.1618,-3.1618,-3.1618,-3.1618,-3.1618,0.0,0.0,0.0,0.0,0.0,0.0,0.0,-0.8657,-0.8856,-0.8196,-0.8346,-0.8297,-0.781,-0.7865,-0.7993,-0.8132,-0.8381,0.0,0.0,0.0,0.0,0.0,0.0,0.0,0.0,-0.9163,-0.9035,-0.88,-0.9072,-0.9668,-1.0569,-1.0781,0.0,0.0,0.0,0.0,0.0,0.0,0.0,0.0,0.0,0.0,-1.3494,0.0,0.0,0.0,0.0,0.0,0.0,0.0,0.0,0.0,0.0,0.0,0.0,0.0,-1.7256,0.0,0.0,-2.1592,-2.215,-2.2589,-2.2317,0.0,0.0,0.0,0.0,-2.014,-2.0085,-2.0085,-2.0085,-2.0085,-2.0085,-2.0085,-2.0085,-2.0204,0.0,0.0,0.0,0.0,0.0,0.0,0.0,0.0,0.0,0.0,0.0,0.0,-2.8529,-2.9289,-2.9786,-2.988,-3.0504,-3.0827,-3.0931,-3.0931,-3.1041,-3.104,-3.0575,-3.0198,-2.9925,-2.9434,-2.9041,0.0,0.0,0.0,0.0,-3.0701,-3.1181,-3.1618,-3.1618,-3.1618,-3.1618,-3.1618,-3.1618,-3.1618,0.0,0.0,0.0,0.0,0.0,0.0,0.0,-0.8303,-0.8337,-0.8097,-0.808,-0.8008,-0.7727,-0.7941,-0.7916,-0.7524,0.0,0.0,0.0,0.0,0.0,0.0,0.0,0.0,0.0,-0.8851,-0.8725,-0.8287,-0.8558,-0.904,-0.9732,-1.0058,-1.0894,-1.2012,0.0,0.0,0.0,0.0,0.0,0.0,0.0,0.0,0.0,0.0,0.0,0.0,0.0,0.0,0.0,0.0,0.0,0.0,0.0,0.0,0.0,0.0,0.0,0.0,0.0,0.0,0.0,0.0,0.0,0.0,0.0,0.0,0.0,0.0,0.0,-2.0085,-2.0085,-2.0085,-2.0085,-2.0085,-2.0085,0.0,0.0,0.0,0.0,0.0,0.0,0.0,0.0,0.0,0.0,0.0,0.0,0.0,-2.8757,-2.9216,-2.9489,-2.9489,-3.0332,-3.0835,-3.1133,-3.1133,-3.0997,-3.0843,-3.0373,-2.9925,-2.9467,-2.8975,-2.8757,0.0,0.0,0.0,0.0,-3.0745,-3.1214,-3.1618,-3.1618,-3.1618,-3.1618,-3.1618,-3.1618,-3.1618,0.0,0.0,0.0,0.0,0.0,0.0,0.0,0.0,0.0,0.0,-0.8215,-0.8198,-0.7949,-0.7717,-0.7681,0.0,0.0,0.0,0.0,0.0,0.0,0.0,0.0,0.0,0.0,-0.8237,-0.8232,-0.7977,-0.8755,-0.9298,-0.9764,-1.0378,-1.1119,-1.1963,-1.1736,0.0,0.0,0.0,0.0,0.0,0.0,0.0,0.0,0.0,0.0,0.0,-1.5108,-1.5118,0.0,0.0,0.0,0.0,0.0,0.0,0.0,0.0,-1.6384,-1.6524,-1.7105,0.0,-1.8584,-1.921,0.0,0.0,0.0,0.0,0.0,0.0,0.0,-2.0085,-2.0085,-2.0085,-2.0085,-2.0085,-2.0085,-2.0575,0.0,0.0,0.0,0.0,0.0,0.0,0.0,0.0,0.0,0.0,0.0,-2.8653,-2.8186,-2.9026,-2.9489,-2.9489,-3.0079,-3.035,-3.0449,-3.0449,-3.0384,-3.0373,-2.9882,-2.9598,-2.9467,-2.8975,-2.8757,0.0,0.0,0.0,-3.0275,-3.1105,-3.152,-3.1618,-3.1618,-3.1618,-3.1618,-3.1618,-3.1618,-3.1618,0.0,0.0,0.0,0.0,0.0,0.0,0.0,0.0,0.0,0.0,0.0,-0.8121,-0.7875,-0.7683,0.0,0.0,0.0,0.0,0.0,0.0,0.0,0.0,0.0,0.0,-0.7518,-0.7966,-0.8022,-0.7555,-0.8017,-0.8814,-0.9813,-0.9861,-1.0654,-1.2004,-1.1519,-1.1074,-1.0764,0.0,0.0,0.0,-1.2889,0.0,0.0,0.0,0.0,0.0,-1.5768,-1.5594,0.0,-1.5432,-1.5335,-1.526,0.0,0.0,0.0,0.0,-1.6384,-1.6431,-1.6581,-1.6917,-1.7396,-1.7937,-1.8416,0.0,0.0,0.0,0.0,0.0,0.0,0.0,-2.0085,0.0,0.0,-2.0085,-2.0641,0.0,0.0,0.0,0.0,0.0,0.0,0.0,0.0,0.0,0.0,0.0,0.0,-2.8571,-2.8373,-2.8903,-2.915,-2.915,-2.9401,-2.9762,-3.0209,-3.0209,-3.01,-2.9871,-2.9609,-2.9368,-2.9139,-2.8877,-2.8757,0.0,0.0,0.0,-3.0286,-3.1236,-3.1618,-3.1618,-3.1618,-3.1618,-3.1618,-3.1618,-3.1618,-3.1618,0.0,0.0,0.0,0.0,0.0,0.0,0.0,0.0,0.0,0.0,0.0,0.0,0.0,0.0,0.0,0.0,0.0,0.0,0.0,0.0,0.0,0.0,0.0,-0.7919,-0.7381,-0.7966,-0.7926,-0.7192,-0.7339,-0.8158,-0.9633,-0.9227,-1.0075,-1.1837,-1.1201,-1.078,-1.0566,-1.0812,0.0,0.0,-1.3215,0.0,0.0,0.0,0.0,0.0,0.0,0.0,0.0,-1.6192,-1.613,-1.5818,-1.6285,0.0,0.0,0.0,0.0,0.0,-1.6581,-1.7027,-1.7396,-1.7414,-1.7792,-1.8334,0.0,0.0,0.0,0.0,0.0,0.0,0.0,0.0,0.0,0.0,0.0,0.0,0.0,0.0,0.0,0.0,0.0,0.0,0.0,0.0,0.0,0.0,0.0,-2.8488,-2.8757,-2.8757,-2.8757,-2.8757,-2.8757,-2.915,-2.998,-2.9991,-2.9784,-2.9368,-2.9368,-2.915,-2.8757,-2.8757,-2.8757,-2.8811,0.0,0.0,-3.0286,-3.1236,-3.1618,-3.1618,-3.1618,-3.1618,-3.1618,-3.1618,-3.1618,-3.1618,0.0,0.0,0.0,0.0,0.0,0.0,0.0,0.0,0.0,0.0,0.0,0.0,0.0,0.0,0.0,0.0,0.0,0.0,0.0,0.0,0.0,0.0,-0.7745,-0.8232,-0.8224,-0.7925,-0.7746,-0.7616,-0.8133,-0.8605,-0.8965,-0.9829,-1.0551,-1.1138,-1.0732,-1.0685,-1.0899,-1.0653,-1.0915,-1.16,-1.2912,0.0,0.0,0.0,0.0,0.0,0.0,0.0,0.0,-1.6431,-1.6165,-1.5962,-1.6434,0.0,0.0,0.0,0.0,0.0,-1.6751,-1.7259,-1.7651,-1.7048,-1.7391,0.0,0.0,0.0,0.0,0.0,0.0,0.0,0.0,0.0,0.0,0.0,0.0,0.0,0.0,0.0,0.0,0.0,0.0,0.0,0.0,0.0,0.0,0.0,0.0,-2.8196,-2.8488,-2.8488,-2.8581,-2.8757,-2.8757,-2.8822,-2.8975,-2.8975,-2.8943,-2.8866,-2.8866,-2.8822,-2.8757,-2.8757,-2.8757,-2.8811,0.0,-3.0209,-3.0286,-3.1236,-3.1618,-3.1618,-3.1618,-3.1618,-3.1618,-3.1618,-3.1618,-3.1618,0.0,0.0,0.0,0.0,0.0,0.0,0.0,0.0,0.0,0.0,0.0,0.0,0.0,0.0,0.0,0.0,0.0,0.0,0.0,0.0,0.0,-0.7182,-0.8019,-0.8318,-0.7836,-0.8256,-0.8203,-0.7568,-0.8256,-0.8698,-0.9005,-1.0204,-1.074,-1.0709,-1.0593,-1.0617,-1.0701,-1.0593,-1.0764,-1.1343,0.0,0.0,0.0,0.0,0.0,0.0,0.0,0.0,0.0,0.0,-1.6444,-1.6343,-1.6507,0.0,0.0,0.0,0.0,0.0,-1.6751,-1.7116,-1.7456,-1.7552,-1.8307,0.0,0.0,0.0,0.0,0.0,0.0,0.0,0.0,0.0,0.0,0.0,0.0,0.0,0.0,0.0,0.0,0.0,0.0,0.0,0.0,0.0,0.0,0.0,0.0,0.0,-2.8395,-2.8581,-2.8664,-2.8757,-2.8757,-2.8757,-2.8757,-2.8757,-2.8757,-2.8757,-2.8757,-2.8757,-2.8757,-2.8757,-2.8757,-2.8811,0.0,-3.0209,-3.0286,-3.1236,-3.1618,-3.1618,-3.1618,-3.1618,-3.1618,-3.1618,-3.1618,-3.1618,0.0,0.0,0.0,0.0,0.0,0.0,0.0,0.0,0.0,0.0,0.0,0.0,0.0,0.0,0.0,0.0,0.0,0.0,0.0,0.0,-0.8197,-0.7289,-0.8063,-0.83,-0.7717,-0.8672,-0.8791,-0.7889,-0.8468,-0.8944,-0.9377,-1.0379,-1.068,-1.047,-1.047,-1.047,-1.047,-1.047,-1.0677,-1.108,0.0,0.0,0.0,0.0,0.0,0.0,0.0,0.0,0.0,0.0,0.0,0.0,0.0,0.0,0.0,-1.6694,-1.6751,-1.6864,-1.6864,-1.707,-1.747,0.0,0.0,0.0,0.0,0.0,0.0,0.0,0.0,0.0,0.0,0.0,0.0,0.0,0.0,0.0,0.0,0.0,0.0,0.0,0.0,0.0,0.0,0.0,0.0,0.0,0.0,0.0,-2.8395,-2.8571,-2.8757,-2.8757,-2.8757,-2.8757,-2.8757,-2.8757,-2.8757,-2.8757,-2.8757,-2.8757,-2.8757,-2.8757,-2.8757,-2.8811,-2.9784,-3.0209,-3.0286,-3.1236,-3.1618,-3.1618,-3.1618,-3.1618,-3.1618,-3.1618,-3.1618,-3.1618,0.0,0.0,0.0,0.0,0.0,0.0,0.0,0.0,0.0,0.0,0.0,0.0,0.0,0.0,0.0,0.0,0.0,0.0,0.0,0.0,-0.7854,-0.6544,-0.7568,-0.8362,-0.8869,-0.9093,-0.9159,-0.9106,-0.9159,-0.9539,-1.0192,-1.0304,-1.0347,-1.0316,-1.0419,-1.0419,-1.0316,-1.0316,-1.052,-1.0972,-1.2599,0.0,0.0,0.0,0.0,0.0,0.0,0.0,0.0,0.0,0.0,0.0,0.0,0.0,-1.6818,-1.6818,-1.6853,-1.7011,-1.7011,-1.761,-1.8298,0.0,0.0,0.0,0.0,0.0,0.0,0.0,0.0,0.0,0.0,0.0,0.0,0.0,0.0,0.0,0.0,0.0,0.0,0.0,0.0,0.0,0.0,0.0,0.0,0.0,0.0,0.0,-2.8395,-2.8395,-2.8571,-2.8757,-2.8757,-2.8757,-2.8757,-2.8757,-2.8757,-2.8757,-2.8757,-2.8757,-2.8757,-2.8757,-2.8757,-2.8811,-2.9784,-3.0209,-3.0286,-3.1236,-3.1618,-3.1618,-3.1618,-3.1618,-3.1618,-3.1618,-3.1618,-3.1618,0.0,0.0,0.0,0.0,0.0,0.0,0.0,0.0,0.0,0.0,0.0,0.0,0.0,0.0,0.0,0.0,0.0,0.0,0.0,0.0,-0.7937,-0.6652,-0.7664,-0.8349,-0.8448,-0.9204,-0.9427,-0.9211,-0.9263,-0.9681,-1.0419,-1.0419,-1.0419,-1.0419,-1.047,-1.047,-1.0419,-1.0419,-1.0697,-1.1214,-1.2386,-1.3273,0.0,0.0,0.0,0.0,0.0,0.0,0.0,0.0,-1.7088,-1.7011,-1.7011,-1.6955,-1.6909,-1.6909,-1.7032,-1.7211,-1.7211,-1.7781,-1.8384,0.0,0.0,0.0,0.0,0.0,0.0,0.0,0.0,0.0,0.0,0.0,0.0,0.0,0.0,0.0,0.0,0.0,0.0,0.0,0.0,0.0,0.0,0.0,0.0,0.0,0.0,0.0,-2.8395,-2.8581,-2.8664,-2.8757,-2.8757,-2.8757,-2.8757,-2.8757,-2.8757,-2.8757,-2.8757,-2.8757,-2.8757,-2.8757,-2.8757,-2.8811,-2.9784,-3.0209,-3.0286,-3.1236,-3.1618,-3.1618,-3.1618,-3.1618,-3.1618,-3.1618,-3.1618,-3.1618,0.0,0.0,0.0,0.0,0.0,0.0,0.0,0.0,0.0,0.0,0.0,0.0,0.0,0.0,0.0,0.0,0.0,0.0,0.0,-0.809,-0.8243,-0.7182,-0.7937,-0.8415,-0.8455,-0.9316,-0.974,-0.9524,-0.9629,-0.994,-1.0419,-1.0419,-1.0419,-1.0419,-1.047,-1.047,-1.0419,-1.0419,-1.0675,-1.1107,-1.2214,-1.3094,0.0,0.0,0.0,0.0,0.0,0.0,0.0,0.0,-1.7211,-1.7078,-1.7078,-1.7078,-1.7078,-1.7011,-1.7145,-1.7278,-1.7211,-1.7633,-1.8138,0.0,0.0,0.0,0.0,0.0,0.0,0.0,0.0,0.0,0.0,0.0,0.0,0.0,0.0,0.0,0.0,0.0,0.0,0.0,0.0,0.0,0.0,0.0,0.0,0.0,0.0,0.0,0.0,-2.8571,-2.8757,-2.8757,-2.8757,-2.8757,-2.8757,-2.8757,-2.8757,-2.8757,-2.8757,-2.8757,-2.8757,-2.8757,-2.8757,-2.8811,-2.9784,-3.0209,-3.0286,-3.1236,-3.1618,-3.1618,-3.1618,-3.1618,-3.1618,-3.1618,-3.1618,-3.1618,0.0,0.0,0.0,0.0,0.0,0.0,0.0,0.0,0.0,0.0,0.0,0.0,0.0,0.0,0.0,0.0,0.0,0.0,-0.7545,-0.8448,-0.8712,-0.8125,-0.8309,-0.8633,-0.9159,-0.9584,-0.9955,-1.0316,-1.0316,-1.0316,-1.0316,-1.0316,-1.0316,-1.0324,-1.0419,-1.0419,-1.0316,-1.0316,-1.0324,-1.0443,-1.1904,-1.2812,-1.3386,0.0,0.0,0.0,0.0,0.0,0.0,0.0,-1.7278,-1.7278,-1.7278,-1.7278,-1.7267,-1.7078,-1.7145,-1.7267,-1.7078,-1.7155,0.0,0.0,0.0,0.0,0.0,0.0,0.0,0.0,0.0,0.0,0.0,0.0,0.0,0.0,0.0,0.0,0.0,0.0,0.0,0.0,0.0,0.0,0.0,0.0,0.0,0.0,0.0,0.0,0.0,-2.8466,-2.8757,-2.8757,-2.8757,-2.8757,-2.8757,-2.8757,-2.8757,-2.8757,-2.8757,-2.8757,-2.8757,-2.8757,-2.8757,-2.8811,-2.9784,-3.0209,-3.0286,-3.1236,-3.1618,-3.1618,-3.1618,-3.1618,-3.1618,-3.1618,-3.1618,-3.1618,0.0,0.0,0.0,0.0,0.0,0.0,0.0,0.0,0.0,0.0,0.0,0.0,0.0,0.0,0.0,0.0,0.0,0.0,0.0,-0.8031,-0.8078,-0.7706,-0.8296,-0.862,-0.8455,-0.9577,-1.0213,-1.0316,-1.0368,-1.0419,-1.0419,-1.0419,-1.0419,-1.0419,-1.047,-1.047,-1.0419,-1.0419,-1.0863,-1.1519,-1.1977,-1.3141,-1.4651,0.0,0.0,0.0,0.0,0.0,0.0,0.0,0.0,0.0,-1.7278,-1.7278,-1.7278,-1.7211,-1.7267,-1.7278,-1.7211,0.0,0.0,0.0,0.0,0.0,0.0,0.0,0.0,0.0,0.0,0.0,0.0,0.0,0.0,0.0,0.0,0.0,0.0,0.0,0.0,0.0,0.0,0.0,0.0,0.0,0.0,0.0,0.0,0.0,0.0,-2.8186,-2.8373,-2.8757,-2.8757,-2.8757,-2.8757,-2.8757,-2.8757,-2.8757,-2.8757,-2.8757,-2.8757,-2.8757,-2.8757,-2.879,-2.9423,-2.9893,-3.0286,-3.1236,-3.1618,-3.1618,-3.1618,-3.1618,-3.1618,-3.1618,-3.1618,-3.1618,0.0,0.0,0.0,0.0,0.0,0.0,0.0,0.0,0.0,0.0,0.0,0.0,0.0,0.0,0.0,0.0,0.0,0.0,0.0,0.0,-0.8296,-0.8237,-0.8771,-0.9095,-0.9159,-0.9956,-1.0438,-1.058,-1.0542,-1.0522,-1.0522,-1.0522,-1.0522,-1.0522,0.0,-1.0522,-1.0522,-1.0522,-1.0964,-1.176,-1.1909,-1.3147,-1.4914,0.0,0.0,0.0,0.0,0.0,0.0,0.0,0.0,0.0,-1.7278,-1.7267,-1.72,-1.72,-1.72,-1.7231,-1.7575,0.0,0.0,0.0,0.0,0.0,0.0,0.0,0.0,0.0,0.0,0.0,0.0,0.0,0.0,0.0,0.0,0.0,0.0,0.0,0.0,0.0,0.0,0.0,0.0,0.0,0.0,0.0,0.0,0.0,0.0,-2.7893,-2.8279,-2.8757,-2.8757,-2.8757,-2.8757,-2.8757,-2.8757,-2.8757,-2.8757,-2.8757,-2.8757,-2.8757,-2.8757,-2.879,-2.9478,-3.0046,-3.0548,-3.1313,-3.1618,-3.1618,-3.1618,-3.1618,-3.1618,-3.1618,-3.1618,-3.1618,0.0,0.0,0.0,0.0,0.0,0.0,0.0,0.0,0.0,0.0,0.0,0.0,0.0,0.0,0.0,0.0,0.0,0.0,0.0,0.0,-0.8981,-0.9197,-0.9249,-0.976,-1.0732,-1.0585,-1.0629,-1.0947,-1.0661,-1.0553,-1.0522,-1.0553,-1.0553,-1.0522,0.0,-1.047,-1.047,-1.047,-1.082,-1.1368,-1.1895,-1.3084,-1.4556,-1.5112,0.0,0.0,0.0,0.0,0.0,0.0,0.0,0.0,-1.7211,-1.7145,-1.7011,-1.7011,-1.7065,-1.7277,0.0,0.0,0.0,0.0,0.0,0.0,0.0,0.0,0.0,0.0,0.0,0.0,0.0,0.0,0.0,0.0,0.0,0.0,0.0,0.0,0.0,0.0,0.0,0.0,0.0,0.0,0.0,0.0,0.0,0.0,0.0,-2.761,-2.8186,-2.8757,-2.8757,-2.8757,-2.8757,-2.8757,-2.8757,-2.8757,-2.8757,-2.8757,-2.8757,-2.8757,-2.8757,-2.8811,-2.9784,-3.045,-3.0876,-3.14,-3.1618,-3.1618,-3.1618,-3.1618,-3.1618,-3.1618,-3.1618,-3.1618,0.0,0.0,0.0,0.0,0.0,0.0,0.0,0.0,0.0,0.0,0.0,0.0,0.0,0.0,0.0,0.0,0.0,0.0,0.0,0.0,-0.7984,-0.7919,-0.8237,-0.9061,-1.053,-1.0407,-1.0407,-1.0633,-1.0788,-1.074,0.0,0.0,0.0,-1.0522,0.0,-1.0419,-1.0368,-1.047,-1.0956,-1.1751,-1.2489,-1.3755,-1.5269,-1.5913,-1.658,0.0,0.0,0.0,0.0,0.0,0.0,0.0,-1.7278,-1.7278,-1.7211,-1.7211,-1.7618,0.0,0.0,0.0,0.0,0.0,0.0,0.0,0.0,0.0,0.0,0.0,0.0,0.0,0.0,0.0,0.0,0.0,0.0,0.0,0.0,0.0,0.0,0.0,0.0,0.0,0.0,0.0,0.0,0.0,0.0,0.0,-2.6592,-2.7146,-2.761,-2.8186,-2.856,-2.8757,-2.8757,-2.8757,-2.8757,0.0,-2.8757,-2.8757,-2.8757,-2.8757,-2.8757,-2.8811,-2.9784,-3.0264,-3.0428,-3.1269,-3.1618,-3.1618,-3.1618,-3.1618,-3.1618,-3.1618,-3.1618,-3.1618,0.0,0.0,0.0,0.0,0.0,0.0,0.0,0.0,0.0,0.0,0.0,0.0,0.0,0.0,0.0,0.0,0.0,0.0,0.0,0.0,0.0,-0.8501,-0.847,-0.9139,-1.0498,-1.0498,-1.0653,-1.0926,0.0,0.0,0.0,0.0,0.0,-1.0522,0.0,-1.047,-1.0419,-1.047,-1.1209,-1.2383,-1.281,-1.416,-1.5923,-1.6277,-1.6787,-1.7278,-1.7278,0.0,0.0,0.0,0.0,0.0,0.0,0.0,-1.6976,-1.7145,-1.7377,-1.7792,0.0,0.0,0.0,0.0,0.0,0.0,0.0,0.0,0.0,0.0,0.0,0.0,0.0,0.0,0.0,0.0,0.0,0.0,0.0,0.0,0.0,0.0,0.0,0.0,0.0,0.0,0.0,0.0,0.0,-2.5602,-2.6174,-2.6832,-2.7421,-2.7987,-2.856,-2.8757,-2.8757,-2.8757,-2.8757,-2.8757,-2.8757,-2.8757,-2.8757,-2.8757,-2.8757,-2.8811,-2.9784,-3.0209,-3.0286,-3.1236,-3.1618,-3.1618,-3.1618,-3.1618,-3.1618,-3.1618,-3.1618,-3.1618,0.0,0.0,0.0,0.0,0.0,0.0,0.0,0.0,0.0,0.0,0.0,0.0,0.0,0.0,0.0,0.0,0.0,0.0,0.0,0.0,0.0,0.0,-0.9078,-0.9405,-1.0447,-1.0609,-1.0878,0.0,0.0,0.0,0.0,0.0,0.0,-1.0522,0.0,-1.0502,-1.0506,-1.0506,-1.1472,-1.2973,-1.3143,-1.443,-1.6321,-1.6407,-1.6808,-1.7278,-1.7222,-1.7145,-1.7011,-1.7211,0.0,0.0,0.0,0.0,-1.6684,-1.6909,-1.7027,-1.7275,0.0,0.0,0.0,0.0,0.0,0.0,0.0,0.0,0.0,0.0,0.0,0.0,0.0,0.0,0.0,0.0,0.0,0.0,0.0,0.0,0.0,0.0,0.0,0.0,0.0,0.0,0.0,0.0,0.0,-2.5179,-2.5635,-2.6449,-2.7158,-2.7704,-2.8373,-2.8664,-2.8664,-2.8664,-2.8757,-2.8757,-2.8757,-2.8757,-2.8757,-2.8757,-2.8757,-2.8811,-2.9784,-3.0209,-3.0286,-3.1236,-3.1618,-3.1618,-3.1618,-3.1618,-3.1618,-3.1618,-3.1618,-3.1618,0.0,0.0,0.0,0.0,0.0,0.0,0.0,0.0,0.0,0.0,0.0,0.0,0.0,0.0,0.0,0.0,0.0,0.0,0.0,0.0,0.0,-0.911,-0.8929,-0.92,-1.0037,-1.0341,-1.0576,0.0,0.0,0.0,0.0,0.0,0.0,-1.0522,0.0,0.0,-1.0493,-1.0593,-1.1431,-1.2723,-1.358,-1.4729,-1.6028,-1.6563,-1.6989,-1.7278,-1.6987,-1.6909,-1.7011,-1.7211,-1.7145,0.0,0.0,0.0,-1.6955,-1.6864,0.0,0.0,0.0,0.0,0.0,0.0,0.0,0.0,0.0,0.0,0.0,0.0,0.0,0.0,0.0,0.0,0.0,0.0,0.0,0.0,0.0,0.0,0.0,0.0,0.0,0.0,0.0,0.0,0.0,0.0,-2.4268,-2.4668,-2.5143,-2.5694,-2.6189,-2.6678,-2.762,-2.8092,-2.8092,-2.8092,-2.8373,-2.8757,-2.8757,-2.8757,-2.8757,-2.8757,-2.8757,-2.8811,-2.9784,-3.0209,-3.0286,-3.1236,-3.1618,-3.1618,-3.1618,-3.1618,-3.1618,-3.1618,-3.1618,-3.1618,0.0,0.0,0.0,0.0,0.0,0.0,0.0,0.0,0.0,0.0,0.0,0.0,0.0,0.0,0.0,0.0,0.0,0.0,0.0,0.0,0.0,-0.9245,-0.951,-0.9916,-1.06,-1.0973,-1.1209,0.0,0.0,0.0,0.0,-1.1277,-1.1261,0.0,0.0,0.0,0.0,0.0,-1.1584,-1.2754,-1.3528,-1.4811,-1.6207,-1.6399,-1.6848,-1.7235,-1.6942,-1.6807,-1.6797,-1.7022,-1.6965,-1.6797,-1.6797,0.0,0.0,0.0,0.0,0.0,0.0,0.0,0.0,0.0,0.0,0.0,0.0,0.0,0.0,0.0,0.0,0.0,0.0,0.0,0.0,0.0,0.0,0.0,0.0,0.0,0.0,0.0,0.0,0.0,0.0,0.0,0.0,0.0,-2.3828,-2.415,-2.4346,-2.5033,-2.5651,-2.6104,-2.6868,-2.7452,-2.7987,-2.7998,-2.8279,-2.8757,-2.8757,-2.8757,-2.8757,-2.8757,-2.8757,-2.879,-2.95,-2.9958,-3.0264,-3.0941,-3.1378,-3.1618,-3.1618,-3.1618,-3.1618,-3.1618,-3.1618,-3.1618,0.0,0.0,0.0,0.0,0.0,0.0,0.0,0.0,0.0,0.0,0.0,0.0,0.0,0.0,0.0,0.0,0.0,0.0,0.0,0.0,0.0,-0.9238,-0.9735,-1.0331,-1.0977,-1.1259,0.0,0.0,0.0,0.0,-1.1347,-1.1718,-1.175,0.0,-1.1107,0.0,0.0,0.0,0.0,0.0,-1.3493,-1.4796,-1.6277,-1.6077,-1.6487,-1.7104,-1.6555,-1.6402,-1.6423,-1.6754,-1.6797,-1.657,-1.657,-1.6524,0.0,0.0,0.0,0.0,0.0,0.0,0.0,0.0,0.0,0.0,0.0,0.0,0.0,0.0,0.0,0.0,0.0,0.0,0.0,0.0,0.0,0.0,0.0,0.0,0.0,0.0,0.0,0.0,0.0,0.0,0.0,0.0,-2.3437,-2.3672,-2.3779,-2.4445,-2.5005,-2.5455,-2.6042,-2.6724,-2.7432,-2.784,-2.8279,-2.8664,-2.885,-2.885,-2.885,-2.885,-2.885,-2.8872,-2.9365,-2.9762,-3.0253,-3.0701,-3.1181,-3.1618,-3.1618,-3.1618,-3.1618,-3.1721,-3.1721,-3.1721,0.0,0.0,0.0,0.0,0.0,0.0,0.0,0.0,0.0,0.0,0.0,0.0,0.0,0.0,-0.6529,-0.6602,-0.6784,-0.7035,-0.7478,-0.8232,-0.8735,-0.8894,-0.9129,0.0,-1.0624,0.0,0.0,0.0,0.0,0.0,-1.1752,-1.1944,-1.2125,-1.2423,-1.1728,-1.1605,-1.176,0.0,0.0,0.0,-1.3635,-1.4797,-1.5899,0.0,0.0,0.0,0.0,0.0,-1.5839,-1.6434,-1.6627,-1.657,-1.657,-1.657,-1.6581,0.0,0.0,0.0,0.0,0.0,0.0,0.0,0.0,0.0,0.0,0.0,0.0,0.0,0.0,0.0,0.0,0.0,0.0,0.0,0.0,0.0,0.0,0.0,0.0,0.0,0.0,0.0,0.0,0.0,0.0,0.0,-2.3164,-2.335,-2.3769,-2.3809,-2.4014,-2.4434,-2.5322,-2.5832,-2.5946,-2.7504,-2.8395,-2.8395,-2.885,-2.9128,-2.9128,-2.9128,-2.9128,-2.9068,-2.9365,-2.9762,-3.0253,-3.0701,-3.1181,-3.1618,-3.1618,-3.1618,-3.1618,-3.1924,-3.2026,-3.2026,0.0,0.0,0.0,0.0,0.0,0.0,0.0,0.0,0.0,0.0,0.0,0.0,0.0,-0.5856,-0.6595,-0.7161,-0.7246,-0.7316,-0.7517,-0.7949,-0.8421,-0.8991,-0.9344,-0.99,-1.0791,0.0,0.0,0.0,0.0,-1.2184,-1.2249,-1.2672,-1.2663,-1.238,-1.1892,-1.185,-1.2118,-1.1691,0.0,0.0,-1.3184,-1.4148,-1.4673,0.0,0.0,0.0,0.0,0.0,0.0,-1.6648,-1.6399,-1.5848,-1.6193,-1.6353,-1.6488,0.0,0.0,0.0,0.0,0.0,0.0,0.0,0.0,0.0,0.0,0.0,0.0,0.0,0.0,0.0,0.0,0.0,0.0,0.0,0.0,0.0,0.0,0.0,0.0,0.0,0.0,0.0,0.0,0.0,0.0,0.0,0.0,-2.3213,-2.3359,-2.3369,-2.3564,-2.4004,-2.4352,-2.5147,-2.6548,-2.7494,-2.8196,-2.885,-2.8675,-2.8757,-2.8943,-2.9035,-2.9128,-2.9139,-2.9398,-2.9942,-3.0696,-3.0667,-3.1208,-3.1823,-3.1618,-3.1721,-3.1823,-3.1913,-3.2128,-3.2342,0.0,0.0,0.0,0.0,0.0,0.0,0.0,0.0,0.0,0.0,0.0,0.0,0.0,0.0,-0.6733,-0.7447,-0.7521,-0.7521,-0.7521,-0.7711,-0.8178,-0.8941,-0.9229,-0.9803,-1.0597,0.0,0.0,0.0,0.0,0.0,0.0,0.0,-1.2477,-1.1939,-1.1592,0.0,0.0,0.0,0.0,-1.1308,0.0,-1.3835,-1.4252,0.0,0.0,0.0,0.0,0.0,0.0,0.0,-1.676,-1.6138,0.0,0.0,0.0,0.0,0.0,0.0,0.0,0.0,0.0,0.0,0.0,0.0,0.0,0.0,0.0,0.0,0.0,0.0,0.0,0.0,0.0,0.0,0.0,0.0,0.0,0.0,0.0,0.0,0.0,0.0,0.0,0.0,0.0,0.0,0.0,0.0,-2.3319,-2.3319,-2.3516,-2.3779,-2.4026,-2.4977,-2.6722,-2.739,-2.8196,-2.9035,-2.8757,-2.8757,-2.8943,-2.9035,-2.9128,-2.9128,-2.9497,-3.006,-3.0729,-3.0704,-3.1162,-3.1906,-3.1869,-3.2026,-3.2229,-3.224,-3.2454,-3.2656,0.0,0.0,0.0,0.0,0.0,0.0,0.0,0.0,0.0,0.0,0.0,0.0,0.0,0.0,0.0,-0.7456,-0.7521,-0.7521,-0.7521,-0.7706,-0.8054,-0.865,-0.876,-0.9126,-0.9925,0.0,0.0,0.0,0.0,0.0,0.0,0.0,-1.164,0.0,-1.0959,-1.1245,-1.2042,0.0,-1.1655,-1.1903,0.0,-1.4099,-1.4785,0.0,0.0,0.0,-1.5944,-1.604,0.0,0.0,0.0,0.0,0.0,0.0,0.0,0.0,0.0,0.0,0.0,0.0,0.0,0.0,0.0,0.0,0.0,0.0,0.0,0.0,0.0,0.0,0.0,0.0,0.0,0.0,0.0,0.0,0.0,0.0,0.0,0.0,0.0,0.0,0.0,0.0,0.0,0.0,-2.3484,-2.3754,-2.3754,-2.3754,-2.3779,-2.376,-2.4463,-2.5257,-2.6155,-2.7358,-2.8269,-2.8757,-2.9035,-2.9128,-2.9128,-2.9128,-2.9128,-2.9128,-2.9703,-2.9962,-3.0247,-3.0762,-3.1267,-3.1759,-3.2252,-3.2544,-3.2555,-3.2779,-3.2891,-3.2891,0.0,0.0,0.0,0.0,0.0,0.0,0.0,0.0,0.0,0.0,0.0,0.0,0.0,0.0,-0.7326,-0.7456,-0.7521,-0.7521,-0.7521,-0.7394,-0.7554,-0.8043,-0.7996,-0.8337,-0.9132,0.0,0.0,0.0,0.0,0.0,0.0,0.0,0.0,0.0,-1.0824,-1.0919,-1.1488,-1.1071,0.0,0.0,-1.2825,-1.3515,0.0,0.0,0.0,0.0,0.0,-1.7207,-1.7627,0.0,-1.7082,-1.5805,0.0,0.0,0.0,0.0,0.0,0.0,-1.7368,0.0,0.0,0.0,0.0,0.0,0.0,0.0,0.0,0.0,0.0,0.0,0.0,0.0,0.0,0.0,0.0,0.0,0.0,0.0,0.0,0.0,0.0,0.0,0.0,0.0,0.0,0.0,-2.3038,-2.3309,-2.3309,-2.358,-2.3814,-2.3759,-2.4642,-2.5358,-2.6082,-2.6804,-2.7761,-2.8757,-2.8664,-2.8675,-2.885,-2.9035,-2.9128,-2.9128,-2.9497,-2.977,-3.0066,-3.0914,-3.1547,-3.2044,-3.2353,-3.2656,-3.2779,-3.288,-3.2992,-3.3181,0.0,0.0,0.0,0.0,0.0,0.0,0.0,0.0,0.0,0.0,0.0,0.0,0.0,0.0,0.0,-0.733,-0.7461,-0.7521,-0.7521,-0.7412,-0.7409,-0.7658,-0.7795,-0.8048,-0.848,-0.9095,0.0,0.0,0.0,0.0,0.0,0.0,0.0,0.0,0.0,0.0,0.0,0.0,0.0,0.0,-1.2642,0.0,0.0,-1.4839,-1.6193,0.0,0.0,0.0,-1.7631,-1.8318,-1.7134,0.0,0.0,0.0,0.0,0.0,0.0,0.0,0.0,0.0,0.0,0.0,0.0,0.0,-1.6937,-1.6561,-1.6263,0.0,0.0,0.0,0.0,0.0,0.0,0.0,0.0,0.0,0.0,0.0,0.0,0.0,0.0,0.0,0.0,-2.1248,-2.1516,-2.2227,-2.2677,-2.3212,-2.3831,-2.4003,-2.4176,-2.4262,-2.4964,-2.5513,-2.5774,-2.6795,-2.7629,-2.837,-2.8473,-2.8664,-2.8757,-2.8943,-2.8943,-2.9035,-2.922,-2.9405,-2.9667,-3.0548,-3.1349,-3.1934,-3.2237,-3.2676,-3.3081,-3.3081,-3.3192,-3.3281,0.0,0.0,0.0,-0.3153,-0.3362,-0.3289,0.0,0.0,0.0,0.0,0.0,0.0,0.0,0.0,0.0,0.0,-0.7363,-0.7484,-0.7526,-0.7526,-0.7526,-0.7526,-0.7787,-0.7987,-0.7987,-0.8865,0.0,0.0,0.0,0.0,0.0,0.0,0.0,0.0,0.0,0.0,0.0,0.0,0.0,-1.1063,-1.2593,-1.3376,0.0,0.0,-1.5929,0.0,-1.7548,-1.7565,-1.7177,-1.8355,-1.7471,0.0,0.0,0.0,0.0,0.0,-1.684,0.0,0.0,0.0,0.0,0.0,0.0,0.0,-1.8199,-1.7342,-1.6459,-1.7026,0.0,0.0,0.0,0.0,0.0,0.0,0.0,0.0,0.0,0.0,0.0,0.0,0.0,0.0,-2.0889,-2.0339,-2.043,-2.1784,-2.2403,-2.328,-2.4594,-2.4594,-2.4584,-2.4861,-2.5335,-2.5567,-2.5532,-2.6965,-2.7709,-2.7683,-2.8435,-2.8757,-2.8757,-2.8757,-2.8757,-2.885,-2.9035,-2.9128,-2.9161,-2.9802,-3.0778,-3.1693,-3.2002,-3.2613,-3.3281,-3.3281,-3.3281,-3.3281,-0.0138,0.0,0.0,-0.287,-0.3151,-0.3128,0.0,0.0,0.0,0.0,0.0,0.0,0.0,0.0,0.0,0.0,-0.7175,-0.7516,-0.7676,-0.7661,-0.7661,-0.7661,-0.7731,-0.7862,-0.7987,-0.8172,-0.856,0.0,0.0,0.0,0.0,0.0,0.0,0.0,0.0,0.0,0.0,0.0,0.0,-1.1703,-1.292,0.0,-1.367,-1.5205,-1.6302,-1.7125,-1.7333,-1.7679,-1.7819,0.0,-1.6485,-1.6094,0.0,0.0,0.0,0.0,0.0,0.0,0.0,0.0,0.0,0.0,0.0,0.0,-1.6982,-1.6549,-1.6062,0.0,0.0,0.0,0.0,0.0,0.0,0.0,0.0,0.0,0.0,0.0,0.0,0.0,0.0,0.0,-1.9279,-1.9629,-1.9985,-2.0348,-2.1516,-2.2492,-2.3193,-2.4059,-2.4584,-2.4861,-2.5466,-2.5787,-2.5815,-2.6898,-2.7475,-2.7683,-2.8435,-2.8757,-2.8757,-2.8757,-2.8757,-2.8757,-2.885,-2.8943,-2.9139,-2.9042,-2.9992,-3.1524,-3.1905,-3.2613,-3.3281,-3.3281,-3.3281,-3.3281,0.0283,0.0,0.0,-0.2356,-0.2641,-0.2772,-0.3087,0.0,0.0,0.0,0.0,0.0,0.0,0.0,0.0,0.0,0.0,0.0,0.0,-0.7531,-0.7531,-0.7666,-0.7731,-0.7727,-0.7722,-0.7792,-0.7987,-0.8236,0.0,0.0,0.0,0.0,0.0,0.0,0.0,0.0,0.0,0.0,-1.0238,-1.1446,-1.2641,0.0,-1.4244,-1.549,-1.6305,-1.6777,-1.7326,-1.7587,-1.7622,-1.6938,-1.6278,0.0,0.0,-1.5994,-1.6374,0.0,-1.6908,-1.7802,0.0,0.0,0.0,-1.8175,0.0,0.0,0.0,-1.6564,-1.636,-1.574,-1.5648,0.0,0.0,0.0,0.0,0.0,0.0,0.0,0.0,0.0,0.0,0.0,0.0,0.0,-1.8827,-1.9096,-1.9538,-1.9894,-2.1329,-2.2482,-2.3096,-2.3983,-2.4861,-2.5527,-2.5801,-2.5931,-2.6075,-2.6715,-2.7283,-2.7507,-2.8076,-2.8528,-2.8757,-2.8757,-2.8757,-2.8757,-2.8757,-2.885,-2.8943,-2.885,-2.9559,-3.0662,-3.1348,-3.2041,-3.2716,-3.3189,-3.3281,-3.3281,0.0714,0.0,0.0,0.0,-0.2319,-0.2605,-0.3203,0.0,0.0,0.0,0.0,0.0,0.0,0.0,0.0,0.0,0.0,0.0,0.0,0.0,-0.7522,-0.7671,-0.7731,-0.7661,-0.7526,-0.7596,-0.7596,-0.7521,0.0,0.0,0.0,0.0,0.0,0.0,0.0,0.0,0.0,0.0,0.0,-1.1178,0.0,-1.3372,-1.4613,-1.5759,-1.613,-1.6123,-1.7044,-1.7268,-1.7116,-1.7022,0.0,-1.586,-1.68,-1.6722,0.0,0.0,0.0,0.0,0.0,0.0,0.0,0.0,0.0,-1.7662,0.0,0.0,0.0,-1.572,0.0,0.0,0.0,0.0,0.0,0.0,0.0,0.0,0.0,0.0,0.0,0.0,0.0,0.0,-1.8637,-1.872,-1.8951,-1.9613,-2.1007,-2.2127,-2.2717,-2.3724,-2.468,-2.5589,-2.5801,-2.5979,-2.6229,-2.6694,-2.705,-2.7272,-2.7864,-2.8346,-2.8718,-2.8806,-2.8757,-2.8757,-2.8757,-2.8757,-2.8757,-2.8757,-2.9173,-2.9769,-3.0644,-3.1461,-3.2165,-3.2986,-3.3281,-3.3281,0.1045,0.0492,0.0,0.0,-0.2643,-0.3191,-0.3415,0.0,0.0,0.0,0.0,0.0,0.0,0.0,0.0,0.0,0.0,0.0,-0.7979,0.0,0.0,-0.769,-0.7857,-0.7857,-0.7666,-0.7591,-0.7521,-0.7521,0.0,0.0,0.0,0.0,0.0,0.0,-0.7976,0.0,0.0,0.0,-0.9856,0.0,-1.2183,-1.2829,0.0,-1.5568,-1.575,-1.5267,-1.5832,-1.6382,-1.669,0.0,-1.6451,-1.7014,0.0,-1.6324,-1.7827,0.0,0.0,0.0,0.0,0.0,0.0,0.0,-1.7781,0.0,0.0,0.0,-1.6641,-1.5065,0.0,0.0,0.0,0.0,0.0,0.0,0.0,0.0,0.0,0.0,0.0,0.0,0.0,0.0,0.0,-1.8256,-1.8612,-1.8872,-1.9465,-1.9896,-2.0296,-2.2208,-2.3444,-2.3694,-2.5105,-2.5979,-2.6196,-2.6874,-2.7238,-2.7316,-2.7988,-2.8374,-2.844,-2.8664,-2.8757,-2.8757,-2.8757,-2.8757,-2.8757,-2.8757,-2.8883,-2.9014,-3.051,-3.1461,-3.2165,-3.2986,-3.3281,-3.3281,0.2153,0.0,0.0,0.0,-0.1552,-0.2403,-0.334,0.0,0.0,0.0,0.0,0.0,0.0,0.0,0.0,0.0,0.0,-0.7403,0.0,0.0,0.0,-0.762,-0.7857,-0.7922,-0.7731,-0.7792,-0.778,-0.7774,-0.7654,0.0,0.0,0.0,0.0,0.0,-0.7693,0.0,-0.8362,0.0,0.0,0.0,0.0,0.0,0.0,-1.5537,-1.6619,-1.6477,-1.6663,-1.696,-1.7169,0.0,-1.6662,0.0,0.0,0.0,0.0,0.0,0.0,0.0,0.0,0.0,0.0,0.0,0.0,0.0,-1.5649,0.0,-1.567,0.0,0.0,0.0,0.0,0.0,0.0,0.0,-1.6916,0.0,0.0,0.0,0.0,0.0,0.0,0.0,0.0,0.0,0.0,0.0,-1.9713,-2.0205,-2.0124,-2.1498,-2.2473,-2.2804,-2.4286,-2.5147,-2.54,-2.649,-2.7189,-2.7312,-2.7919,-2.8311,-2.86,-2.8815,-2.8943,-2.8943,-2.8943,-2.8943,-2.885,-2.9117,-2.9024,-2.8916,-3.0092,-3.0948,-3.1529,-3.2343,-3.2918,-3.3281,0.3509,0.0,0.0,0.0,0.0,0.0,0.0,0.0,0.0,0.0,0.0,0.0,-0.3849,-0.4479,0.0,0.0,-0.6341,-0.6986,0.0,0.0,-0.7932,0.0,0.0,0.0,0.0,-0.7946,-0.7997,-0.8019,-0.7871,-0.7756,0.0,0.0,0.0,0.0,0.0,-0.7925,-0.8236,0.0,0.0,-1.0075,-1.1204,-1.1974,-1.2767,-1.5356,-1.6711,-1.7072,-1.7372,-1.7577,-1.7789,-1.7631,-1.695,0.0,-1.7594,0.0,0.0,0.0,0.0,0.0,-1.7715,0.0,0.0,0.0,0.0,0.0,0.0,0.0,0.0,0.0,0.0,0.0,0.0,0.0,0.0,0.0,0.0,-1.7062,0.0,0.0,0.0,0.0,0.0,0.0,0.0,0.0,0.0,-1.8987,-1.965,-1.9974,-1.9935,-2.0799,-2.1498,-2.1826,-2.3124,-2.4008,-2.4361,-2.5673,-2.6552,-2.6919,-2.7581,-2.8161,-2.8667,-2.8889,-2.9087,-2.922,-2.922,-2.9128,-2.9024,-2.9393,-2.9301,-2.9068,-2.9724,-3.0348,-3.0948,-3.1762,-3.2446,-3.2986,0.4821,0.3353,0.0,0.0,0.0,0.0,0.0,0.0,0.0,0.0,0.0,0.0,0.0,0.0,0.0,0.0,0.0,-0.7795,-0.6476,0.0,-0.8224,0.0,0.0,-0.7952,0.0,-0.8175,-0.7987,-0.7997,-0.7992,-0.8093,0.0,0.0,0.0,0.0,0.0,-0.8269,-0.8293,-0.9242,-0.9665,-0.9889,-1.1892,-1.3427,-1.4583,0.0,-1.5438,-1.6367,-1.7292,0.0,0.0,-1.7569,-1.7512,0.0,0.0,0.0,0.0,0.0,0.0,0.0,0.0,0.0,0.0,-1.6013,0.0,0.0,0.0,0.0,-1.5358,0.0,0.0,0.0,0.0,0.0,-1.5965,-1.6533,-1.6778,0.0,0.0,0.0,0.0,0.0,0.0,0.0,0.0,0.0,-1.7822,-1.9279,-1.8542,-1.8196,-1.8848,-1.9812,-2.0339,-2.0339,-2.1738,-2.2717,-2.3183,-2.4447,-2.5389,-2.5852,-2.7066,-2.7935,-2.8434,-2.8644,-2.9037,-2.9485,-2.9485,-2.9485,-2.9485,-2.9485,-2.9485,-2.9485,-2.9231,-2.9646,-3.0499,-3.1649,-3.2109,-3.2298,0.0,0.0,0.0,0.0,0.0,0.0,0.0,-0.2076,0.0,0.0,0.0,0.0,0.0,-0.38,-0.4212,0.0,0.0,-0.6143,-0.5653,-0.6764,0.0,0.0,0.0,-0.7754,0.0,-0.7919,-0.7943,-0.8627,-0.8358,-0.8329,0.0,0.0,0.0,0.0,0.0,-0.8018,0.0,0.0,0.0,0.0,0.0,-1.0945,-1.2234,0.0,0.0,-1.5888,-1.6881,-1.7709,0.0,-1.8591,-1.8216,-1.7853,-1.8266,-1.7843,-1.7244,-1.8258,-1.8353,0.0,0.0,0.0,-1.7919,-1.5863,0.0,0.0,0.0,0.0,0.0,0.0,0.0,0.0,0.0,0.0,-1.5124,-1.5956,-1.6412,-1.6682,0.0,0.0,0.0,0.0,0.0,0.0,0.0,0.0,0.0,-1.9382,-1.9728,-1.9786,-1.9579,-1.982,-1.9911,-1.9538,-2.1123,-2.1915,-2.1924,-2.3587,-2.4447,-2.4436,-2.5798,-2.6921,-2.7766,-2.8255,-2.8936,-2.9783,-2.9783,-2.968,-2.9485,-2.9852,-2.976,-2.9485,-2.96,-2.9701,-2.9866,-3.0948,-3.1716,-3.2177,0.5209,0.0,0.0,0.0,0.0,0.0,0.0,0.0,0.0,0.0,-0.2962,0.0,-0.2623,0.0,-0.3519,0.0,-0.4622,-0.5332,-0.5039,-0.6263,0.0,-0.7458,-0.7569,0.0,0.0,0.0,-0.8179,-0.8742,-0.8369,-0.8406,0.0,0.0,0.0,0.0,0.0,0.0,-0.8805,0.0,-0.941,0.0,0.0,-0.9656,0.0,0.0,-1.2814,-1.4807,0.0,-1.7317,-1.803,-1.8722,-1.8672,-1.8435,-1.9146,-1.8547,-1.7832,-1.879,-1.878,-1.8409,-1.8637,-1.8833,0.0,-1.6299,-1.6198,0.0,-1.464,0.0,0.0,0.0,0.0,0.0,0.0,0.0,-1.4653,-1.5661,-1.6207,-1.645,0.0,-1.6958,0.0,0.0,0.0,0.0,0.0,0.0,-1.8871,-1.956,-1.9971,-2.0075,0.0,0.0,-1.9928,-1.9554,-2.0619,-2.123,-2.1221,-2.2629,-2.3327,-2.3404,-2.4563,-2.5836,-2.7183,-2.7788,-2.8768,-2.9966,-2.9966,-2.9863,-2.976,-3.0034,-3.0034,-2.976,-2.9886,-2.9783,-2.9782,-3.0593,-3.1422,-3.2362,0.0,0.0,0.0,0.0,0.2958,0.0,0.0,0.0,-0.077,0.0,-0.2654,-0.2596,-0.2685,-0.3266,-0.3628,-0.344,-0.4638,0.0,-0.4646,-0.6212,0.0,0.0,-0.8117,-0.8692,-0.9259,0.0,0.0,-0.8498,-0.8166,-0.8351,-0.8988,0.0,0.0,0.0,-0.8301,0.0,-0.8869,-0.9781,-1.0143,-1.0096,-0.9421,-0.9721,-1.0452,-1.0035,-1.0986,-1.2973,-1.5344,-1.6511,-1.7179,-1.8032,-1.8783,-1.9272,-1.9272,-1.9279,-1.9279,-1.9279,-1.9279,-1.9308,-1.9099,-1.9015,-1.8661,-1.7321,0.0,0.0,0.0,0.0,-1.5394,0.0,0.0,0.0,0.0,0.0,0.0,-1.5744,-1.6008,-1.6143,0.0,0.0,0.0,0.0,0.0,0.0,0.0,-1.7651,-1.7587,-1.9703,-1.9283,-1.9182,0.0,0.0,-2.0339,-2.0292,-2.0382,-2.0555,-2.0997,-2.1658,-2.2189,-2.2648,-2.3308,-2.461,-2.6544,-2.7073,-2.8344,-3.0091,-3.0114,-3.0125,-3.0216,-3.0216,-3.0216,-3.0216,-2.9966,-2.9886,-2.9942,-3.0453,-3.1449,-3.2569,0.5303,0.482,0.4443,0.0,0.4071,0.2861,0.0,0.0,0.0,0.0,-0.2108,-0.2218,-0.1943,-0.2374,-0.2883,-0.3184,-0.3612,0.0,0.0,0.0,0.0,-0.7238,-0.782,-0.8522,-0.9264,-0.8408,0.0,-0.8783,-0.8295,-0.8346,-0.8764,0.0,0.0,0.0,0.0,0.0,-0.8422,-0.8817,-0.9122,-0.9396,-0.9194,-0.9371,0.0,0.0,-1.0301,-1.1171,-1.3319,-1.486,-1.5949,-1.7095,-1.7956,-1.8672,-1.9153,-1.9279,-1.9279,-1.9279,-1.9279,-1.9302,-1.9276,-1.9179,-1.888,-1.7539,-1.731,-1.7212,0.0,0.0,0.0,0.0,0.0,0.0,0.0,0.0,0.0,0.0,-1.4861,0.0,0.0,0.0,0.0,-1.6179,0.0,0.0,-1.7437,-1.7641,-1.8294,-1.9612,-1.9381,-1.9752,-2.1144,0.0,0.0,-2.0529,-2.1006,-2.1105,-2.0727,-2.1624,-2.2059,-2.1952,-2.2492,-2.3565,-2.5091,-2.5329,-2.67,-2.8948,-2.9032,-2.9474,-3.0216,-3.0216,-3.0216,-3.0216,-3.0136,-3.0136,-3.0239,-3.0955,-3.1757,-3.2569,0.5235,0.0,0.0,0.48,0.0,0.0,0.2016,0.0,0.0,-0.0,-0.0867,0.0,-0.1172,-0.1899,-0.2631,-0.3264,-0.3268,0.0,-0.4526,0.0,0.0,-0.6989,-0.8102,-0.8952,-0.9447,-0.8718,0.0,-0.877,0.0,0.0,-0.8003,0.0,0.0,0.0,0.0,-0.7722,0.0,-0.9076,-0.9436,-0.9337,-0.9413,0.0,0.0,-0.9799,-1.0083,-1.0594,-1.1738,-1.3068,-1.4396,-1.5647,-1.6873,-1.795,-1.8428,-1.8909,-1.9279,-1.9279,-1.9279,-1.9279,-1.9279,-1.9279,-1.9103,-1.8364,-1.8182,-1.7934,-1.6981,-1.6575,-1.6259,0.0,0.0,0.0,0.0,0.0,0.0,0.0,0.0,0.0,0.0,0.0,0.0,0.0,-1.5575,0.0,-1.6089,-1.6824,-1.766,-1.8769,-1.8917,-1.9418,0.0,0.0,0.0,-2.0815,-2.1277,-2.1452,-2.1356,-2.1286,-2.1452,-2.1872,-2.1802,-2.2631,-2.4296,-2.4736,-2.6274,-2.8488,-2.8804,-2.9382,-3.0216,-3.0216,-3.0216,-3.0216,-3.0216,-3.0216,-3.0319,-3.0947,-3.1659,-3.2248,0.0,0.0,0.0,0.0,0.0,0.0,0.0,0.2418,0.0,0.1505,0.0,-0.0451,-0.0575,-0.1592,-0.2556,-0.3219,0.0,-0.3517,-0.4271,-0.5553,-0.6425,-0.6695,-0.8403,-0.9486,-0.9661,-0.9336,0.0,0.0,0.0,0.0,0.0,0.0,0.0,0.0,0.0,0.0,0.0,-0.9614,-0.993,-0.9511,-0.9749,-0.9916,-0.9929,-1.0025,-1.0252,-1.0692,-1.0692,-1.1608,-1.2859,-1.4035,-1.5441,-1.686,-1.7382,-1.8199,-1.9146,-1.9272,-1.9279,-1.9279,-1.9279,-1.9279,-1.9279,-1.9279,-1.9279,-1.8964,-1.7786,-1.7732,-1.7341,-1.5639,-1.5448,-1.5637,0.0,0.0,0.0,0.0,0.0,0.0,0.0,0.0,0.0,0.0,0.0,0.0,-1.5248,-1.5782,-1.6583,-1.7673,-1.8089,-1.8554,0.0,0.0,0.0,-2.1343,-2.1427,-2.1731,-2.2183,0.0,-2.1047,-2.1989,-2.1391,-2.2048,-2.3732,-2.4534,-2.6061,-2.8118,-2.869,-2.9301,-3.0023,-3.0125,-3.0216,-3.0216,-3.0216,-3.0216,-3.0273,-3.0732,-3.1272,-3.1834,0.0,0.0,0.0,0.0,0.0,0.3927,0.4148,0.2219,0.0943,0.1553,0.0372,-0.0576,-0.0406,-0.125,-0.2113,-0.2756,-0.2758,0.0,0.0,0.0,0.0,-0.6545,-0.7904,-0.8962,-0.9843,-0.964,-0.9287,0.0,0.0,0.0,0.0,0.0,0.0,0.0,0.0,0.0,-0.6909,-0.852,0.0,-0.8244,-0.9448,-0.9916,-0.9983,-1.0383,-1.0582,-1.0692,-1.0692,-1.127,-1.2188,-1.2845,-1.3935,-1.5308,-1.6676,-1.7486,-1.8074,-1.9027,-1.9279,-1.9279,-1.9279,-1.9279,-1.9279,-1.9279,-1.9279,-1.9147,-1.865,-1.8383,-1.8008,-1.7413,-1.7139,-1.6758,-1.5967,0.0,0.0,0.0,0.0,0.0,0.0,0.0,0.0,0.0,0.0,-1.6485,0.0,-1.5863,-1.6446,-1.7324,-1.7275,-1.8147,0.0,0.0,0.0,0.0,-2.2485,0.0,0.0,0.0,-2.2284,-2.1671,-2.1586,-2.2115,-2.3174,-2.3138,-2.4063,-2.5838,-2.7232,-2.8258,-2.9002,-2.984,-3.0216,-3.0216,-3.0216,-3.0216,-3.0227,-3.0331,-3.095,-3.1834,0.0,0.0,0.0,0.0,0.0,0.0,0.0,0.2566,0.0,0.2366,0.1474,0.0597,0.0206,-0.0531,-0.1522,-0.2657,-0.253,-0.2747,-0.3768,-0.4461,-0.5358,-0.669,-0.7846,0.0,-1.003,-0.9945,-0.9547,-0.882,0.0,0.0,0.0,0.0,0.0,0.0,0.0,-0.6824,0.0,0.0,0.0,-0.8639,-0.9855,-1.0281,-1.0318,-1.0558,-1.0692,-1.0692,-1.0692,-1.0924,-1.1384,-1.1731,-1.2855,-1.4065,-1.5013,-1.6398,-1.7714,-1.8303,-1.8797,-1.9279,-1.9279,-1.9279,-1.9279,-1.9279,-1.9147,-1.8986,-1.8825,-1.8401,-1.8006,-1.7845,-1.7552,-1.7217,-1.6923,-1.5952,0.0,0.0,0.0,0.0,0.0,0.0,0.0,0.0,0.0,0.0,0.0,0.0,0.0,0.0,0.0,0.0,0.0,0.0,0.0,0.0,0.0,0.0,0.0,0.0,0.0,-2.2359,-2.2155,-2.2432,-2.3076,-2.3385,-2.422,-2.5473,-2.6546,-2.7494,-2.8154,-2.9095,-2.9749,-3.0216,-3.0216,-3.0216,-3.0216,-3.0216,-3.0709,-3.1444,0.0,0.515,0.0,0.0,0.3578,0.0,0.394,0.3069,0.26,0.33,0.2614,0.1774,0.1058,0.0109,-0.1009,-0.2408,-0.2386,-0.2492,-0.3314,-0.401,-0.514,-0.6753,-0.7761,-0.8878,-1.0221,-1.0253,-0.9872,0.0,0.0,0.0,0.0,0.0,0.0,0.0,0.0,0.0,0.0,0.0,-0.9878,-0.9009,-1.0248,-1.0692,-1.0692,-1.0692,-1.0692,-1.0692,-1.0692,-1.0692,-1.0692,-1.0924,-1.1827,-1.2959,-1.35,-1.5215,-1.7206,-1.7539,-1.8457,-1.9279,-1.9279,-1.9279,-1.9257,-1.9191,-1.8979,-1.8752,-1.8613,-1.8182,-1.7794,-1.7728,-1.7508,-1.7393,-1.7584,-1.7249,0.0,0.0,0.0,0.0,0.0,0.0,0.0,0.0,0.0,0.0,-1.8278,0.0,0.0,0.0,0.0,0.0,-1.8527,0.0,0.0,0.0,0.0,-2.1849,-2.2417,0.0,-2.2034,-2.2785,-2.2532,-2.2618,-2.3164,-2.3933,-2.4598,-2.529,-2.6178,-2.6935,-2.7683,-2.8445,-2.9198,-2.9932,-3.0125,-3.0216,-3.0216,-3.0216,-3.056,-3.1088,0.0,0.0,0.0,0.0,0.0,0.0,0.4184,0.3827,0.3597,0.3579,0.2815,0.2271,0.2161,0.0578,-0.0815,-0.1842,-0.2182,-0.2396,-0.2477,-0.3249,-0.4547,-0.6317,-0.7278,-0.8487,-1.0305,-1.0562,-1.0359,0.0,0.0,-0.7764,0.0,0.0,0.0,0.0,0.0,0.0,0.0,-0.9209,-0.9481,-0.7889,-0.9904,-1.0692,-1.0692,-1.0692,-1.0692,-1.0692,-1.0692,-1.0692,-1.0692,-1.0692,-1.1034,-1.1485,-1.2925,-1.4385,-1.5919,-1.7259,-1.8436,-1.9279,-1.9279,-1.9279,-1.9206,-1.8906,-1.8811,-1.8635,-1.8043,-1.786,-1.7728,-1.7435,-1.7347,-1.7217,-1.7009,-1.7151,-1.749,0.0,0.0,0.0,0.0,0.0,0.0,0.0,0.0,0.0,0.0,-1.6939,0.0,0.0,-1.7315,0.0,0.0,0.0,0.0,-2.0922,0.0,-2.1188,-2.0318,-2.2022,-2.2494,-2.1742,-2.2159,-2.2618,-2.3086,-2.3568,-2.3951,-2.4268,-2.6084,-2.7125,-2.7683,-2.8642,-2.8921,-2.891,-2.984,-3.0216,-3.0216,-3.0216,-3.056,-3.1088,0.0,0.0,0.0,0.0,0.0,0.0,0.0,0.3911,0.3861,0.3812,0.341,0.3043,0.2362,0.1189,0.0,-0.0947,-0.1643,-0.2086,-0.2281,-0.2932,-0.4018,-0.5755,-0.7011,-0.8342,-0.9821,-1.0437,-1.0428,0.0,0.0,0.0,0.0,0.0,0.0,0.0,0.0,-0.688,-0.663,-0.9455,-0.9903,-0.8809,-1.0139,-1.0692,-1.0692,-1.0692,-1.0692,-1.0692,-1.0692,-1.0692,-1.0692,-1.0692,-1.0911,-1.1244,-1.2023,-1.3217,-1.4724,-1.615,-1.7277,-1.8093,-1.8759,-1.884,-1.8657,-1.8525,-1.835,-1.8138,-1.7874,-1.7662,-1.7486,-1.7355,-1.7426,-1.7687,-1.8182,-1.7746,-1.7961,0.0,0.0,0.0,0.0,0.0,0.0,0.0,0.0,0.0,0.0,0.0,0.0,0.0,0.0,0.0,0.0,0.0,0.0,-2.0183,0.0,-2.1702,-2.0943,-2.2368,-2.2882,-2.2456,-2.2717,-2.296,-2.3076,-2.3842,-2.4229,-2.4535,-2.5363,-2.6081,-2.6754,-2.7589,-2.8434,-2.929,-2.9932,-2.9932,-2.9555,-2.9371,-2.9413,-2.9702,0.4671,0.0,0.4522,0.0,0.3984,0.4053,0.3969,0.3922,0.3951,0.3951,0.3876,0.3597,0.3029,0.1812,0.0721,0.0239,-0.1062,-0.1976,-0.2172,-0.2709,-0.3695,-0.5035,-0.6702,0.0,-0.9251,-1.0249,-1.0505,-1.0123,-0.8784,0.0,0.0,0.0,0.0,0.0,-0.629,-0.6975,-0.7521,-0.9439,-0.9805,-0.9361,-1.0359,-1.0692,-1.0692,-1.0582,-1.0582,-1.0582,-1.0472,-1.0472,-1.0582,-1.0582,-1.0692,-1.0907,-1.135,-1.2417,-1.3685,-1.4938,-1.6125,-1.7299,-1.8168,-1.8557,-1.8562,-1.8467,-1.8277,-1.8072,-1.7984,-1.7779,-1.7589,-1.7596,-1.7688,-1.7994,-1.8643,-1.8208,-1.8349,-2.0105,0.0,0.0,0.0,0.0,0.0,0.0,-2.2371,-2.1441,-2.1272,-1.8731,0.0,0.0,0.0,0.0,0.0,0.0,0.0,0.0,0.0,0.0,-2.1524,-2.2533,-2.3135,-2.3135,-2.3135,-2.3135,-2.3164,-2.4023,-2.461,-2.503,-2.503,-2.5226,-2.5703,-2.6542,-2.7673,-2.9013,-2.9566,-2.9463,-2.9084,-2.8817,-2.8527,-2.8481,0.4632,0.4339,0.4115,0.398,0.3745,0.3669,0.3912,0.395,0.3951,0.3951,0.395,0.4071,0.4315,0.2309,0.1197,0.1531,-0.0464,-0.1828,-0.1797,-0.2578,-0.3471,0.0,0.0,-0.8036,-0.892,-1.0029,-1.0688,-1.068,0.0,0.0,-0.7094,0.0,-0.4997,-0.7109,-0.5992,-0.6701,-0.8913,-0.892,-0.8923,-0.903,-1.0249,-1.0692,-1.0692,-1.0363,-1.0257,-1.0257,-0.9926,-1.0036,-1.0257,-1.0257,-1.0257,-1.0363,-1.0911,-1.1958,-1.3102,-1.3547,-1.5458,-1.7298,-1.76,-1.8422,-1.9184,-1.8862,-1.8782,-1.8694,-1.8372,-1.8291,-1.8302,-1.8178,-1.8135,-1.7994,-1.7721,-1.8535,-1.8725,-1.7397,0.0,0.0,0.0,0.0,0.0,-2.3097,-2.1776,-2.1613,-2.3482,-2.0509,0.0,0.0,0.0,0.0,0.0,0.0,0.0,-2.0475,-2.0941,0.0,-2.1182,-2.2447,-2.3135,-2.3135,-2.3135,-2.3135,-2.3164,-2.4023,-2.4714,-2.5333,-2.5333,-2.503,-2.4627,-2.5703,-2.6754,-2.7683,-2.8434,-2.8899,-2.9084,-2.8817,-2.8049,-2.7514,0.4057,0.4008,0.4005,0.3924,0.3887,0.3861,0.3939,0.3951,0.3951,0.3951,0.4071,0.4316,0.4687,0.2553,0.1077,0.0,-0.058,-0.1827,0.0,-0.2803,-0.3474,-0.3583,-0.559,-0.7149,-0.8036,-0.892,-0.9919,-1.0692,0.0,0.0,0.0,-0.3969,-0.4053,-0.4805,-0.5241,-0.5836,-0.6594,-0.8257,-0.892,-0.903,-1.0249,-1.0582,-1.0476,-1.0366,-1.0147,-0.9926,-0.9816,-0.9816,-0.9926,-0.9926,-1.0147,-1.0366,-1.0472,-1.1084,-1.2013,-1.327,-1.4199,-1.5181,-1.6834,-1.734,-1.767,-1.8282,-1.846,-1.853,-1.8518,-1.8693,-1.8867,-1.9054,-1.8947,-1.8781,-1.8684,-1.859,-1.8511,-1.8617,-1.9892,0.0,0.0,0.0,0.0,-2.1681,-2.0435,-1.9787,-2.033,-1.9008,0.0,0.0,0.0,0.0,0.0,0.0,0.0,0.0,-2.1109,0.0,-2.1182,-2.2361,-2.2969,-2.3135,-2.3135,-2.3447,-2.4023,-2.4297,-2.461,-2.5039,-2.5039,-2.4833,-2.4627,-2.5703,-2.6466,-2.7115,-2.7683,-2.7673,-2.7189,-2.702,-2.6648,-2.648,0.3828,0.3951,0.3951,0.3951,0.3951,0.3951,0.3951,0.3951,0.3951,0.3951,0.4071,0.4318,0.4442,0.2419,0.0,0.1412,-0.0577,-0.1815,-0.1796,-0.2691,-0.3141,-0.2915,-0.4923,-0.6262,-0.6813,-0.8146,0.0,-1.0025,-0.8097,-0.596,-0.363,-0.363,-0.3804,-0.4257,-0.459,-0.5258,-0.6146,-0.7146,-0.8146,-0.892,-0.9588,-1.0033,-1.0257,-1.0147,-1.0036,-0.9816,-0.9706,-0.9816,-0.9926,-0.9816,-1.0036,-1.0366,-1.0476,-1.0692,-1.1236,-1.254,-1.3245,-1.3925,-1.5694,-1.6329,-1.6817,-1.8051,-1.8354,-1.8455,-1.9052,-1.9369,-1.9483,-1.968,-1.9481,-1.92,-1.9102,-1.8739,-1.8499,-1.8854,-1.9517,-2.0188,-2.0598,0.0,0.0,0.0,0.0,0.0,0.0,-1.9383,-1.912,0.0,0.0,0.0,0.0,0.0,0.0,-2.0209,-2.1469,0.0,-2.1655,-2.2447,-2.2882,-2.3135,-2.3135,-2.3584,-2.4414,-2.4414,-2.461,-2.4932,-2.4932,-2.4735,-2.444,-2.5216,-2.5974,-2.6723,-2.702,-2.6819,-2.634,-2.6177,-2.5703,-2.5429,0.3828,0.3951,0.3951,0.0,0.3951,0.0,0.3951,0.3951,0.3951,0.3951,0.3951,0.395,0.395,0.2278,0.1411,0.1997,0.0,0.0,0.0,-0.2357,-0.2693,-0.2693,-0.4369,-0.5371,-0.5371,-0.759,-0.8809,-0.892,-0.7805,-0.6031,-0.3699,-0.3703,-0.4263,-0.527,-0.4158,-0.4825,-0.6818,-0.5824,-0.671,-0.8809,-0.8592,-0.9261,-1.0257,-0.9926,-0.9816,-0.9816,-0.9489,-0.982,-1.0257,-0.9926,-1.0036,-1.0366,-1.0582,-1.0692,-1.0802,-1.135,-1.2397,-1.344,-1.4297,-1.5328,-1.6505,-1.7996,-1.8422,-1.884,-1.9872,-2.0053,-2.0039,-2.0039,-1.9782,-1.945,-1.9238,-1.892,-1.861,-1.8375,-1.9054,-1.9209,-1.797,0.0,0.0,0.0,0.0,0.0,0.0,-2.1002,-2.1094,0.0,0.0,0.0,0.0,0.0,-2.0108,-2.1686,-2.1919,-2.2185,-2.2353,-2.2618,-2.2882,-2.3135,-2.3135,-2.3584,-2.4414,-2.4414,-2.461,-2.4932,-2.4932,-2.4646,-2.4251,-2.444,-2.5197,-2.634,-2.636,-2.635,-2.6244,-2.6081,-2.5226,-2.4461,0.0,0.0,0.3951,0.3951,0.3951,0.3951,0.3951,0.3951,0.3951,0.3951,0.4319,0.4689,0.4689,0.2996,0.1879,0.2114,-0.0342,-0.1795,-0.1795,-0.2803,-0.3141,-0.2693,-0.4033,-0.4925,-0.5371,-0.6811,-0.8029,-0.892,-0.8589,-0.7254,-0.4927,-0.4991,-0.4679,-0.4114,-0.382,-0.4045,-0.4564,-0.5248,-0.6219,-0.7584,-0.8478,-0.9368,-1.0257,-0.9926,-0.9816,-0.9816,-0.9489,-0.9599,-0.9926,-0.9816,-1.0036,-1.0257,-1.0366,-1.0582,-1.0802,-1.1131,-1.1746,-1.2582,-1.3911,-1.4572,-1.5541,-1.7779,-1.9257,-2.0101,-2.0308,-2.0546,-2.0696,-2.0696,-2.0429,-2.0194,-1.983,-1.9376,-1.892,-1.8558,-1.8383,-1.8086,-1.7738,-1.8355,-1.8504,0.0,-1.8433,-1.9156,-1.9408,-1.9707,-1.9761,0.0,0.0,0.0,0.0,-1.9949,-2.0534,-2.1704,-2.1741,-2.1919,-2.2185,-2.2353,-2.2706,-2.3135,-2.3135,-2.3584,-2.4414,-2.4414,-2.461,-2.4932,-2.4932,-2.4735,-2.444,-2.4735,-2.5118,-2.5509,-2.5616,-2.5411,-2.5216,-2.5226,-2.4735,-2.4461,0.3703,0.3703,0.3703,0.3828,0.3951,0.3951,0.3951,0.3951,0.3951,0.3951,0.4318,0.4687,0.4687,0.2996,0.1881,0.1881,-0.0343,-0.1795,-0.1795,-0.2692,-0.3029,-0.2693,-0.3587,-0.4257,-0.459,-0.5855,-0.6912,-0.7763,-0.765,-0.6628,-0.4925,-0.474,-0.4414,-0.3721,-0.3755,-0.3736,-0.3793,-0.4364,-0.5564,-0.7138,-0.759,-0.8702,-1.0257,-0.9926,-0.9926,-1.0036,-0.9816,-1.0036,-1.0143,-1.0033,-1.0257,-1.0472,-1.0472,-1.0582,-1.0692,-1.0911,-1.1236,-1.1891,-1.3181,-1.3722,-1.4476,-1.714,-1.8719,-1.9747,-2.0178,-2.0358,-2.048,-2.0444,-2.0257,-2.0039,-1.9807,-1.9422,-1.904,-1.8857,-1.8177,-1.7494,-1.7345,-1.7299,-1.7338,-1.735,-1.8101,-1.8896,-1.9402,-1.9695,-1.9704,-1.9367,-1.9739,0.0,-2.0066,-2.053,-2.1029,-2.1722,-2.1741,-2.183,-2.2097,-2.2451,-2.2794,-2.3135,-2.334,-2.3779,-2.4424,-2.4619,-2.4793,-2.4932,-2.5039,-2.4833,-2.4529,-2.4932,-2.5137,-2.5333,-2.543,-2.5235,-2.4932,-2.4932,-2.4637,-2.4461,0.3332,0.3579,0.358,0.3828,0.3951,0.3951,0.3951,0.395,0.395,0.395,0.4318,0.4561,0.4561,0.2876,0.1648,0.1652,-0.0459,-0.18,-0.1795,-0.2361,-0.2704,-0.2816,-0.3272,-0.3615,-0.3727,-0.5142,-0.6134,-0.6567,-0.6336,-0.5637,-0.4469,-0.4246,-0.4012,-0.377,-0.3779,-0.3744,-0.3679,-0.3679,-0.4885,-0.6808,-0.6482,-0.7814,-1.0033,-0.9926,-1.0036,-1.0366,-1.0257,-1.0476,-1.0692,-1.0476,-1.0472,-1.0692,-1.0692,-1.0692,-1.0692,-1.0692,-1.0911,-1.1236,-1.2441,-1.2985,-1.3835,-1.6237,-1.7709,-1.873,-1.9521,-1.9688,-1.9752,-1.9959,-1.9787,-1.9556,-1.9614,-1.9322,-1.9062,-1.8854,-1.7873,-1.7029,-1.6654,0.0,-1.6485,-1.7135,-1.7959,-1.886,-2.0008,-2.011,-2.0201,-2.0292,-2.0564,-2.0826,-2.0997,-2.1293,-2.1482,-2.1731,-2.1741,-2.183,-2.2185,-2.253,-2.2882,-2.3144,-2.3584,-2.4014,-2.4434,-2.4863,-2.5015,-2.4932,-2.5137,-2.503,-2.4637,-2.5137,-2.5333,-2.5333,-2.5538,-2.5333,-2.4932,-2.4932,-2.4637,-2.4371,0.3455,0.3703,0.3828,0.3951,0.3951,0.3951,0.3951,0.4195,0.4316,0.4316,0.4807,0.5298,0.5298,0.3353,0.2008,0.1915,-0.035,-0.1823,-0.1797,-0.2386,-0.2861,-0.3205,-0.3481,-0.3857,-0.4203,-0.514,-0.6085,-0.7153,-0.7153,-0.645,-0.5284,-0.5358,-0.4763,-0.3771,-0.3823,-0.3783,-0.3679,-0.3679,-0.4435,-0.5704,-0.6369,-0.759,-0.9144,-0.9592,-1.0143,-1.0582,-1.0366,-1.0476,-1.0692,-1.0692,-1.0692,-1.0692,-1.0692,-1.0692,-1.0692,-1.0692,-1.0692,-1.0911,-1.1568,-1.3186,-1.4854,-1.5584,-1.6633,-1.7666,-1.8416,-1.8617,-1.889,-1.9736,-1.9908,-1.97,-1.9478,-1.9391,-1.8972,-1.7787,-1.6547,-1.5692,-1.5637,0.0,-1.6292,-1.6469,-1.8113,-1.9257,-1.9088,-1.9463,-1.9828,-2.0292,-2.0564,-2.0826,-2.0997,-2.1293,-2.1482,-2.1731,-2.1741,-2.1909,-2.2353,-2.2441,-2.2696,-2.3144,-2.3584,-2.4014,-2.4434,-2.4863,-2.5015,-2.4932,-2.5137,-2.5137,-2.4833,-2.5137,-2.543,-2.5635,-2.543,-2.5137,-2.4932,-2.4932,-2.4735,-2.465,0.2961,0.3208,0.3455,0.3703,0.3826,0.3951,0.3951,0.4195,0.4316,0.4195,0.4687,0.5054,0.493,0.3019,0.1791,0.1684,-0.0472,-0.1859,-0.1845,-0.2551,-0.3144,-0.326,-0.3986,-0.4372,-0.4529,-0.4883,-0.5379,-0.6026,-0.5784,-0.5422,-0.4943,-0.4699,-0.4441,-0.3818,-0.3813,-0.3762,-0.3679,-0.3679,-0.4323,-0.5483,-0.6369,-0.759,-0.9034,-0.9812,-1.0366,-1.0692,-1.0586,-1.0582,-1.0692,-1.0692,-1.0692,-1.0692,-1.0692,-1.0627,-1.057,-1.0664,-1.0911,-1.124,-1.1568,-1.2783,-1.4044,-1.4664,-1.5252,-1.6208,-1.7561,-1.7785,-1.8089,-1.9151,-1.9336,-1.9312,-1.9154,-1.9107,-1.874,-1.7707,-1.6901,0.0,0.0,-1.6406,-1.6513,-1.7011,-1.8071,-1.8635,-1.8458,-1.9188,-1.9737,-2.0019,-2.0555,-2.1006,-2.1195,-2.1472,-2.1562,-2.1741,-2.183,-2.2087,-2.2441,-2.253,-2.2794,-2.3144,-2.3809,-2.4228,-2.4443,-2.4927,-2.514,-2.4932,-2.5137,-2.5137,-2.4932,-2.5342,-2.5635,-2.5635,-2.544,-2.5137,-2.4932,-2.4932,-2.4735,-2.465,0.2467,0.2714,0.3085,0.3455,0.3703,0.3826,0.3951,0.4195,0.4441,0.4196,0.4687,0.4933,0.4685,0.2917,0.1809,0.1574,-0.0358,-0.1661,-0.1907,-0.2739,-0.3328,-0.3433,-0.4394,-0.4906,-0.4724,-0.4725,-0.4754,-0.4689,-0.4441,-0.4316,-0.4315,-0.4008,-0.3853,-0.3837,-0.3775,-0.3714,-0.3657,-0.3657,-0.4194,-0.5037,-0.5926,-0.7146,-0.8585,-0.9478,-1.0253,-1.0692,-1.0692,-1.0692,-1.0692,-1.0692,-1.0692,-1.0684,-1.0643,-1.0542,-1.0452,-1.0542,-1.0895,-1.1346,-1.1542,-1.2178,-1.2951,-1.3629,-1.401,-1.466,-1.6346,-1.6816,-1.7276,-1.829,-1.8629,-1.8814,-1.8879,-1.8816,-1.8573,-1.7787,0.0,0.0,0.0,-1.6915,-1.687,-1.7695,-1.79,-1.7994,-1.8087,-1.8912,-1.9554,-1.9837,-2.0555,-2.1096,-2.1392,-2.1562,-2.1741,-2.1741,-2.1919,-2.2097,-2.2441,-2.2618,-2.293,-2.3301,-2.4062,-2.4473,-2.46,-2.5083,-2.5235,-2.503,-2.5235,-2.5137,-2.5039,-2.5538,-2.5742,-2.5645,-2.5333,-2.5039,-2.4932,-2.4833,-2.4735,-2.4758,0.2467,0.2714,0.3085,0.3455,0.3455,0.358,0.3828,0.4442,0.481,0.4812,0.5177,0.5298,0.5298,0.3887,0.2542,0.1598,0.0243,-0.0968,-0.1968,-0.2583,-0.3298,-0.3849,-0.4875,-0.5039,-0.4432,-0.443,-0.4312,-0.395,-0.395,-0.395,-0.3948,-0.3888,-0.383,-0.3774,-0.3711,-0.3651,-0.3594,-0.3594,-0.3703,-0.3811,-0.4706,-0.5926,-0.7362,-0.826,-0.9478,-1.0692,-1.0692,-1.0692,-1.0692,-1.0692,-1.0692,-1.0664,-1.0505,-1.0444,-1.0404,-1.0245,-1.0305,-1.0485,-1.1363,-1.185,-1.2284,-1.2615,-1.2988,-1.3441,-1.428,-1.5248,-1.6177,-1.7232,-1.8172,-1.8835,-1.8767,-1.8843,-1.8494,-1.7477,0.0,0.0,-1.7318,-1.7024,-1.721,-1.7964,-1.7908,-1.7815,-1.8087,-1.855,-1.9196,-1.9837,-2.0555,-2.1096,-2.1392,-2.1562,-2.1741,-2.1741,-2.1741,-2.1909,-2.2441,-2.2441,-2.2897,-2.375,-2.4199,-2.4629,-2.5029,-2.5218,-2.5333,-2.5235,-2.5333,-2.5333,-2.5333,-2.5538,-2.5742,-2.5645,-2.5137,-2.4932,-2.4833,-2.4637,-2.4646,-2.4994,0.2222,0.2591,0.3085,0.3208,0.3455,0.3826,0.4195,0.4564,0.4935,0.4935,0.5177,0.5298,0.4807,0.3676,0.2571,0.1355,0.0123,-0.0858,-0.1975,-0.2223,-0.3076,-0.4398,-0.5282,-0.5546,-0.5053,-0.4808,-0.4564,-0.4195,-0.395,-0.3951,-0.3948,-0.3849,-0.3792,-0.3764,-0.3666,-0.3609,-0.3587,-0.3587,-0.3587,-0.3811,-0.559,-0.6586,-0.7249,-0.914,-1.0249,-1.0692,-1.0692,-1.0692,-1.0692,-1.0692,-1.0692,-1.0664,-1.0489,-1.0359,-1.0229,-1.0046,-1.0071,-1.0322,-1.0787,-1.127,-1.1728,-1.1856,-1.2374,-1.316,-1.413,-1.5045,-1.6082,-1.7102,-1.8064,-1.8827,-1.8827,-1.8827,-1.8557,-1.7723,0.0,-1.8089,-1.7644,-1.7785,-1.7939,-1.8041,-1.7908,-1.7721,-1.7815,-1.8265,-1.8996,-1.982,-2.0456,-2.1006,-2.1562,-2.1651,-2.1741,-2.1741,-2.1741,-2.183,-2.2185,-2.253,-2.2917,-2.3519,-2.4127,-2.4648,-2.5078,-2.5034,-2.5137,-2.5333,-2.5137,-2.5137,-2.5333,-2.5635,-2.5635,-2.544,-2.5039,-2.4824,-2.4609,-2.4745,-2.4801,-2.4994,0.1977,0.2469,0.2838,0.2961,0.3455,0.395,0.4316,0.4687,0.4933,0.5056,0.5177,0.5054,0.4562,0.3821,0.2835,0.1603,0.0493,-0.0493,-0.1481,-0.2222,-0.3207,-0.4558,-0.5421,-0.5794,-0.5421,-0.5177,-0.492,-0.4529,-0.4288,-0.4156,-0.4011,-0.3907,-0.3858,-0.3736,-0.3634,-0.3587,-0.3587,-0.3587,-0.3587,-0.3811,-0.581,-0.6808,-0.736,-0.9361,-1.0359,-1.0692,-1.0692,-1.0692,-1.0692,-1.0692,-1.0692,-1.0664,-1.0489,-1.027,-1.0063,-0.9989,-0.9981,-1.0034,-1.0213,-1.0656,-1.1248,-1.1475,-1.2248,-1.3046,-1.3647,-1.4854,-1.5981,-1.6734,-1.787,-1.8827,-1.8827,-1.8827,-1.8669,-1.8184,-1.851,-1.8653,-1.8168,-1.8352,-1.8473,-1.828,-1.8094,-1.7908,-1.7815,-1.8265,-1.8904,-1.9629,-2.0275,-2.1015,-2.1651,-2.1741,-2.1741,-2.1741,-2.1741,-2.183,-2.2097,-2.2451,-2.2984,-2.3712,-2.4185,-2.4717,-2.5283,-2.5101,-2.5137,-2.543,-2.5137,-2.5137,-2.543,-2.5538,-2.544,-2.5235,-2.4932,-2.4618,-2.4501,-2.4665,-2.4839,-2.4994,0.1977,0.2222,0.259,0.2961,0.3332,0.3702,0.4316,0.4687,0.5056,0.5298,0.5054,0.4935,0.4935,0.4319,0.3579,0.259,0.1602,0.0616,-0.0493,-0.2587,-0.3943,-0.3943,-0.5176,-0.5792,-0.5419,-0.5419,-0.5258,-0.4819,-0.4819,-0.4542,-0.4232,-0.417,-0.391,-0.3676,-0.3615,-0.3587,-0.3587,-0.3587,-0.3587,-0.3699,-0.4925,-0.6146,-0.7252,-0.8475,-0.9695,-1.0692,-1.0688,-1.0688,-1.0688,-1.0688,-1.0688,-1.066,-1.0485,-1.018,-0.992,-1.0103,-0.9904,-0.9665,-0.9839,-1.0158,-1.0604,-1.1499,-1.2359,-1.3039,-1.2813,-1.4376,-1.5798,-1.5798,-1.7404,-1.8827,-1.8827,-1.8827,-1.8827,-1.8827,-1.8827,-1.8827,-1.8827,-1.8827,-1.8743,-1.8481,-1.8481,-1.8388,-1.8087,-1.855,-1.892,-1.9188,-2.0102,-2.1015,-2.1651,-2.1741,-2.1741,-2.1741,-2.1741,-2.183,-2.2097,-2.2264,-2.3038,-2.4414,-2.4424,-2.4883,-2.5732,-2.544,-2.544,-2.5645,-2.544,-2.543,-2.5635,-2.544,-2.5333,-2.5235,-2.4735,-2.452,-2.4501,-2.4486,-2.465,-2.4895,0.2716,0.2961,0.3209,0.3332,0.358,0.395,0.4687,0.4685,0.4808,0.5671,0.5302,0.4935,0.4935,0.4564,0.3453,0.1603,0.1221,0.0242,-0.1315,-0.2507,-0.3223,-0.3463,-0.4944,-0.579,-0.5487,-0.537,-0.5121,-0.4741,-0.4503,-0.4255,-0.3883,-0.3823,-0.3793,-0.3676,-0.3615,-0.3587,-0.3587,-0.3587,-0.3587,-0.3811,-0.581,-0.6808,-0.736,-0.9357,-1.0359,-1.0676,-1.0554,-1.0513,-1.0513,-1.0513,-1.0513,-1.0481,-1.0302,-0.9994,-0.9713,-0.977,-0.9709,-0.9665,-0.9839,-1.0251,-1.0806,-1.1288,-1.1826,-1.2454,-1.2683,-1.3811,-1.4956,-1.5609,-1.6828,-1.7963,-1.8635,-1.8827,-1.8827,-1.8827,-1.8827,-1.8827,-1.8827,-1.8827,-1.8743,-1.8481,-1.8481,-1.8481,-1.8381,-1.8473,-1.8936,-1.9654,-2.0654,-2.1383,-2.1651,-2.1741,-2.1741,-2.1741,-2.1741,-2.1909,-2.2353,-2.2735,-2.3334,-2.4156,-2.4633,-2.5176,-2.5732,-2.544,-2.544,-2.5645,-2.544,-2.5342,-2.543,-2.5333,-2.5039,-2.4735,-2.4529,-2.443,-2.435,-2.4641,-2.4665,-2.4711,0.3085,0.3192,0.343,0.3452,0.3666,0.4015,0.4555,0.4539,0.4653,0.5421,0.5056,0.4687,0.4687,0.4562,0.3821,0.2466,0.1702,0.0359,-0.177,-0.2591,-0.317,-0.3266,-0.4588,-0.5312,-0.5293,-0.5178,-0.4927,-0.4662,-0.4428,-0.4182,-0.3928,-0.3888,-0.3757,-0.364,-0.3604,-0.3587,-0.3587,-0.3587,-0.3587,-0.3811,-0.5699,-0.6478,-0.6697,-0.903,-0.9983,-0.9915,-1.0254,-1.0387,-1.0327,-1.0327,-1.0327,-1.0306,-1.0197,-0.9965,-0.973,-0.973,-0.9681,-0.9652,-0.9754,-1.0184,-1.0753,-1.1128,-1.1649,-1.2283,-1.2683,-1.3624,-1.458,-1.5609,-1.664,-1.7584,-1.8635,-1.8827,-1.8827,-1.8827,-1.8827,-1.8827,-1.8827,-1.8827,-1.8735,-1.8658,-1.8658,-1.8658,-1.8658,-1.8658,-1.902,-2.0019,-2.0555,-2.1105,-2.1651,-2.1741,-2.1741,-2.1741,-2.183,-2.2082,-2.2688,-2.3004,-2.3528,-2.4249,-2.4863,-2.5303,-2.5732,-2.5538,-2.5538,-2.5732,-2.5538,-2.544,-2.5333,-2.5235,-2.4932,-2.4538,-2.444,-2.435,-2.426,-2.4641,-2.4637,-2.4557,0.3453,0.3416,0.3521,0.357,0.3738,0.3941,0.4297,0.4264,0.4369,0.4802,0.4562,0.4316,0.4439,0.4315,0.4315,0.4315,0.2548,0.0477,-0.1644,-0.258,-0.3145,-0.2982,-0.3896,-0.4501,-0.4686,-0.4805,-0.4652,-0.4582,-0.4582,-0.4323,-0.3924,-0.3924,-0.3813,-0.3587,-0.3587,-0.3587,-0.3587,-0.3587,-0.3587,-0.3699,-0.4925,-0.5479,-0.5802,-0.8017,-0.8917,-0.8997,-0.9957,-1.0278,-1.0136,-1.0136,-1.0136,-1.0136,-1.0136,-1.001,-0.986,-0.986,-0.975,-0.9628,-0.9628,-0.992,-1.0511,-1.1096,-1.1727,-1.2318,-1.271,-1.3528,-1.4484,-1.5425,-1.6358,-1.739,-1.8442,-1.8635,-1.8727,-1.8827,-1.8827,-1.8827,-1.8827,-1.8827,-1.8827,-1.8827,-1.8827,-1.8827,-1.8827,-1.8827,-1.9196,-2.011,-2.0085,-2.0447,-2.1553,-2.1651,-2.1731,-2.1731,-2.2045,-2.2509,-2.3157,-2.3317,-2.3813,-2.4482,-2.4922,-2.5342,-2.5742,-2.5742,-2.5742,-2.5742,-2.5635,-2.5538,-2.5235,-2.4932,-2.4735,-2.443,-2.4251,-2.4152,-2.426,-2.4405,-2.4449,-2.4473,0.5295,0.4427,0.3812,0.3825,0.3807,0.4042,0.4312,0.4182,0.418,0.4808,0.3701,0.3453,0.4687,0.3944,0.3449,0.3697,0.1681,0.0117,-0.0341,-0.1474,-0.1923,-0.1463,-0.2705,-0.3502,-0.3853,-0.4304,-0.441,-0.417,-0.417,-0.3938,-0.3699,-0.3699,-0.3699,-0.3587,-0.3587,-0.3587,-0.3587,-0.3587,-0.3587,-0.3699,-0.4925,-0.5881,-0.6681,-0.8199,-0.919,-0.9882,-0.9951,-0.9977,-0.9945,-0.9945,-0.9945,-0.9945,-0.9945,-0.9823,-0.9685,-0.9685,-0.9657,-0.9628,-0.9628,-0.9727,-1.0019,-1.0998,-1.1325,-1.1644,-1.2575,-1.2953,-1.3431,-1.4388,-1.4765,-1.552,-1.7296,-1.7677,-1.787,-1.8635,-1.8827,-1.8827,-1.8827,-1.8827,-1.8827,-1.8827,-1.8827,-1.8827,-1.8827,-1.9204,-1.9387,-1.9471,-2.0275,-2.0907,-2.1177,-2.1463,-2.183,-2.2008,-2.2404,-2.2791,-2.3329,-2.4066,-2.4535,-2.4932,-2.4987,-2.5237,-2.5742,-2.5742,-2.5742,-2.5645,-2.544,-2.5235,-2.4941,-2.4735,-2.444,-2.4251,-2.4251,-2.4152,-2.426,-2.4405,-2.4378,-2.4341,0.6577,0.5569,0.4824,0.4943,0.4436,0.408,0.4503,0.427,0.4282,0.4807,0.3698,0.3081,0.3944,0.3573,0.3307,0.362,0.2375,0.1392,0.0898,0.0224,-0.0336,-0.0895,-0.2467,-0.3367,-0.3587,-0.3923,-0.4033,-0.3813,-0.3813,-0.3701,-0.3587,-0.3587,-0.3587,-0.3587,-0.3587,-0.3587,-0.3587,-0.3587,-0.3587,-0.3699,-0.448,-0.5206,-0.6209,-0.7504,-0.8557,-0.9289,-0.9713,-0.9831,-0.9762,-0.9862,-0.9862,-0.9762,-0.9862,-0.9896,-0.9727,-0.9628,-0.9727,-0.9727,-0.9628,-0.9821,-1.0117,-1.0801,-1.1389,-1.1975,-1.2759,-1.2953,-1.3244,-1.4286,-1.458,-1.5242,-1.7117,-1.7117,-1.7117,-1.8071,-1.8156,-1.8064,-1.8064,-1.8542,-1.8827,-1.8827,-1.8827,-1.8827,-1.8827,-1.8936,-1.9212,-1.9471,-1.9911,-2.0456,-2.1195,-2.1275,-2.1635,-2.2376,-2.2681,-2.3246,-2.4015,-2.4373,-2.4794,-2.5391,-2.5324,-2.544,-2.5742,-2.5742,-2.5635,-2.5538,-2.5333,-2.5039,-2.4735,-2.4529,-2.4341,-2.4152,-2.4152,-2.4152,-2.4251,-2.4279,-2.427,-2.427,0.7728,0.6802,0.6035,0.6016,0.5139,0.4561,0.48,0.4579,0.4482,0.4802,0.3812,0.3067,0.3314,0.3673,0.3868,0.3875,0.3515,0.3008,0.2131,0.1905,0.1121,-0.0559,-0.2579,-0.3593,-0.3587,-0.3587,-0.3587,-0.3587,-0.3587,-0.3587,-0.3587,-0.3587,-0.3587,-0.3587,-0.3699,-0.3587,-0.3587,-0.3699,-0.3587,-0.3587,-0.3924,-0.4436,-0.5339,-0.6727,-0.7641,-0.8347,-0.9443,-0.975,-0.9723,-0.992,-0.992,-0.9727,-0.992,-1.0019,-1.0019,-0.9723,-0.9826,-1.0019,-0.9821,-1.0019,-1.0511,-1.09,-1.1683,-1.2467,-1.3147,-1.3244,-1.3431,-1.4286,-1.4669,-1.5337,-1.6936,-1.6749,-1.656,-1.7498,-1.7591,-1.7483,-1.7584,-1.8156,-1.8635,-1.8827,-1.8827,-1.8827,-1.8735,-1.8751,-1.8936,-1.9563,-1.9654,-2.0011,-2.1122,-2.1195,-2.1626,-2.2775,-2.3041,-2.3715,-2.4764,-2.4584,-2.49,-2.5635,-2.5635,-2.5742,-2.5742,-2.5635,-2.5538,-2.5333,-2.5235,-2.4932,-2.4529,-2.443,-2.4341,-2.4152,-2.4152,-2.4152,-2.4152,-2.4152,-2.4152,-2.426,0.9415,0.8427,0.7296,0.6368,0.6107,0.5749,0.4938,0.4821,0.4725,0.4925,0.3534,0.3263,0.4836,0.5257,0.494,0.3805,0.3684,0.354,0.3361,0.2353,0.1457,0.0671,-0.2129,-0.3593,-0.3587,-0.3587,-0.3587,-0.3587,-0.3587,-0.3587,-0.3587,-0.3587,-0.3587,-0.3587,-0.3813,-0.3813,-0.3587,-0.3813,-0.3813,-0.3587,-0.3924,-0.4547,-0.5554,-0.6749,-0.7881,-0.8951,-0.9414,-0.9747,-0.992,-1.0019,-1.0117,-1.0216,-1.0019,-1.0117,-1.0314,-1.0019,-1.0117,-1.0314,-1.0314,-1.0314,-1.0605,-1.1585,-1.198,-1.237,-1.3545,-1.3636,-1.3443,-1.363,-1.3732,-1.4106,-1.5242,-1.5981,-1.6734,-1.7591,-1.7885,-1.8172,-1.8542,-1.8164,-1.8071,-1.8735,-1.8827,-1.8743,-1.8574,-1.9128,-1.922,-1.8759,-2.0209,-2.0934,-2.0473,-2.1374,-2.2283,-2.3057,-2.3407,-2.4105,-2.5059,-2.5353,-2.5479,-2.5333,-2.5635,-2.5742,-2.5732,-2.544,-2.5333,-2.5235,-2.4833,-2.4538,-2.4538,-2.435,-2.4251,-2.4152,-2.4152,-2.4152,-2.4152,-2.4152,-2.4152,-2.4251,1.0426,0.9566,0.8778,0.8218,0.7189,0.6407,0.6055,0.5506,0.5209,0.5414,0.4164,0.3402,0.3493,0.3087,0.339,0.4605,0.4714,0.4679,0.4597,0.4148,0.3139,0.179,-0.056,-0.2466,-0.3591,-0.3589,-0.3587,-0.3587,-0.3587,-0.3587,-0.3587,-0.3587,-0.3699,-0.3813,-0.3813,-0.3923,-0.4033,-0.3923,-0.3813,-0.3813,-0.3924,-0.4632,-0.5585,-0.6809,-0.7917,-0.9026,-0.9751,-1.0117,-1.0216,-1.0413,-1.0413,-1.0413,-1.0413,-1.0511,-1.0609,-1.0314,-1.0413,-1.0605,-1.0413,-1.0413,-1.0507,-1.1194,-1.178,-1.237,-1.3152,-1.3636,-1.3919,-1.3732,-1.3823,-1.4202,-1.5134,-1.5596,-1.6163,-1.7102,-1.721,-1.749,-1.8241,-1.7963,-1.7971,-1.8735,-1.8827,-1.8735,-1.8651,-1.9112,-1.9296,-1.9128,-2.0119,-2.0843,-2.0934,-2.1771,-2.2719,-2.3582,-2.4095,-2.4612,-2.5439,-2.5441,-2.5538,-2.5538,-2.5538,-2.544,-2.544,-2.5333,-2.5235,-2.5039,-2.4637,-2.444,-2.435,-2.4251,-2.4152,-2.4152,-2.4152,-2.4152,-2.4152,-2.4152,-2.4152,-2.4152]}]]